[[{"header":{"parameterUnit":"m.s-1","parameterCategory":1,"la1":30.6,"la2":28.766,"lo1":-90.7593,"lo2":-88.6598,"dx":0.0162,"dy":0.0183,"nx":116,"ny":114,"refTime":"2022-11-13T06:00:00:Z","depth":0,"parameterNumber":2,"parameterNumberName":"U-component_of_WINDS"},"data":[0.0,0.0,0.0,0.0,0.0,0.0,0.0,0.0,0.0,0.0,0.0,0.0,0.0,0.0,0.0,0.0,0.0,0.0,0.0,0.0,0.0,0.0,0.0,0.0,0.0,0.0,0.0,0.0,0.0,0.0,0.0,0.0,0.0,0.0,0.0,0.0,0.0,0.0,0.0,0.0,0.0,0.0,0.0,0.0,0.0,0.0,0.0,0.0,0.0,0.0,0.0,0.0,0.0,0.0,0.0,0.0,0.0,0.0,0.0,0.0,0.0,0.0,0.0,0.0,0.0,0.0,0.0,0.0,0.0,0.0,0.0,0.0,0.0,0.0,0.0,0.0,0.0,0.0,0.0,0.0,0.0,0.0,0.0,0.0,0.0,0.0,0.0,0.0,0.0,0.0,0.0,0.0,0.0,0.0,0.0,0.0,0.0,0.0,0.0,0.0,0.0,0.0,0.0,0.0,0.0,0.0,0.0,0.0,0.0,0.0,0.0,0.0,0.0,0.0,0.0,0.0,0.0,0.0,0.0,0.0,0.0,0.0,0.0,0.0,0.0,0.0,0.0,0.0,0.0,0.0,0.0,0.0,0.0,0.0,0.0,0.0,0.0,0.0,0.0,0.0,0.0,0.0,0.0,0.0,0.0,0.0,0.0,0.0,0.0,0.0,0.0,0.0,0.0,0.0,0.0,0.0,0.0,0.0,0.0,0.0,0.0,0.0,0.0,0.0,0.0,0.0,0.0,0.0,0.0,0.0,0.0,0.0,0.0,0.0,0.0,0.0,0.0,0.0,0.0,0.0,0.0,0.0,0.0,0.0,0.0,0.0,0.0,0.0,0.0,0.0,0.0,0.0,0.0,0.0,0.0,0.0,0.0,0.0,0.0,0.0,0.0,0.0,0.0,0.0,0.0,0.0,0.0,0.0,0.0,0.0,0.0,0.0,0.0,0.0,0.0,0.0,0.0,0.0,0.0,0.0,0.0,0.0,0.0,0.0,0.0,0.0,0.0,0.0,0.0,0.0,0.0,0.0,0.0,0.0,0.0,0.0,0.0,0.0,0.0,0.0,0.0,0.0,0.0,0.0,0.0,0.0,0.0,0.0,0.0,0.0,0.0,0.0,0.0,0.0,0.0,0.0,0.0,0.0,0.0,0.0,0.0,0.0,0.0,0.0,0.0,0.0,0.0,0.0,0.0,0.0,0.0,0.0,0.0,0.0,0.0,0.0,0.0,0.0,0.0,0.0,0.0,0.0,0.0,0.0,0.0,0.0,0.0,0.0,0.0,0.0,0.0,0.0,0.0,0.0,0.0,0.0,0.0,0.0,0.0,0.0,0.0,0.0,0.0,0.0,0.0,0.0,0.0,0.0,0.0,0.0,0.0,0.0,0.0,0.0,0.0,0.0,0.0,0.0,0.0,0.0,0.0,0.0,0.0,0.0,0.0,0.0,0.0,0.0,0.0,0.0,0.0,0.0,0.0,0.0,0.0,0.0,0.0,0.0,0.0,0.0,0.0,0.0,0.0,0.0,0.0,0.0,0.0,0.0,0.0,0.0,0.0,0.0,0.0,0.0,0.0,0.0,0.0,0.0,0.0,0.0,0.0,0.0,0.0,0.0,0.0,0.0,0.0,0.0,0.0,0.0,0.0,0.0,0.0,0.0,0.0,0.0,0.0,0.0,0.0,0.0,0.0,0.0,0.0,0.0,0.0,0.0,0.0,0.0,0.0,0.0,0.0,0.0,0.0,0.0,0.0,0.0,0.0,0.0,0.0,0.0,0.0,0.0,0.0,0.0,0.0,0.0,0.0,0.0,0.0,0.0,0.0,0.0,0.0,0.0,0.0,0.0,0.0,0.0,0.0,0.0,0.0,0.0,0.0,0.0,0.0,0.0,0.0,0.0,0.0,0.0,0.0,0.0,0.0,0.0,0.0,0.0,0.0,0.0,0.0,0.0,0.0,0.0,0.0,0.0,0.0,0.0,0.0,0.0,0.0,0.0,0.0,0.0,0.0,0.0,0.0,0.0,0.0,0.0,0.0,0.0,0.0,0.0,0.0,0.0,0.0,0.0,0.0,0.0,0.0,0.0,0.0,0.0,0.0,0.0,0.0,0.0,0.0,0.0,0.0,0.0,0.0,0.0,0.0,0.0,0.0,0.0,0.0,0.0,0.0,0.0,0.0,0.0,0.0,0.0,0.0,0.0,0.0,0.0,0.0,0.0,0.0,0.0,0.0,0.0,0.0,0.0,0.0,0.0,0.0,0.0,0.0,0.0,0.0,0.0,0.0,0.0,0.0,0.0,0.0,0.0,0.0,0.0,0.0,0.0,0.0,0.0,0.0,0.0,0.0,0.0,0.0,0.0,0.0,0.0,0.0,0.0,0.0,0.0,0.0,0.0,0.0,0.0,0.0,0.0,0.0,0.0,0.0,0.0,0.0,0.0,0.0,0.0,0.0,0.0,0.0,0.0,0.0,0.0,0.0,0.0,0.0,0.0,0.0,0.0,0.0,0.0,0.0,0.0,0.0,0.0,0.0,0.0,0.0,0.0,0.0,0.0,0.0,0.0,0.0,0.0,0.0,0.0,0.0,0.0,0.0,0.0,0.0,0.0,0.0,0.0,0.0,0.0,0.0,0.0,0.0,0.0,0.0,0.0,0.0,0.0,0.0,0.0,0.0,0.0,0.0,0.0,0.0,0.0,0.0,0.0,0.0,0.0,0.0,0.0,0.0,0.0,0.0,0.0,0.0,0.0,0.0,0.0,0.0,0.0,0.0,0.0,0.0,0.0,0.0,0.0,0.0,0.0,0.0,0.0,0.0,0.0,0.0,0.0,0.0,0.0,0.0,0.0,0.0,0.0,0.0,0.0,0.0,0.0,0.0,0.0,0.0,0.0,0.0,0.0,0.0,0.0,0.0,0.0,0.0,0.0,0.0,0.0,0.0,0.0,0.0,0.0,0.0,0.0,0.0,0.0,0.0,0.0,0.0,0.0,0.0,0.0,0.0,0.0,0.0,0.0,0.0,0.0,0.0,0.0,0.0,0.0,0.0,0.0,0.0,0.0,0.0,0.0,0.0,0.0,0.0,0.0,0.0,0.0,0.0,0.0,0.0,0.0,0.0,0.0,0.0,0.0,0.0,0.0,0.0,0.0,0.0,0.0,0.0,0.0,0.0,0.0,0.0,0.0,0.0,0.0,0.0,0.0,0.0,0.0,0.0,0.0,0.0,0.0,0.0,0.0,0.0,0.0,0.0,0.0,0.0,0.0,0.0,0.0,0.0,0.0,0.0,0.0,0.0,0.0,0.0,0.0,0.0,0.0,0.0,0.0,0.0,0.0,0.0,0.0,0.0,0.0,0.0,0.0,0.0,0.0,0.0,0.0,0.0,0.0,0.0,0.0,0.0,0.0,0.0,0.0,0.0,0.0,0.0,0.0,0.0,0.0,0.0,0.0,0.0,0.0,0.0,0.0,0.0,0.0,0.0,0.0,0.0,0.0,0.0,0.0,0.0,0.0,0.0,0.0,0.0,0.0,0.0,0.0,0.0,0.0,0.0,0.0,0.0,0.0,0.0,0.0,0.0,0.0,0.0,0.0,0.0,0.0,0.0,0.0,0.0,0.0,0.0,0.0,0.0,0.0,0.0,0.0,0.0,0.0,0.0,0.0,0.0,0.0,0.0,0.0,0.0,0.0,0.0,0.0,0.0,0.0,0.0,0.0,0.0,0.0,0.0,0.0,0.0,0.0,0.0,0.0,0.0,0.0,0.0,0.0,0.0,0.0,0.0,0.0,0.0,0.0,0.0,0.0,0.0,0.0,0.0,0.0,0.0,0.0,0.0,0.0,0.0,0.0,0.0,0.0,0.0,0.0,0.0,0.0,0.0,0.0,0.0,0.0,0.0,0.0,0.0,0.0,0.0,0.0,0.0,0.0,0.0,0.0,0.0,0.0,0.0,0.0,0.0,0.0,0.0,0.0,0.0,0.0,0.0,0.0,0.0,0.0,0.0,0.0,0.0,0.0,0.0,0.0,0.0,0.0,0.0,0.0,0.0,0.0,0.0,0.0,0.0,0.0,0.0,0.0,0.0,0.0,0.0,0.0,0.0,0.0,0.0,0.0,0.0,0.0,0.0,0.0,0.0,0.0,0.0,0.0,0.0,0.0,0.0,0.0,0.0,0.0,0.0,0.0,0.0,0.0,0.0,0.0,0.0,0.0,0.0,0.0,0.0,0.0,0.0,0.0,0.0,0.0,0.0,0.0,0.0,0.0,0.0,0.0,0.0,0.0,0.0,0.0,0.0,0.0,0.0,0.0,0.0,0.0,0.0,0.0,0.0,0.0,0.0,0.0,0.0,0.0,0.0,0.0,0.0,0.0,0.0,0.0,0.0,0.0,0.0,0.0,0.0,0.0,0.0,0.0,0.0,0.0,0.0,0.0,0.0,0.0,0.0,0.0,0.0,0.0,0.0,0.0,0.0,0.0,0.0,0.0,0.0,0.0,0.0,0.0,0.0,0.0,0.0,0.0,0.0,0.0,0.0,0.0,0.0,0.0,0.0,0.0,0.0,0.0,0.0,0.0,0.0,0.0,0.0,0.0,0.0,0.0,0.0,0.0,0.0,0.0,0.0,0.0,0.0,0.0,0.0,0.0,0.0,0.0,0.0,0.0,0.0,0.0,0.0,0.0,0.0,0.0,0.0,0.0,0.0,0.0,0.0,0.0,0.0,0.0,0.0,0.0,0.0,0.0,0.0,0.0,0.0,0.0,0.0,0.0,0.0,0.0,0.0,0.0,0.0,0.0,0.0,0.0,0.0,0.0,0.0,0.0,0.0,0.0,0.0,0.0,0.0,0.0,0.0,0.0,0.0,0.0,0.0,0.0,0.0,0.0,0.0,0.0,0.0,0.0,0.0,0.0,0.0,0.0,0.0,0.0,0.0,0.0,0.0,0.0,0.0,0.0,0.0,0.0,0.0,0.0,0.0,0.0,0.0,0.0,0.0,0.0,0.0,0.0,0.0,0.0,0.0,0.0,0.0,0.0,0.0,0.0,0.0,0.0,0.0,0.0,0.0,0.0,0.0,0.0,0.0,0.0,0.0,0.0,0.0,0.0,0.0,0.0,0.0,0.0,0.0,0.0,0.0,0.0,0.0,0.0,0.0,0.0,0.0,0.0,0.0,0.0,0.0,0.0,0.0,0.0,0.0,0.0,0.0,0.0,0.0,0.0,0.0,0.0,0.0,0.0,0.0,0.0,0.0,0.0,0.0,0.0,0.0,0.0,0.0,0.0,0.0,0.0,0.0,0.0,0.0,0.0,0.0,0.0,0.0,0.0,0.0,0.0,0.0,0.0,0.0,0.0,0.0,0.0,0.0,0.0,0.0,0.0,0.0,0.0,0.0,0.0,0.0,0.0,0.0,0.0,0.0,0.0,0.0,0.0,0.0,0.0,0.0,0.0,0.0,0.0,0.0,0.0,0.0,0.0,0.0,0.0,0.0,0.0,0.0,0.0,0.0,0.0,0.0,0.0,0.0,0.0,0.0,0.0,0.0,0.0,0.0,0.0,0.0,0.0,0.0,0.0,0.0,0.0,0.0,0.0,0.0,0.0,0.0,0.0,0.0,0.0,0.0,0.0,0.0,0.0,0.0,0.0,0.0,0.0,0.0,0.0,0.0,0.0,0.0,0.0,0.0,0.0,0.0,0.0,0.0,0.0,0.0,0.0,0.0,0.0,0.0,0.0,0.0,0.0,0.0,0.0,0.0,0.0,0.0,0.0,0.0,0.0,0.0,0.0,0.0,0.0,0.0,0.0,0.0,0.0,0.0,0.0,0.0,0.0,0.0,0.0,0.0,0.0,0.0,0.0,0.0,0.0,0.0,0.0,0.0,0.0,0.0,0.0,0.0,0.0,0.0,0.0,0.0,0.0,0.0,0.0,0.0,0.0,0.0,0.0,0.0,0.0,0.0,0.0,0.0,0.0,0.0,0.0,0.0,0.0,0.0,0.0,0.0,0.0,0.0,0.0,0.0,0.0,0.0,0.0,0.0,0.0,0.0,0.0,0.0,0.0,0.0,0.0,0.0,0.0,0.0,0.0,0.0,0.0,0.0,0.0,0.0,0.0,5.7591,0.0,0.0,0.0,0.0,0.0,0.0,0.0,0.0,0.0,0.0,0.0,0.0,0.0,0.0,0.0,0.0,0.0,0.0,0.0,0.0,0.0,0.0,0.0,0.0,3.6307,3.7209,3.7656,3.8569,0.0,0.0,0.0,0.0,0.0,0.0,0.0,3.9812,3.9433,3.9819,4.1125,4.1751,4.3155,4.5209,4.4101,4.2984,4.192,0.0,0.0,0.0,0.0,0.0,0.0,0.0,0.0,0.0,0.0,0.0,0.0,0.0,0.0,0.0,0.0,0.0,0.0,0.0,0.0,0.0,0.0,0.0,0.0,0.0,0.0,0.0,0.0,0.0,0.0,0.0,0.0,0.0,0.0,0.0,0.0,0.0,0.0,0.0,0.0,0.0,0.0,0.0,0.0,0.0,0.0,0.0,0.0,0.0,0.0,0.0,0.0,0.0,0.0,0.0,0.0,0.0,0.0,0.0,0.0,0.0,0.0,0.0,0.0,0.0,0.0,0.0,0.0,0.0,0.0,0.0,5.836,0.0,0.0,0.0,0.0,0.0,0.0,0.0,0.0,0.0,0.0,0.0,0.0,0.0,0.0,0.0,0.0,0.0,0.0,0.0,0.0,0.0,3.3744,3.5252,3.7656,3.9232,3.9523,4.0988,4.1831,4.1626,4.1456,0.0,0.0,0.0,0.0,4.2004,4.1318,4.1757,4.3433,4.4448,4.5877,4.7658,4.7695,4.6808,4.5127,4.3312,0.0,0.0,0.0,0.0,0.0,0.0,0.0,0.0,0.0,0.0,0.0,0.0,0.0,0.0,0.0,0.0,0.0,0.0,0.0,0.0,0.0,0.0,0.0,0.0,0.0,0.0,0.0,0.0,0.0,0.0,0.0,0.0,0.0,0.0,0.0,0.0,0.0,0.0,0.0,0.0,0.0,0.0,0.0,0.0,0.0,0.0,0.0,0.0,0.0,0.0,0.0,0.0,0.0,0.0,0.0,0.0,0.0,0.0,0.0,0.0,0.0,0.0,0.0,6.2438,6.2903,6.24,6.3778,6.4128,6.3595,6.2554,6.2589,6.3083,0.0,0.0,0.0,0.0,0.0,0.0,0.0,0.0,0.0,0.0,0.0,0.0,0.0,0.0,0.0,0.0,0.0,0.0,0.0,0.0,3.4589,3.6905,3.8121,3.9324,4.0714,4.1097,4.1346,4.1587,4.1593,0.0,0.0,0.0,4.2443,4.2927,4.2816,4.3422,4.4748,4.8142,5.0102,5.0723,5.0788,5.0493,4.9813,4.7307,4.5107,4.3277,0.0,0.0,0.0,0.0,0.0,0.0,0.0,0.0,0.0,0.0,0.0,0.0,0.0,0.0,0.0,0.0,0.0,0.0,0.0,0.0,0.0,0.0,0.0,0.0,0.0,0.0,0.0,0.0,0.0,0.0,0.0,0.0,0.0,0.0,0.0,0.0,0.0,0.0,0.0,0.0,0.0,5.0125,5.2585,0.0,0.0,0.0,0.0,0.0,0.0,0.0,0.0,0.0,0.0,0.0,0.0,0.0,0.0,6.2775,6.3548,6.4666,6.6093,6.709,6.7894,6.8513,6.8744,6.9167,6.9667,6.8087,0.0,6.3314,6.3625,0.0,0.0,0.0,0.0,0.0,0.0,0.0,0.0,0.0,0.0,0.0,0.0,0.0,0.0,0.0,0.0,0.0,0.0,0.0,0.0,0.0,3.9981,4.214,4.3317,4.4446,4.4848,4.4325,4.3648,0.0,0.0,4.2691,4.2907,4.3773,4.4241,4.5921,4.8895,5.0776,5.2418,5.3714,5.3754,5.3685,5.3466,5.2306,4.9533,4.5712,4.5086,0.0,0.0,0.0,0.0,0.0,0.0,0.0,0.0,0.0,0.0,0.0,0.0,0.0,0.0,0.0,0.0,0.0,0.0,0.0,0.0,0.0,0.0,0.0,0.0,0.0,0.0,0.0,0.0,0.0,0.0,0.0,0.0,0.0,0.0,0.0,0.0,0.0,0.0,0.0,5.0243,5.2472,5.5013,5.4587,5.4046,0.0,0.0,0.0,0.0,0.0,0.0,0.0,0.0,0.0,6.2243,6.2355,6.3586,6.6122,6.7048,6.7821,6.8555,6.9395,7.001,7.036,7.036,7.0552,7.0821,6.9664,6.8007,6.6083,6.5048,6.3897,6.2666,0.0,0.0,0.0,0.0,6.0014,6.0515,0.0,0.0,0.0,0.0,0.0,0.0,0.0,0.0,0.0,0.0,0.0,0.0,3.8576,4.2181,4.49,4.5898,4.7345,4.7723,4.6495,4.5424,4.4544,4.3793,4.3307,4.3528,4.4622,4.6126,4.857,5.2044,5.2993,5.4197,5.559,5.5727,5.5716,5.5585,5.5585,5.29,4.8316,4.7774,4.5523,4.2288,0.0,0.0,0.0,0.0,0.0,0.0,0.0,0.0,0.0,0.0,0.0,0.0,0.0,0.0,0.0,0.0,0.0,0.0,0.0,0.0,0.0,0.0,0.0,0.0,0.0,0.0,0.0,0.0,0.0,0.0,0.0,0.0,0.0,0.0,0.0,0.0,0.0,5.2626,5.478,5.7324,5.7478,5.717,0.0,0.0,0.0,0.0,0.0,0.0,6.074,6.0817,6.2355,6.5782,6.5894,6.6894,6.9007,6.9664,7.0014,7.0014,7.0591,7.0898,7.0898,7.1129,7.1245,7.1209,7.036,6.951,6.8545,6.6205,6.4743,6.3894,6.3054,6.2323,6.1784,6.2015,6.2633,6.3518,0.0,0.0,0.0,0.0,0.0,0.0,0.0,0.0,0.0,0.0,0.0,4.0291,4.1882,4.429,4.6429,4.8004,4.8248,4.7767,4.6495,4.6057,4.5581,4.5017,4.468,4.482,4.5507,4.8707,5.106,5.247,5.4847,5.5872,5.5596,5.5983,5.599,5.5585,5.5585,5.4153,5.1693,5.0896,4.8656,4.5479,4.3435,0.0,0.0,0.0,0.0,0.0,0.0,0.0,0.0,0.0,0.0,0.0,0.0,0.0,0.0,0.0,0.0,0.0,0.0,0.0,0.0,0.0,0.0,0.0,0.0,0.0,0.0,0.0,0.0,0.0,0.0,0.0,0.0,0.0,0.0,0.0,0.0,0.0,0.0,5.9088,6.0787,0.0,0.0,0.0,0.0,5.9319,5.9396,6.0858,6.4166,6.4359,6.5897,6.9356,6.9436,6.9856,7.0783,7.0821,7.0821,7.0821,7.0898,7.0898,7.0937,7.1748,7.2133,7.2098,7.1206,7.0398,6.9513,6.7709,6.6516,6.567,6.482,6.4436,6.4512,6.5323,6.6131,6.6981,0.0,0.0,0.0,3.3106,3.2806,3.2696,3.2989,3.3473,3.4097,3.4887,3.7878,4.0491,4.2103,4.5369,4.8118,4.9769,5.0398,5.0284,4.9297,4.7615,4.6433,4.5953,4.4831,4.5687,4.8815,5.0824,5.3096,5.5646,5.6266,5.679,5.7164,5.728,5.7269,5.7158,5.7158,5.6565,5.5416,5.3239,5.0467,4.7343,4.6296,4.3835,0.0,0.0,0.0,0.0,0.0,0.0,0.0,0.0,0.0,0.0,0.0,0.0,0.0,0.0,0.0,0.0,0.0,0.0,0.0,0.0,0.0,0.0,0.0,0.0,0.0,0.0,0.0,0.0,0.0,0.0,0.0,0.0,0.0,0.0,0.0,0.0,0.0,6.0787,6.171,0.0,0.0,6.2432,6.3012,6.3592,6.4625,6.601,6.7782,6.7894,6.8664,7.0437,7.0475,7.0591,7.0898,7.0898,7.1171,7.1748,7.1748,7.2014,7.2587,7.2895,7.2745,7.2136,7.1283,7.0437,6.9629,6.8433,6.7128,6.5862,6.5554,6.5747,6.6247,6.6555,6.7901,6.9513,0.0,3.4171,0.0,3.3103,3.2993,3.2993,3.2993,3.395,3.5128,3.6476,3.9492,4.2359,4.453,4.7645,5.01,5.1494,5.2087,5.172,5.0063,4.8406,4.6915,4.5656,4.5226,4.7001,5.1227,5.2355,5.4313,5.7206,5.7216,5.7477,5.8002,5.8002,5.8002,5.8002,5.8002,5.7744,5.7163,5.5396,5.2929,5.0036,4.8456,4.5792,4.2733,0.0,0.0,0.0,0.0,0.0,0.0,0.0,0.0,0.0,0.0,0.0,0.0,0.0,0.0,0.0,0.0,0.0,0.0,0.0,0.0,0.0,0.0,0.0,0.0,0.0,0.0,0.0,0.0,0.0,0.0,0.0,0.0,0.0,0.0,0.0,5.9976,6.2246,6.3515,6.4323,6.4548,6.5356,6.624,6.7128,6.8202,6.9202,7.0052,7.009,7.036,7.0898,7.0898,7.1052,7.1321,7.1321,7.1783,7.2629,7.2629,7.2783,7.3088,7.3353,7.3011,7.2136,7.1283,7.0591,7.0014,6.8856,6.7741,6.6744,6.6744,6.7244,6.8016,6.8286,6.9632,7.1206,0.0,3.3807,3.3807,3.3807,3.3807,3.381,3.3844,3.5242,3.7188,3.9614,4.2722,4.5957,4.9238,5.1032,5.2312,5.3141,5.3214,5.182,4.859,4.8338,4.7025,4.4175,4.6033,4.8857,5.2424,5.3343,5.4796,5.6853,5.7629,5.8002,5.8002,5.8002,5.8002,5.8002,5.8002,5.7567,5.6884,5.7304,5.6134,5.3698,4.9957,4.7439,4.5814,0.0,0.0,0.0,0.0,0.0,0.0,0.0,0.0,0.0,0.0,0.0,0.0,0.0,0.0,0.0,0.0,0.0,0.0,0.0,0.0,0.0,0.0,0.0,0.0,0.0,0.0,0.0,0.0,0.0,0.0,0.0,0.0,0.0,5.6849,6.0734,6.3352,6.3468,6.6391,6.8087,6.7209,6.7933,6.8776,6.9625,6.9706,7.009,7.086,7.0898,7.0898,7.0937,7.0937,7.1363,7.2171,7.2213,7.2629,7.3507,7.3469,7.3049,7.2325,7.3126,7.3011,7.2136,7.1325,7.0937,7.0783,6.9164,6.8468,6.8468,6.843,6.8933,6.9779,7.0591,7.1402,7.2056,3.3697,3.3807,3.3807,3.3807,3.3807,3.399,3.4564,3.5602,3.7367,4.0369,4.3048,4.5957,4.9238,5.1032,5.2312,5.3141,5.3214,5.2333,5.0246,4.8962,4.744,4.5473,4.8762,5.1371,5.296,5.4944,5.6504,5.7666,5.7892,5.8002,5.8002,5.8002,5.8002,5.8002,5.8002,5.8056,5.8168,5.7685,5.7126,5.6231,5.2856,4.994,4.749,0.0,0.0,0.0,0.0,0.0,0.0,0.0,0.0,0.0,0.0,0.0,0.0,0.0,0.0,0.0,0.0,0.0,0.0,0.0,0.0,0.0,0.0,0.0,0.0,0.0,0.0,0.0,0.0,0.0,0.0,0.0,0.0,6.0775,6.1467,6.2583,6.4237,6.6699,6.7814,6.8314,6.8087,6.8818,6.9433,6.9664,7.0244,7.0667,7.0898,7.0898,7.1209,7.1825,7.1825,7.194,7.2213,7.2213,7.2629,7.3507,7.286,7.3053,7.4011,7.3661,7.3011,7.2171,7.194,7.1479,7.086,7.0398,7.0202,7.0087,6.8853,6.8933,6.9744,6.9937,7.0552,7.1325,3.3657,3.3807,3.3807,3.3807,3.3807,3.406,3.4891,3.5745,3.7808,4.2053,4.4113,4.6723,5.0697,5.194,5.2706,5.3177,5.259,5.1489,4.9843,4.8191,4.7645,4.8421,5.0739,5.2858,5.4682,5.6077,5.7367,5.8505,5.8505,5.8688,5.9024,5.9024,5.8841,5.8505,5.8505,5.8484,5.8397,5.834,5.7866,5.7042,5.5229,5.2418,4.9206,4.7752,4.6487,4.5461,4.5152,4.5041,4.5064,4.5327,0.0,0.0,0.0,0.0,0.0,0.0,0.0,0.0,0.0,0.0,0.0,0.0,0.0,0.0,0.0,0.0,0.0,0.0,0.0,0.0,0.0,0.0,0.0,0.0,6.0663,6.3929,6.5737,6.5971,6.6702,6.8702,6.9241,6.9318,6.8972,6.9702,7.0052,6.9744,7.0437,7.0898,7.0898,7.1248,7.1517,7.1633,7.2017,7.2213,7.2213,7.2213,7.2629,7.3507,7.3322,7.3591,7.4199,7.4049,7.3549,0.0,7.2745,7.2476,7.1972,7.1972,7.1972,0.0,0.0,0.0,0.0,0.0,7.2399,7.2552,3.3657,3.3807,3.3807,3.3807,3.388,3.4204,3.5037,3.5896,3.8472,4.4117,4.5443,4.7755,5.2664,5.3214,5.3214,5.3214,5.1715,5.01,4.8411,4.7241,4.8201,5.184,5.2349,5.3891,5.6737,5.6994,5.7765,5.919,5.93,5.971,6.0413,6.0413,6.0009,5.9343,5.9227,5.8792,5.8187,5.9051,5.8487,5.7017,5.7114,5.4682,5.0907,4.9219,4.7641,4.6292,4.6218,4.6177,4.6121,4.5786,0.0,0.0,0.0,0.0,0.0,0.0,0.0,0.0,0.0,0.0,0.0,0.0,0.0,0.0,0.0,0.0,0.0,0.0,0.0,0.0,0.0,0.0,0.0,0.0,6.2237,6.5356,6.9164,6.9783,6.9818,6.9706,7.0321,7.0398,6.9513,7.0244,7.0437,6.9625,7.0475,7.1052,7.1052,0.0,0.0,0.0,0.0,7.2213,7.2213,7.2287,7.2745,7.3507,7.4199,7.4242,7.3661,7.4276,7.4165,7.3507,7.3507,7.3507,7.3507,7.3507,7.3507,7.3353,7.1783,7.2126,7.3661,7.5165,7.5242,7.4546,3.3657,3.3807,3.3807,3.3807,3.4351,3.5041,3.5932,3.6751,3.9288,4.4929,4.581,4.7755,5.2664,5.3214,5.3214,5.3214,5.1715,5.01,4.8411,4.9884,5.1179,5.1987,5.4473,5.6156,5.678,5.8058,5.8897,5.919,5.9857,6.0266,6.0413,6.0413,6.0303,6.0156,5.9484,5.9117,5.8984,5.9271,5.8986,5.8319,5.8057,5.5884,5.2553,5.0944,4.9701,4.8798,4.8086,4.7824,4.7948,4.8553,4.8264,4.773,4.8334,4.7975,0.0,0.0,0.0,0.0,0.0,0.0,0.0,0.0,0.0,0.0,0.0,0.0,0.0,0.0,0.0,0.0,0.0,0.0,0.0,6.2314,6.5894,6.8741,6.9587,7.0244,7.0437,6.9783,6.986,6.9321,6.7747,6.9017,6.9587,6.8737,7.0706,7.194,7.194,7.2094,0.0,7.2969,7.2476,7.2213,7.2213,7.2899,7.3318,7.3507,0.0,0.0,7.443,7.3969,7.3661,7.3507,7.3507,7.3507,7.3507,7.3507,7.3507,7.3469,7.3122,7.3199,7.3546,7.3853,7.3892,7.3738,3.4164,3.4384,3.4534,3.4981,3.5382,3.5932,3.6787,3.7595,3.9684,4.4126,4.5039,4.6686,5.0352,5.0383,5.0163,5.0163,4.9397,4.8773,4.8338,5.0618,5.2538,5.3749,5.5721,5.7178,5.7985,5.8787,5.96,6.0413,6.0786,6.1221,6.1582,6.1582,6.1404,6.097,6.0156,5.96,5.9199,5.9341,5.9009,5.8376,5.8694,5.7028,5.4216,5.2595,5.1242,5.0146,4.9701,4.9549,4.9622,5.0031,5.0013,4.9905,5.0512,5.024,4.9679,0.0,0.0,0.0,0.0,0.0,0.0,0.0,0.0,0.0,0.0,0.0,0.0,0.0,0.0,5.4511,0.0,0.0,6.3243,6.4936,6.7744,6.9702,6.9702,7.0052,7.0164,6.9741,6.9702,6.9013,6.7289,6.8282,6.8702,6.7821,6.9744,7.094,7.094,7.1748,7.221,7.2203,7.221,7.2213,7.2213,7.2629,7.3088,7.3507,7.3892,7.4315,7.4703,7.4742,7.4742,7.4742,7.4742,7.4742,7.4742,7.4742,7.4742,7.4742,7.4742,7.4472,7.4161,7.4588,7.4742,7.4742,3.4968,3.5371,3.5668,3.6196,3.642,3.6751,3.7419,3.8179,3.9863,4.3065,4.4048,4.5438,4.8008,4.7594,4.6966,4.6672,4.7227,4.7783,4.8264,5.1064,5.3566,5.5511,5.6528,5.7691,5.9153,5.9337,6.0156,6.16,6.1741,6.2175,6.2793,6.2793,6.2358,6.1563,6.075,5.993,5.9193,5.9235,5.882,5.8189,5.8971,5.7849,5.5564,5.4185,5.2559,5.1022,5.087,5.0752,5.0669,5.0759,5.1065,5.1444,5.1887,5.1747,5.137,5.1221,4.9974,0.0,0.0,0.0,0.0,0.0,0.0,0.0,0.0,0.0,5.1977,5.3815,5.5011,5.6591,5.9473,6.2201,6.4779,6.6978,6.8783,6.9898,6.9706,6.9702,6.9587,6.9244,6.9206,6.859,6.7016,6.7818,6.8125,6.7401,6.909,7.0206,7.0206,7.1479,7.1979,7.1437,7.1902,7.2287,7.2441,7.2594,7.3053,7.3738,7.4549,7.4934,7.4972,7.5668,7.6015,7.6015,7.6015,7.6015,7.6015,7.6015,7.6015,7.6015,7.6015,7.5553,7.5049,7.5745,7.6015,7.6015,3.5969,3.6714,3.7011,3.6417,3.6898,3.7419,3.7492,3.8179,3.9863,4.3065,4.3579,4.4823,4.7971,4.7594,4.653,4.5099,4.765,4.9013,4.8338,5.2643,5.5328,5.5585,5.7048,5.8284,5.919,5.9893,6.0713,6.16,6.2322,6.2719,6.2793,6.2793,6.2358,6.1563,6.075,5.993,5.9164,5.891,5.8738,5.8632,5.8758,5.7742,5.6157,5.557,5.3891,5.1762,5.1059,5.053,5.0233,5.0652,5.1049,5.1372,5.1838,5.1907,5.1964,5.269,5.1743,5.0438,5.0517,0.0,0.0,5.0476,5.0632,5.1361,0.0,0.0,5.478,5.7239,5.8973,6.0441,6.1595,6.448,6.7013,6.8087,6.9664,7.0514,6.9818,6.9702,6.9129,6.7555,6.7401,6.7019,6.6131,6.7471,6.8353,6.8276,7.0514,7.1902,7.1902,7.2098,7.2517,7.3199,7.2552,7.2552,7.3357,7.4049,7.4472,7.4588,7.5438,7.5861,7.5861,7.5976,7.6015,7.6015,7.6015,7.6015,7.6015,7.6015,7.6015,7.6015,7.6015,7.5938,7.5861,7.5976,7.6015,7.6015,3.6119,3.6938,3.7525,3.7661,3.7955,3.8215,3.8215,3.8876,3.9867,4.123,4.1813,4.2796,4.4594,4.4521,4.4039,4.3346,4.6282,4.8416,4.9008,5.3162,5.58,5.6271,5.7373,5.8584,5.9857,6.023,6.1037,6.2285,6.2646,6.2793,6.2793,6.2793,6.2358,6.1563,6.075,5.993,5.9195,5.8842,5.8528,5.8294,5.807,5.7165,5.5818,5.5163,5.3995,5.2637,5.2013,5.1343,0.0,5.1883,5.211,5.225,5.3449,5.3275,5.2813,5.37,5.2051,5.0166,5.1125,0.0,0.0,0.0,5.4364,5.4862,5.678,5.6931,5.7162,5.8662,6.0361,6.1979,6.3323,6.5519,6.7555,0.0,6.9318,6.9318,6.901,6.8513,6.7747,6.6555,6.6827,6.6981,6.6635,6.7247,6.7859,6.8353,6.9856,7.0744,7.0744,7.1671,7.2364,7.2745,7.2899,7.3357,7.4203,7.4549,7.4934,7.5472,7.5822,7.6015,7.6015,7.6015,7.6015,7.6015,7.6015,7.6015,7.6053,7.6557,7.6749,7.6788,7.7288,7.7442,7.7326,7.6361,7.6015,7.6053,3.6119,3.6938,3.7746,3.8579,3.8685,3.8685,3.8685,3.9203,3.9647,3.9871,4.0414,4.0993,4.1552,4.1625,4.1735,4.1952,4.4521,4.7017,4.9087,5.2831,5.5396,5.6413,5.7446,5.8657,6.0046,6.0303,6.1074,6.2469,6.2683,6.2793,6.2793,6.2572,6.2034,6.1227,6.0413,5.96,5.8858,5.8602,5.8173,5.7633,5.7397,5.6473,5.5212,5.4625,5.3666,5.2647,5.2308,5.1718,5.1227,5.1902,5.1975,5.1961,5.3293,5.2995,5.2354,5.3469,5.2049,5.0469,5.2159,0.0,0.0,5.6387,5.6891,5.7203,5.8043,5.8345,5.8723,5.9804,6.1029,6.2439,6.4263,6.5669,6.7099,6.8731,6.8664,6.8314,6.8087,6.7516,6.6789,6.6016,6.6593,6.717,6.7439,6.767,6.809,6.8702,6.9549,7.0129,7.0398,7.1556,7.2402,7.2864,7.3511,7.4242,7.5049,7.5049,7.5399,7.6015,7.6015,7.613,7.6361,7.6595,7.6557,7.6361,7.6595,7.6672,7.6749,7.7365,7.7634,7.7676,7.8253,7.8484,7.8369,7.7134,7.6672,7.6788,3.6119,3.6938,3.7746,3.8579,3.8685,3.8685,3.8685,3.8722,3.9015,3.9794,3.9908,3.9945,3.9978,3.9978,4.0304,4.1063,4.2653,4.497,4.8118,5.1453,5.399,5.5585,5.7158,5.84,5.9233,6.0003,6.0823,6.1637,6.2432,6.2793,6.2793,6.1998,6.119,6.0413,5.96,5.8792,5.8039,5.802,5.7573,5.6853,5.6833,5.5879,5.4436,5.4399,5.3135,5.1374,5.135,5.1083,5.0572,4.9808,4.9496,4.9564,5.0021,4.9841,4.9856,5.1502,5.1926,5.2195,5.3933,0.0,5.4232,5.5895,5.663,5.7109,5.7922,5.8448,5.9275,6.0979,6.1331,6.2002,6.4219,6.4921,6.56,6.6964,6.7856,6.8087,6.7247,6.7135,6.6789,6.6016,6.6593,6.7439,0.0,6.9125,6.9625,6.9667,7.0398,7.1245,7.2094,7.2171,7.2941,7.4588,7.4665,7.5088,7.5938,7.5976,7.5976,7.6015,7.6015,7.6438,7.7288,7.8061,7.7984,7.7288,7.8099,7.8407,7.8446,7.8446,7.8446,7.8484,7.8484,7.8484,7.8484,7.8446,7.8407,7.8446,3.6119,3.6938,3.7746,3.8579,3.8685,3.8685,3.8685,3.8685,3.8795,3.9056,4.0043,0.0,0.0,0.0,0.0,0.0,4.3053,4.4961,4.6617,5.0792,5.3697,5.4772,5.6864,5.8394,5.919,5.949,6.0003,6.0786,6.1074,6.1221,6.1184,6.0927,6.0376,5.96,5.93,5.8462,5.7183,5.7183,5.6748,5.5946,5.5427,5.4707,5.3936,5.3348,5.2217,5.0792,0.0,4.9184,4.864,4.9196,4.9035,4.876,5.0051,4.9585,4.8776,4.9892,5.1854,5.3809,5.4626,5.5545,5.6494,5.73,5.8035,5.8617,5.889,5.9313,5.9992,6.1155,6.1649,6.2414,6.426,6.4686,6.5261,6.6846,6.6901,6.6821,6.7055,6.7096,6.7019,6.6747,6.7978,0.0,0.0,0.0,0.0,7.0475,7.1283,7.1902,7.2171,7.3245,7.4126,7.4661,7.5242,7.5976,7.6865,7.6865,7.7134,7.7673,7.7673,7.7826,7.8099,7.8369,7.8369,7.8096,7.8369,7.8484,7.8523,7.9131,7.9361,7.9438,8.0015,8.0212,8.0212,8.0212,8.0212,8.0131,3.6193,3.6938,3.7746,3.8579,3.8685,0.0,0.0,0.0,0.0,0.0,0.0,0.0,0.0,0.0,0.0,0.0,0.0,4.4003,4.5365,4.8957,5.1526,5.2643,5.4436,5.5684,5.6187,5.648,5.7031,5.7844,5.8688,5.9275,5.9538,5.9826,5.9526,5.8756,5.8462,5.7689,5.6593,5.6593,5.6235,5.5535,5.4388,5.36,5.2972,5.1838,5.0632,0.0,4.8628,4.7679,4.6933,4.7756,4.7665,4.7471,4.8896,4.8971,4.874,4.9627,5.1739,5.402,5.5172,5.6272,5.7309,5.8128,5.8615,5.8903,5.8903,5.962,6.055,6.1399,6.1933,6.2868,6.4721,6.4641,6.4944,6.6804,6.667,6.6631,6.7439,6.7552,6.7552,6.7552,6.8821,6.9702,0.0,0.0,0.0,7.1325,7.1863,7.2441,7.3056,7.4126,7.4857,7.5165,7.6015,7.6749,7.7288,7.7596,7.7984,7.8484,7.8827,7.8788,7.8523,7.9138,7.925,7.8981,7.9288,7.9442,7.9481,8.0015,8.0242,8.0319,8.09,8.1093,8.1093,8.1093,8.1093,8.1016,3.6343,3.7011,3.7815,0.0,0.0,0.0,0.0,0.0,0.0,0.0,0.0,0.0,0.0,0.0,0.0,0.0,0.0,0.0,4.4406,4.6163,4.7819,4.9385,5.0325,5.0797,5.0797,5.1541,5.2307,5.3067,5.5379,5.689,5.7635,5.8425,5.8364,5.7633,5.685,5.6304,5.5895,5.5895,5.5695,5.5248,5.3579,5.2456,5.1552,4.9962,4.8599,4.7466,4.7466,4.6646,4.5592,4.5592,4.5669,4.5898,4.6814,4.8199,4.97,5.061,5.1722,5.3236,5.5673,5.6359,5.6682,5.8253,5.8348,5.8008,5.8079,5.9432,6.0872,6.1691,6.2212,6.317,0.0,0.0,6.4488,6.6618,6.7058,6.7401,6.8237,6.8391,6.8468,0.0,0.0,0.0,0.0,0.0,0.0,7.2329,0.0,7.3018,7.4626,7.4742,7.5165,7.6053,7.6865,7.7326,7.7442,7.8215,7.8638,7.8638,7.9477,7.9438,7.8677,8.0366,8.0669,7.9896,8.0746,8.1093,8.1093,8.1093,8.1093,8.1093,8.1093,8.1093,8.1093,8.1093,8.1093,8.1093,0.0,0.0,0.0,0.0,0.0,0.0,0.0,0.0,0.0,0.0,0.0,0.0,0.0,0.0,0.0,0.0,0.0,0.0,4.2832,4.5539,4.7301,4.7709,4.9696,5.0797,5.0797,5.0986,5.1206,5.1421,5.2045,5.2412,5.2637,5.2852,5.2965,5.2992,5.2807,5.246,5.204,5.204,5.1629,5.0956,5.0527,5.0032,4.9536,4.9112,4.8146,4.7045,4.7045,4.6445,4.5592,4.5592,0.0,0.0,0.0,5.0433,5.1498,0.0,0.0,5.5589,5.6799,5.7565,5.807,5.815,5.808,5.8275,5.9266,5.9613,6.0072,6.1281,6.1374,6.1639,0.0,0.0,0.0,6.5038,6.6285,0.0,6.7401,6.8552,0.0,6.9356,0.0,7.086,7.1517,7.194,0.0,0.0,7.4049,7.4242,7.4661,7.5322,7.6053,7.6942,7.7172,7.7903,7.9165,8.0015,8.0442,8.0442,8.0669,8.0631,8.0439,8.09,8.0977,8.0785,8.1016,8.1093,8.1093,8.1093,8.1093,8.1093,8.1093,8.1093,8.1093,8.1093,8.1093,8.1093,0.0,0.0,0.0,0.0,0.0,0.0,0.0,0.0,0.0,0.0,0.0,0.0,0.0,0.0,0.0,0.0,0.0,0.0,0.0,4.4301,4.5507,4.5507,4.6838,4.7609,4.7609,4.7609,4.7944,4.8636,4.8994,4.9549,5.0293,5.0618,5.0786,5.0764,5.0764,5.0625,5.0333,5.0333,5.0175,0.0,0.0,4.8691,4.8403,4.7676,4.6941,4.6317,4.6317,4.6278,4.6357,4.7478,0.0,4.9471,5.0818,5.1912,5.2942,5.4008,0.0,5.6426,5.7204,5.7871,5.8348,5.8082,5.8253,5.8529,5.8607,5.9306,5.9945,6.0,6.0418,0.0,0.0,0.0,0.0,0.0,0.0,0.0,6.8209,6.9398,7.0244,0.0,7.0975,0.0,7.2136,7.2864,7.3707,0.0,7.4703,7.4857,7.5242,7.6092,7.6788,7.7288,7.8019,7.9015,8.0358,8.0862,8.1093,8.1093,8.1093,8.1093,8.1093,8.1093,8.1093,8.1093,0.0,8.1093,8.1093,8.1093,8.1093,8.1093,8.1093,8.1323,8.1631,8.1631,8.1862,8.2212,0.0,0.0,0.0,0.0,0.0,0.0,0.0,0.0,0.0,3.9015,3.8942,0.0,0.0,0.0,0.0,0.0,0.0,0.0,0.0,0.0,4.3506,4.3506,4.3506,4.3506,4.3506,4.3506,4.4162,4.5594,4.6278,4.7384,4.8802,4.9481,4.9681,4.9371,4.9371,4.9397,4.9408,4.9408,4.9655,4.9901,4.8394,4.7776,4.7622,0.0,4.5592,4.5592,4.5592,4.6165,4.7274,4.9822,5.0784,5.1051,5.2082,5.3235,5.4348,5.5054,5.5827,5.6607,5.7279,5.7734,5.8039,5.8143,5.8688,5.887,5.76,5.8903,6.0035,5.8647,0.0,6.1361,6.382,6.3663,6.424,6.7545,0.0,6.8395,6.9395,7.0244,7.0821,7.1052,7.1748,7.2287,7.2517,7.386,7.4742,7.4857,7.4972,7.5399,7.613,7.6903,7.7403,7.7634,7.9165,8.0319,8.1093,8.1093,8.1093,8.1093,8.1093,8.1093,8.1093,8.1093,8.1093,8.1093,0.0,0.0,8.1093,8.1093,8.117,8.1243,8.1141,8.162,8.235,8.235,8.2816,8.3481,0.0,0.0,0.0,0.0,0.0,0.0,0.0,0.0,0.0,0.0,4.0084,4.0014,0.0,0.0,0.0,0.0,0.0,0.0,0.0,0.0,0.0,4.3506,4.3506,4.3506,4.3506,4.3506,4.3653,4.391,4.4057,4.4277,4.4575,4.4718,4.5041,4.5546,4.5546,4.5859,4.6364,4.6364,4.6394,4.6477,4.6169,4.6013,4.6013,4.5708,0.0,0.0,4.5592,4.6165,4.7274,4.9822,5.1128,5.2082,5.4318,5.5709,5.6443,5.6558,5.715,5.7771,5.7877,5.7966,5.8143,5.8829,5.908,5.934,5.9822,5.9719,0.0,0.0,5.9515,6.0281,6.2172,6.2403,6.3172,6.5897,6.632,6.6859,6.8395,6.9356,7.0437,0.0,7.2094,7.2748,0.0,0.0,0.0,0.0,0.0,7.6903,7.7057,7.7211,7.7942,7.9319,8.0358,8.0939,8.1093,8.1093,8.1093,8.1093,8.1093,8.1093,8.1093,8.1093,8.1093,8.1093,8.1093,0.0,8.1093,8.1093,8.1477,8.2057,8.1467,8.1796,8.2536,8.2536,8.265,8.2865,0.0,0.0,0.0,0.0,0.0,0.0,0.0,3.9908,4.0345,4.1544,4.1405,4.1295,4.169,4.1727,4.2062,0.0,0.0,0.0,0.0,0.0,0.0,4.3506,4.3506,4.3506,4.3506,4.3506,0.0,0.0,0.0,4.3722,4.4121,4.369,4.3906,4.4612,4.4612,4.4974,4.5592,4.5592,4.5592,4.5592,4.5592,4.5592,4.5592,0.0,0.0,0.0,4.5592,4.6165,4.7235,4.932,5.0589,5.1856,5.5285,5.6824,5.7266,5.6978,5.7601,5.8266,5.7571,5.7991,5.8719,5.908,6.0144,6.0706,5.9278,0.0,0.0,0.0,5.8404,5.955,6.171,6.2098,6.2787,6.49,6.5977,6.6824,6.7628,6.9206,7.0783,7.2056,7.2594,7.3357,0.0,0.0,0.0,0.0,0.0,7.7288,7.7288,7.813,7.9169,8.0435,8.09,8.1093,8.1093,8.1093,8.1093,8.1093,8.1093,8.1093,8.1093,8.1093,8.1093,8.1131,8.1554,0.0,8.1747,8.2212,8.242,8.2436,8.2105,8.229,8.2753,8.2753,8.3024,8.3491,0.0,0.0,0.0,0.0,0.0,0.0,4.001,4.0161,4.0744,4.2359,4.2543,4.2543,4.2543,4.2543,4.2804,0.0,0.0,0.0,0.0,0.0,0.0,0.0,0.0,0.0,0.0,0.0,0.0,0.0,0.0,0.0,0.0,0.0,0.0,0.0,4.4612,4.4974,4.5592,4.5592,4.5592,0.0,0.0,4.5592,0.0,0.0,0.0,0.0,0.0,4.5934,4.6822,4.8762,4.9861,5.113,5.5172,5.6801,5.7132,5.6723,5.7558,5.8398,5.7521,5.8242,5.9264,5.9636,6.1288,6.1904,5.8583,5.9197,0.0,0.0,5.7618,5.9124,6.1864,6.2056,6.2441,6.4282,6.5551,6.6478,6.7016,6.9132,7.1091,0.0,7.3241,0.0,7.4739,7.5572,0.0,0.0,0.0,0.0,7.7826,7.9246,8.0396,8.1093,8.1093,8.1093,8.1093,8.1093,8.1093,8.1093,8.1093,8.1093,8.1093,8.1285,8.1362,8.14,8.2212,0.0,0.0,8.3149,8.3191,8.283,8.2548,8.265,8.2969,8.2969,8.3395,8.3998,0.0,0.0,0.0,0.0,0.0,0.0,4.0769,4.0993,4.158,4.3176,4.3396,4.3396,4.3396,4.3396,4.3437,0.0,0.0,0.0,0.0,0.0,0.0,0.0,0.0,0.0,0.0,0.0,0.0,0.0,0.0,0.0,0.0,0.0,0.0,0.0,0.0,0.0,4.5592,4.5592,0.0,0.0,0.0,0.0,0.0,0.0,0.0,0.0,0.0,4.5194,4.5695,4.8476,0.0,5.0127,5.3628,5.5264,5.5848,5.5757,0.0,0.0,5.8832,5.908,5.9563,6.1006,6.2101,6.2147,5.9702,0.0,0.0,5.8437,5.8219,5.9316,6.2586,6.1935,6.1746,6.4202,6.4086,6.4471,6.6785,6.8667,7.0703,7.3088,0.0,0.0,7.5011,7.5789,0.0,0.0,0.0,0.0,7.9588,8.0477,8.1016,8.1093,8.1093,8.1093,8.1093,8.1093,8.1093,8.1093,8.1093,8.1093,8.1131,8.1862,8.2174,8.2247,8.3097,0.0,0.0,8.2898,8.3134,8.3645,8.2446,8.2466,8.3184,8.3184,8.3228,8.3364,0.0,0.0,0.0,0.0,0.0,0.0,4.0916,4.1507,4.2392,4.4007,4.3795,4.3685,4.4158,4.3795,4.3506,4.3506,0.0,0.0,0.0,0.0,0.0,0.0,0.0,0.0,0.0,0.0,0.0,0.0,0.0,0.0,0.0,0.0,0.0,0.0,0.0,0.0,0.0,0.0,0.0,0.0,0.0,0.0,0.0,0.0,0.0,0.0,0.0,0.0,0.0,0.0,0.0,4.9743,5.163,5.2595,5.3317,0.0,5.6264,5.7732,5.777,5.9165,6.0998,6.249,6.3442,6.3394,6.1021,0.0,6.1042,5.8788,5.8701,5.9586,6.1435,6.1246,6.1215,6.2411,6.3447,6.4859,6.7104,6.9149,7.1234,7.3476,7.4026,0.0,0.0,0.0,0.0,0.0,0.0,0.0,7.9429,8.0105,8.0324,7.9977,7.9967,7.9967,7.9967,8.031,8.0763,8.1269,8.166,8.1874,8.2012,8.2323,8.2268,8.1968,8.3228,0.0,0.0,8.4019,8.4111,8.4007,8.3063,8.2631,8.2585,8.2585,8.2585,8.2639,0.0,0.0,0.0,0.0,0.0,4.0161,4.0989,4.1764,4.28,4.4154,4.3869,4.3726,4.4264,4.3832,4.3616,4.3832,4.3653,0.0,0.0,0.0,0.0,0.0,0.0,0.0,0.0,0.0,4.3506,4.3506,4.3506,0.0,0.0,0.0,0.0,0.0,0.0,0.0,0.0,0.0,0.0,0.0,0.0,0.0,0.0,0.0,0.0,0.0,0.0,0.0,0.0,0.0,0.0,4.919,5.0189,5.0653,5.1211,5.3414,5.5348,5.6958,5.7845,5.9919,6.229,6.4193,6.4652,6.4074,0.0,0.0,6.1097,5.8777,5.8932,5.9781,6.063,6.0784,6.0972,6.1475,6.304,6.5077,6.7508,6.9662,7.1724,7.3551,0.0,7.4176,0.0,0.0,0.0,0.0,0.0,0.0,0.0,7.9556,7.9712,7.921,7.9419,7.957,7.957,8.0201,8.0853,8.1444,8.1891,8.2177,8.2292,8.2564,8.2548,8.2356,0.0,0.0,0.0,8.4556,8.4414,8.413,8.3239,8.2616,8.2194,8.2194,8.2194,8.2194,0.0,0.0,0.0,0.0,0.0,0.0,4.0989,4.1764,4.258,4.3396,4.351,4.3506,4.351,4.351,4.3832,4.4626,4.3979,0.0,0.0,0.0,0.0,0.0,0.0,0.0,0.0,0.0,4.3506,4.3506,4.3506,4.3506,4.3506,4.3506,0.0,0.0,0.0,0.0,0.0,0.0,0.0,0.0,0.0,0.0,4.4576,0.0,0.0,0.0,0.0,0.0,0.0,0.0,0.0,0.0,0.0,4.9842,4.9979,5.2411,5.4026,5.5914,6.0041,6.1767,6.3093,6.6108,6.5563,6.3779,0.0,0.0,5.9705,5.8546,5.8932,5.9781,6.063,6.0784,6.1092,6.1938,6.2778,6.4503,6.7926,7.0087,7.185,7.3338,0.0,7.5381,7.5083,0.0,0.0,0.0,0.0,0.0,0.0,7.9068,7.9424,7.9224,7.9967,8.0408,8.0408,8.1194,8.1603,8.1603,8.1609,8.1609,8.1641,8.2494,8.3269,0.0,0.0,0.0,0.0,8.4029,8.3617,8.4061,8.2717,8.2203,8.2194,8.2194,8.2194,8.2194,0.0,0.0,0.0,0.0,0.0,0.0,4.1805,4.2616,4.3428,4.419,4.3832,4.3722,4.4264,4.3832,4.3832,4.4626,4.3979,0.0,0.0,0.0,0.0,0.0,0.0,0.0,0.0,4.3506,4.3763,4.4301,4.3763,4.3795,4.4301,4.3759,4.3546,4.3644,0.0,0.0,0.0,0.0,0.0,0.0,0.0,4.4183,4.4143,0.0,0.0,0.0,0.0,0.0,0.0,0.0,0.0,0.0,0.0,0.0,0.0,5.1407,5.2983,5.4717,5.7139,5.902,6.0735,6.2623,6.2224,6.1145,6.0255,5.9875,5.9297,5.8071,5.8472,5.9281,6.0171,6.0324,6.078,6.2219,6.2928,6.482,6.9201,7.0205,7.1573,7.4499,7.4376,7.4689,0.0,0.0,0.0,0.0,0.0,0.0,0.0,7.8411,7.8869,7.8777,7.9555,7.9999,7.9999,8.0637,8.1299,8.1886,8.2279,8.2554,8.2703,8.2971,0.0,0.0,0.0,0.0,0.0,8.362,8.3604,8.4061,8.2709,8.2194,8.2194,8.2194,8.2194,8.2194,0.0,0.0,0.0,0.0,0.0,0.0,4.2213,4.2988,4.369,4.4195,4.3795,4.369,4.4195,4.3795,4.3942,4.5071,4.4415,0.0,0.0,0.0,0.0,0.0,0.0,0.0,4.3506,4.3506,4.3906,4.47,4.4195,4.419,4.47,4.4195,4.3795,4.3506,4.3506,4.3506,0.0,0.0,0.0,0.0,4.3798,4.3798,4.3807,0.0,0.0,0.0,0.0,0.0,0.0,0.0,0.0,0.0,0.0,0.0,0.0,0.0,5.2064,5.37,5.6284,5.8258,6.0078,6.2033,6.1169,5.9929,6.0388,5.961,5.8649,5.8148,5.8558,5.9185,5.9725,5.9843,6.0654,6.3173,6.3284,6.4862,7.0095,7.0233,7.1002,7.4429,0.0,0.0,0.0,0.0,0.0,0.0,0.0,0.0,0.0,7.8875,7.9507,7.9507,7.9992,8.0249,8.0249,8.0915,8.1541,8.2089,8.2442,8.2682,8.2823,8.2823,0.0,0.0,0.0,0.0,0.0,8.3204,8.3218,8.3693,8.2624,8.2194,8.2194,8.2194,8.2194,8.2194,0.0,0.0,0.0,0.0,0.0,0.0,0.0,4.2914,4.3396,4.3396,4.3469,4.3506,4.3506,4.3506,4.4167,4.5773,4.5218,0.0,0.0,0.0,0.0,0.0,0.0,0.0,4.3506,4.3506,4.3906,4.47,4.47,4.4737,4.4773,4.4737,4.4305,4.3579,4.3547,4.3506,0.0,0.0,0.0,0.0,4.3506,4.3506,0.0,0.0,0.0,0.0,0.0,0.0,0.0,0.0,0.0,0.0,0.0,0.0,0.0,0.0,0.0,0.0,0.0,5.8904,6.0464,6.3322,6.1666,5.9742,6.1441,5.9642,0.0,5.8604,5.9039,5.9275,5.9385,5.9476,6.0694,6.4351,6.3692,6.467,7.0314,7.0264,7.0675,0.0,7.6039,0.0,0.0,0.0,0.0,0.0,0.0,0.0,0.0,8.0167,8.1004,8.1004,8.104,8.1077,8.1077,8.1819,8.2194,8.2194,8.2194,8.2194,8.2194,8.2194,0.0,0.0,0.0,0.0,0.0,8.2778,8.2639,8.3117,8.2458,8.2194,8.2194,8.2194,8.2194,8.2194,0.0,0.0,0.0,0.0,0.0,0.0,0.0,0.0,0.0,0.0,4.3139,4.3506,4.3506,4.3506,4.4167,0.0,0.0,0.0,0.0,0.0,0.0,0.0,0.0,0.0,4.3506,4.3506,4.3906,4.47,4.47,4.4998,4.559,4.4993,4.459,4.4374,4.3763,4.3506,0.0,0.0,0.0,0.0,4.3506,4.3506,0.0,0.0,0.0,0.0,4.3506,4.4153,0.0,0.0,0.0,0.0,0.0,0.0,0.0,0.0,5.1803,5.3262,5.4957,0.0,5.7075,5.842,5.8171,5.7863,0.0,5.8365,5.7739,5.8188,5.8054,5.817,5.9211,6.0116,6.1055,6.2109,6.3204,6.4884,6.7766,7.153,7.4096,7.4356,7.6448,0.0,0.0,0.0,0.0,0.0,0.0,0.0,0.0,8.0461,8.1004,8.1004,8.1599,8.1929,8.1929,8.2121,8.2194,8.2194,8.2194,8.2194,8.2194,8.2194,0.0,0.0,0.0,0.0,8.3398,8.3074,8.3068,8.3117,8.2458,8.2194,8.2194,8.2194,8.2194,8.2194,0.0,0.0,0.0,0.0,0.0,0.0,0.0,0.0,0.0,0.0,4.3212,4.3506,4.3506,4.3506,0.0,0.0,0.0,0.0,0.0,0.0,0.0,0.0,0.0,4.3506,4.3506,4.3506,4.4052,4.5255,4.5255,4.5475,4.5883,4.5438,4.4851,4.4121,4.369,4.3506,0.0,0.0,0.0,4.3506,4.3506,0.0,0.0,0.0,0.0,0.0,4.3906,4.4559,0.0,4.608,4.708,4.8065,0.0,0.0,0.0,0.0,5.2246,5.3402,5.4262,5.5371,5.6516,5.7398,5.7591,5.7937,5.9165,5.8622,5.7982,5.8589,5.8306,5.8219,5.8934,5.9896,6.128,6.3502,6.4544,6.6234,6.9543,7.3031,7.5369,7.5703,7.7117,0.0,0.0,0.0,0.0,0.0,0.0,0.0,0.0,8.1122,8.1562,8.1562,8.1974,8.2194,8.2194,8.2194,8.2194,8.2194,8.2194,8.2194,8.2194,8.2194,8.2194,0.0,0.0,0.0,8.2725,8.2725,8.2725,8.2724,8.2335,8.2194,8.2194,8.2194,8.2194,8.2194,0.0,0.0,0.0,0.0,0.0,0.0,0.0,0.0,0.0,0.0,0.0,0.0,0.0,0.0,0.0,0.0,0.0,0.0,0.0,0.0,0.0,0.0,4.3506,4.3506,4.3506,4.3506,4.4236,4.5736,4.5847,4.5957,4.6062,4.5961,4.5044,4.3506,4.3506,4.3506,4.3506,0.0,0.0,4.3506,4.3506,0.0,0.0,0.0,0.0,0.0,0.0,0.0,0.0,4.7103,4.7681,4.8027,4.9415,0.0,0.0,0.0,0.0,0.0,5.4454,5.5908,5.7426,5.8324,5.8466,5.8844,6.0559,5.9517,5.8391,5.9133,5.911,5.902,5.9214,6.0147,6.2172,6.6033,6.6543,6.7979,7.2379,7.4187,7.5532,7.6779,7.7726,0.0,0.0,0.0,0.0,0.0,0.0,0.0,0.0,8.1819,8.2194,8.2194,8.2194,8.2194,8.2194,8.2194,8.2194,8.2194,8.2194,8.2194,8.2194,8.2194,8.2194,0.0,0.0,0.0,8.2203,8.2295,8.2271,8.2194,8.2194,8.2194,8.2194,8.2194,8.2194,8.2194,0.0,0.0,0.0,0.0,0.0,0.0,0.0,0.0,0.0,0.0,0.0,0.0,0.0,0.0,0.0,0.0,0.0,0.0,0.0,0.0,0.0,4.3543,4.3506,4.3506,4.3506,4.3506,4.3942,4.4883,4.5553,4.6246,4.6897,4.6209,4.5044,4.3506,4.3506,4.3506,4.3506,4.3506,0.0,4.3506,0.0,0.0,0.0,0.0,0.0,0.0,0.0,0.0,0.0,4.6866,4.7633,4.8263,4.8484,0.0,0.0,0.0,0.0,0.0,5.5297,5.6792,5.8357,5.9467,5.9223,5.9243,6.1183,6.006,5.8641,5.8763,5.9535,6.0455,6.1533,6.3801,6.5638,6.6044,0.0,6.9188,0.0,0.0,7.5833,0.0,0.0,0.0,0.0,0.0,0.0,0.0,0.0,0.0,0.0,8.2121,8.2194,8.2194,8.2194,8.2194,8.2194,8.2194,8.2194,8.2194,8.2194,8.2194,8.2194,8.2194,8.2194,0.0,0.0,8.2709,8.2251,8.2816,8.2694,8.2194,8.2194,8.2194,8.2194,8.2194,8.2194,8.2194,0.0,0.0,0.0,0.0,0.0,0.0,0.0,0.0,0.0,0.0,0.0,0.0,0.0,0.0,0.0,0.0,0.0,0.0,0.0,0.0,4.4337,4.3547,4.3506,4.3506,4.3506,4.3942,4.4521,4.5365,4.6131,4.675,4.7076,4.5838,4.4635,4.3506,4.3506,4.3506,4.3506,4.3506,4.3506,4.3506,0.0,0.0,0.0,0.0,0.0,0.0,0.0,0.0,0.0,0.0,4.8003,4.8375,4.8861,0.0,0.0,0.0,0.0,0.0,5.4836,5.6636,5.8803,6.085,6.1066,6.0977,6.166,6.1547,6.08,5.9048,5.9796,6.1091,6.2123,6.4056,6.6538,6.9645,0.0,0.0,0.0,0.0,0.0,0.0,0.0,0.0,0.0,0.0,0.0,0.0,0.0,0.0,0.0,0.0,8.2194,8.2194,8.2194,8.2194,8.2194,8.2194,8.2194,8.2194,8.2194,8.2194,8.2194,8.2194,8.2194,8.2211,0.0,8.2481,8.2227,8.2544,8.2473,8.2194,8.2194,8.2194,8.2194,8.2194,8.2194,8.2194,0.0,0.0,0.0,0.0,0.0,0.0,0.0,0.0,0.0,0.0,0.0,0.0,0.0,0.0,0.0,0.0,0.0,0.0,0.0,4.4085,4.4158,4.3547,4.3506,4.3506,4.3506,4.4301,4.5108,4.5883,4.6902,4.7374,4.7337,4.5723,4.4562,4.3763,4.3579,4.3506,4.3506,4.3506,4.3506,4.3506,0.0,0.0,0.0,0.0,0.0,0.0,0.0,0.0,0.0,0.0,0.0,0.0,0.0,0.0,0.0,5.1074,5.2557,5.3908,5.4387,5.6574,5.9284,6.1598,6.2283,6.2404,6.2744,6.3254,6.2923,6.047,6.1387,6.2892,6.3702,6.5169,0.0,7.2648,7.4074,0.0,0.0,0.0,0.0,0.0,0.0,0.0,0.0,0.0,0.0,0.0,0.0,0.0,0.0,0.0,8.2194,8.2194,8.2194,8.2194,8.2194,8.2194,8.2194,8.2194,8.2194,8.2194,8.2194,8.2194,8.2194,8.2194,8.2194,8.2194,8.2194,8.2194,8.2194,8.2194,8.2194,8.2194,8.2194,8.2194,8.2194,8.2194,0.0,0.0,0.0,0.0,0.0,0.0,0.0,0.0,0.0,0.0,0.0,0.0,0.0,0.0,0.0,0.0,0.0,0.0,0.0,4.3543,4.3543,4.3506,4.3506,4.3506,4.3506,4.4301,4.5108,4.5883,4.7457,4.8223,4.8186,4.6581,4.5365,4.459,4.3832,4.3506,4.3506,4.3506,4.3506,4.3506,4.3506,0.0,0.0,0.0,0.0,0.0,0.0,0.0,0.0,0.0,0.0,0.0,0.0,0.0,4.9605,4.9757,5.2537,5.5466,5.4691,5.7195,6.0163,6.1066,6.1561,6.2537,6.5175,6.4877,6.3982,6.3762,0.0,0.0,0.0,6.9724,7.1209,7.2386,7.3266,0.0,0.0,0.0,0.0,0.0,0.0,0.0,0.0,0.0,0.0,0.0,0.0,0.0,0.0,0.0,0.0,8.2194,8.2194,8.2194,8.2194,8.2194,8.2194,8.2194,8.2194,8.2194,8.2194,8.2194,8.2194,8.2194,8.2194,8.2194,8.2194,8.2194,8.2194,8.2194,8.2194,8.2194,8.2194,8.2194,8.2194,8.2194,0.0,0.0,0.0,0.0,0.0,0.0,0.0,0.0,0.0,0.0,0.0,0.0,0.0,0.0,0.0,0.0,0.0,0.0,0.0,4.3506,4.3506,4.3506,4.3506,4.3506,4.3506,4.4787,4.5842,4.6645,4.7746,4.8039,4.7521,4.6434,4.5475,4.4659,4.3869,4.3506,4.3506,4.3506,4.3506,4.3506,4.3506,4.3506,0.0,0.0,0.0,0.0,0.0,0.0,0.0,0.0,4.7893,4.8301,4.8301,4.8526,4.8898,4.9459,5.125,5.314,5.3581,5.6572,5.9977,6.1609,6.2449,6.3259,6.4866,6.6199,6.6659,6.5154,6.6372,0.0,0.0,0.0,7.323,7.4515,0.0,0.0,0.0,0.0,0.0,0.0,0.0,0.0,0.0,0.0,0.0,0.0,0.0,0.0,0.0,0.0,0.0,8.2194,8.2194,8.2194,8.2194,8.2194,8.2194,8.2194,8.2194,8.2194,8.2194,8.2194,8.2194,8.2194,8.2194,8.2194,8.2194,8.2194,8.2194,8.2194,8.2194,8.2194,8.2194,8.2194,8.2194,8.2194,0.0,0.0,0.0,0.0,0.0,0.0,0.0,0.0,0.0,0.0,0.0,0.0,0.0,0.0,0.0,0.0,0.0,0.0,4.3506,4.3506,4.3506,4.3506,4.3506,4.3616,4.3869,4.5223,4.6177,4.6718,4.7783,4.8003,4.7448,4.665,4.5842,4.5035,4.4232,4.3869,4.3869,4.3616,4.3506,4.3506,4.3506,4.3506,0.0,0.0,0.0,0.0,0.0,0.0,0.0,0.0,4.7851,4.8301,4.8301,4.8301,4.8485,4.9348,5.1,5.2687,5.3232,5.6777,6.0589,6.1932,6.3381,6.4768,6.5977,6.7048,6.7497,6.6609,6.7907,6.9456,7.033,0.0,0.0,0.0,0.0,0.0,0.0,0.0,0.0,0.0,0.0,0.0,0.0,0.0,0.0,0.0,0.0,0.0,0.0,0.0,0.0,0.0,8.2194,8.2194,8.2194,8.2194,8.2194,8.2194,8.2194,8.2194,8.2194,8.2194,8.2194,8.2194,8.2194,8.2194,8.2194,8.2194,8.2194,8.2194,8.2194,8.2194,8.2194,8.2194,8.2194,8.2194,0.0,0.0,0.0,0.0,0.0,0.0,0.0,0.0,0.0,0.0,0.0,0.0,0.0,0.0,0.0,0.0,0.0,0.0,4.3506,4.3506,4.3506,4.3506,4.3506,4.3869,4.4663,4.548,4.5925,4.592,4.7494,4.8296,4.8264,4.7484,4.664,4.5851,4.5071,4.47,4.4626,4.3832,4.3506,4.3506,4.3506,4.3506,4.3506,0.0,0.0,0.0,0.0,0.0,0.0,0.0,4.8296,4.8301,4.8301,4.8301,4.8489,4.9385,5.2213,5.4918,5.4066,5.8042,6.2337,6.1953,6.4184,6.7037,6.9119,6.7374,6.6022,6.8414,7.0837,7.2268,7.1454,0.0,0.0,0.0,0.0,0.0,0.0,0.0,0.0,0.0,0.0,0.0,0.0,0.0,0.0,0.0,0.0,0.0,0.0,0.0,0.0,0.0,8.2194,8.2194,8.2194,8.2194,8.2194,8.2194,8.2194,8.2194,8.2194,8.2194,8.2194,8.2194,8.2194,8.2194,8.2194,8.2194,8.2194,8.2194,8.2194,8.2194,8.2194,8.2194,8.2194,8.2194,0.0,0.0,0.0,0.0,0.0,0.0,0.0,0.0,0.0,0.0,0.0,0.0,0.0,0.0,0.0,0.0,0.0,0.0,4.3506,4.3506,4.3506,4.3506,4.3506,4.3616,4.3869,4.519,4.6434,4.7604,4.7489,4.7448,4.7448,4.6645,4.5842,4.503,4.481,4.4374,4.3832,4.3616,4.3506,4.3506,4.3506,4.3506,4.3506,0.0,0.0,0.0,0.0,0.0,0.0,0.0,0.0,0.0,4.8301,4.9109,5.021,5.1032,5.3261,5.5686,5.6865,6.0313,6.3778,6.4491,6.602,6.763,6.8827,6.8432,6.8047,6.8745,7.2158,7.4441,7.2488,0.0,0.0,0.0,0.0,0.0,0.0,0.0,0.0,0.0,0.0,0.0,0.0,0.0,0.0,0.0,0.0,0.0,0.0,0.0,0.0,0.0,8.2194,8.2194,8.2194,8.2194,8.2194,8.2194,8.2194,8.2194,8.2194,8.2194,8.2194,8.2194,8.2194,8.2194,8.2194,8.2194,8.2194,8.2194,8.2194,8.2194,8.2194,8.2194,8.2194,8.2194,0.0,0.0,0.0,0.0,0.0,0.0,0.0,0.0,0.0,0.0,4.369,4.3506,0.0,0.0,0.0,0.0,0.0,0.0,4.3506,4.3506,4.3506,4.3506,4.3795,4.4268,4.4929,4.5879,4.6865,4.7819,4.7337,4.6934,4.6608,4.6461,4.5952,4.5181,4.5503,4.5218,4.4424,4.4126,4.3795,4.3547,4.3869,4.3795,4.3579,0.0,0.0,0.0,0.0,0.0,0.0,0.0,0.0,0.0,4.9182,5.043,5.1861,5.2344,5.484,5.7856,5.9398,6.259,6.5869,6.7214,6.8595,6.9743,7.0213,7.0066,0.0,0.0,7.3369,7.5285,7.4147,0.0,0.0,0.0,0.0,0.0,0.0,0.0,0.0,0.0,0.0,0.0,0.0,0.0,0.0,0.0,0.0,0.0,0.0,0.0,0.0,0.0,8.2194,8.2194,8.2194,8.2194,8.2194,8.2194,8.2194,8.2194,8.2194,8.2194,8.2194,8.2194,8.2194,8.2194,8.2194,8.2194,8.2194,8.2194,8.2194,8.2194,8.2194,8.2194,8.2194,8.2194,0.0,0.0,0.0,0.0,0.0,0.0,0.0,0.0,0.0,4.4484,4.3938,4.3506,0.0,0.0,0.0,4.3506,4.3506,4.3506,4.3506,4.3506,4.3506,4.3506,4.4264,4.5466,4.7076,4.7113,4.7113,4.7113,4.7039,4.6567,4.581,4.653,4.6493,4.581,4.6571,4.6498,4.5736,4.4924,4.4158,4.3543,4.4305,4.4158,4.3653,4.5117,0.0,0.0,0.0,0.0,0.0,0.0,0.0,0.0,5.055,5.1898,5.3214,5.3398,5.6633,6.045,6.163,6.4684,6.7994,6.9786,7.1431,7.2642,7.2782,7.2305,7.2151,7.3274,0.0,7.5315,0.0,0.0,0.0,0.0,0.0,0.0,0.0,0.0,0.0,0.0,0.0,0.0,0.0,0.0,0.0,0.0,0.0,0.0,0.0,0.0,0.0,0.0,8.2194,8.2194,8.2194,8.2194,8.2194,0.0,8.2194,8.2194,8.2194,8.2194,8.2194,8.2194,8.2194,8.2194,8.2194,8.2194,8.2194,8.2194,8.2194,8.2194,8.2194,8.2194,8.2194,8.2194,0.0,0.0,0.0,0.0,0.0,0.0,0.0,0.0,4.3543,4.3722,4.3616,4.3506,4.3506,4.3506,0.0,4.3506,4.3506,4.3506,4.3506,4.3506,4.3506,4.3506,4.4264,4.5466,4.7076,4.7113,4.7113,4.7113,4.6461,4.5732,4.4957,4.514,4.5136,4.4957,4.514,4.5104,4.492,4.4089,4.3653,4.3506,4.369,4.3653,4.3547,4.3873,4.4676,0.0,0.0,0.0,0.0,0.0,0.0,0.0,5.055,5.1898,5.3434,5.4698,5.6717,5.9391,6.3423,6.5595,6.743,7.0323,7.2232,7.378,7.5028,7.5682,7.5197,7.2408,7.4463,0.0,0.0,0.0,0.0,0.0,0.0,0.0,0.0,0.0,0.0,0.0,0.0,0.0,0.0,0.0,0.0,0.0,0.0,0.0,0.0,0.0,0.0,8.2194,8.2194,8.2194,8.2194,8.2194,8.2194,0.0,8.2194,8.2194,8.2194,8.2194,8.2194,8.2194,8.2194,8.2194,8.2194,8.2194,8.2194,8.2194,8.2194,8.2194,8.2194,8.2194,8.2194,8.2194,0.0,0.0,0.0,0.0,0.0,0.0,0.0,0.0,4.3942,4.3543,4.3506,4.3506,4.3506,4.3506,0.0,0.0,4.3506,4.3506,4.3506,4.3506,4.3836,4.4603,4.5039,4.6026,4.7631,4.7296,4.6897,4.6535,4.5732,4.5104,4.47,4.47,4.47,4.4737,4.5108,4.5071,4.4663,4.4268,4.3869,4.3547,4.3906,4.3832,4.3616,4.4782,4.5516,4.5993,4.6764,0.0,0.0,0.0,0.0,0.0,0.0,0.0,5.4436,5.4882,5.7268,6.0529,6.4267,6.6469,6.8525,7.2114,7.3957,7.5175,7.6416,7.7333,7.7215,7.4683,0.0,0.0,0.0,0.0,0.0,0.0,0.0,0.0,0.0,0.0,0.0,0.0,0.0,0.0,0.0,0.0,0.0,0.0,0.0,0.0,0.0,8.2194,8.2194,8.2194,8.2194,8.2194,8.2194,8.2194,8.2194,8.2194,8.2194,8.2194,8.2194,8.2194,8.2194,8.2194,8.2194,8.2194,8.2194,8.2194,8.2194,8.2194,8.2194,8.2194,8.2194,8.2194,8.2194,8.2194,0.0,0.0,0.0,0.0,0.0,0.0,0.0,0.0,0.0,4.3579,4.3506,4.3506,4.3506,4.3506,4.3506,0.0,0.0,0.0,4.3506,4.3506,4.4204,4.5814,4.5883,4.6581,4.8076,4.7448,4.6645,4.57,4.5035,4.4626,0.0,4.4484,4.4557,4.4737,4.5259,4.5186,4.47,4.4553,4.4121,4.3547,4.4232,4.4195,4.3942,4.5948,4.642,4.6287,4.7604,4.8186,4.8558,5.0246,0.0,0.0,0.0,0.0,5.5065,5.4546,5.7341,6.1123,6.3753,6.6726,7.0029,7.392,7.5498,7.6306,7.7105,7.8067,7.8516,7.7509,0.0,0.0,0.0,0.0,0.0,0.0,0.0,0.0,0.0,0.0,0.0,0.0,0.0,0.0,0.0,0.0,0.0,0.0,0.0,0.0,8.2194,8.2194,8.2194,8.2194,8.2194,8.2194,8.2194,8.2194,8.2194,8.2194,8.2194,8.2194,8.2194,8.2194,8.2194,8.2194,8.2194,8.2194,8.2194,8.2194,8.2194,8.2194,8.2194,8.2194,8.2194,8.2194,8.2194,8.2194,0.0,0.0,0.0,0.0,0.0,0.0,0.0,0.0,0.0,0.0,4.3506,4.3506,4.3506,4.3506,4.3506,4.3506,4.3506,4.3506,4.3506,0.0,0.0,4.5814,4.5883,4.6319,4.7223,4.7149,4.6347,4.4847,4.4737,4.4337,0.0,0.0,0.0,4.4663,4.4089,4.4162,4.4663,4.3979,4.3616,4.351,4.3616,4.4016,4.4553,4.4883,4.5833,4.6971,4.7191,4.7709,4.8558,5.0246,5.0797,0.0,0.0,0.0,5.3654,5.4216,5.5359,5.7085,6.0199,6.5411,7.0734,7.4067,7.5498,7.6306,7.7105,7.8508,7.9184,0.0,0.0,0.0,0.0,0.0,0.0,0.0,0.0,0.0,0.0,0.0,0.0,0.0,0.0,0.0,0.0,0.0,0.0,0.0,0.0,0.0,8.2194,8.2194,8.2194,8.2194,8.2194,8.2194,8.2194,8.2194,8.2194,8.2194,8.2194,8.2194,8.2194,8.2194,8.2194,8.2194,8.2194,8.2194,8.2194,8.2194,8.2194,8.2194,8.2194,8.2194,8.2194,8.2194,8.2194,8.2194,0.0,0.0,0.0,0.0,0.0,0.0,0.0,0.0,0.0,0.0,0.0,4.3506,4.3506,4.3506,4.3506,4.3506,4.3506,4.3506,4.3506,4.3506,4.402,4.5181,4.5218,4.5581,4.6429,4.5984,4.5393,4.47,4.4268,0.0,0.0,4.3506,4.369,0.0,0.0,4.369,4.4011,4.3653,4.3506,4.3543,4.3979,4.4924,4.6053,4.6053,4.7044,4.8375,4.7929,4.8003,4.8558,5.0246,5.0797,5.1091,5.27,0.0,0.0,0.0,5.4289,5.5836,5.9948,6.5815,7.1204,7.3076,7.5168,7.6995,7.7847,7.8964,7.9441,0.0,0.0,0.0,0.0,0.0,0.0,0.0,0.0,0.0,0.0,0.0,0.0,0.0,0.0,0.0,0.0,0.0,0.0,0.0,0.0,8.2194,8.2194,8.2194,8.2194,8.2194,8.2194,8.2194,8.2194,8.2194,8.2194,8.2194,8.2194,8.2194,8.2194,8.2194,8.2194,8.2194,8.2194,8.2194,8.2194,8.2194,8.2194,8.2194,8.2194,8.2194,8.2194,8.2194,8.2194,8.2194,0.0,0.0,0.0,0.0,0.0,0.0,0.0,0.0,0.0,0.0,0.0,4.3506,4.3506,0.0,0.0,0.0,4.3212,4.3212,4.3212,4.3396,4.3869,4.4659,4.47,4.4998,4.559,4.4998,4.459,4.4411,0.0,0.0,4.3506,4.3506,4.3506,0.0,4.3506,0.0,0.0,0.0,0.0,4.3616,4.4814,4.6163,4.748,4.8108,4.9219,5.0325,4.9292,4.9072,4.9402,5.0435,5.0944,5.1348,5.2774,5.3214,0.0,0.0,0.0,5.569,6.0095,6.5111,6.9619,7.1681,7.4133,7.6518,7.8222,0.0,7.9633,0.0,0.0,0.0,0.0,0.0,0.0,0.0,0.0,0.0,0.0,0.0,0.0,0.0,0.0,0.0,0.0,0.0,0.0,0.0,0.0,8.2194,8.2194,8.2194,8.2194,8.2194,8.2194,8.2194,8.2194,8.2194,8.2194,8.2194,8.2194,8.2194,8.2194,8.2194,8.2194,8.2194,8.2194,8.2194,8.2194,8.2194,8.2194,8.2194,8.2194,8.2194,8.2194,8.2194,8.2194,8.2194,0.0,0.0,0.0,0.0,0.0,0.0,0.0,0.0,0.0,0.0,0.0,4.3506,4.3506,4.3506,4.3171,4.2433,4.2359,4.2359,4.2359,4.3061,4.3869,4.4659,4.47,0.0,4.4773,4.4737,4.4342,4.3543,0.0,0.0,4.3506,4.3506,4.3506,4.3506,4.3506,4.3506,4.3506,0.0,0.0,4.369,4.6058,4.7484,4.8485,5.0844,5.227,5.281,5.1237,0.0,0.0,5.1022,5.1316,5.2092,5.292,5.3214,5.3214,0.0,0.0,0.0,5.9575,6.1802,6.4554,6.9986,7.2048,7.378,7.7708,0.0,7.9779,0.0,0.0,0.0,0.0,0.0,0.0,0.0,0.0,0.0,0.0,0.0,0.0,0.0,0.0,0.0,0.0,0.0,0.0,0.0,0.0,8.2194,8.2194,8.2194,8.2194,8.2194,8.2194,8.2194,8.2194,8.2194,8.2194,8.2194,8.2194,8.2194,8.2194,8.2194,8.2194,8.2194,8.2194,8.2194,8.2194,8.2194,8.2194,8.2194,8.2194,8.2194,8.2194,8.2194,8.2194,8.2194,0.0,0.0,0.0,0.0,0.0,0.0,0.0,0.0,0.0,0.0,0.0,0.0,0.0,4.3506,4.3396,4.3098,4.3061,0.0,0.0,4.3322,4.3616,4.3906,4.3942,4.3942,4.3942,4.3942,4.3795,0.0,0.0,4.3506,4.3506,4.3506,4.3506,4.3506,4.3506,4.3795,4.4227,4.3726,0.0,0.0,0.0,5.1358,5.3157,5.4546,5.5899,5.6847,0.0,0.0,0.0,5.56,5.5018,5.3665,5.4478,5.4027,5.3214,5.3214,5.4326,5.5952,5.7624,6.037,6.3417,6.6035,6.8825,7.1615,7.4111,7.6489,7.8361,0.0,0.0,0.0,0.0,0.0,0.0,0.0,0.0,0.0,0.0,0.0,0.0,0.0,0.0,0.0,0.0,0.0,0.0,0.0,0.0,0.0,8.2194,8.2194,8.2194,8.2194,8.2194,8.2194,8.2194,8.2194,8.2194,8.2194,8.2194,8.2194,8.2194,8.2194,8.2194,8.2194,8.2194,8.2194,8.2194,8.2194,8.2194,8.2194,8.2194,8.2194,8.2194,8.2194,8.2194,8.2194,0.0,0.0,0.0,0.0,0.0,0.0,0.0,0.0,0.0,4.4314,0.0,0.0,0.0,0.0,4.3396,4.3139,4.3098,4.3098,4.3098,4.3359,4.3506,4.3506,4.3506,4.3506,4.3506,4.3506,4.3506,4.3506,0.0,0.0,0.0,4.3506,4.3506,4.3506,4.3506,4.38,0.0,0.0,0.0,4.5883,0.0,0.0,5.3796,0.0,0.0,0.0,0.0,0.0,0.0,0.0,0.0,5.6828,5.6822,5.5165,5.3214,5.3214,5.4326,5.5732,5.6235,5.8725,6.1661,6.3619,6.5895,6.8568,7.2092,7.4764,7.7032,0.0,0.0,0.0,0.0,0.0,0.0,0.0,0.0,0.0,0.0,0.0,0.0,0.0,0.0,0.0,0.0,0.0,0.0,0.0,0.0,0.0,8.2194,8.2194,8.2194,8.2194,8.2194,8.2194,8.2194,8.2194,8.2194,8.2194,8.2194,8.2194,8.2194,8.2194,8.2194,8.2194,8.2194,8.2194,8.2194,8.2194,8.2194,8.2194,8.2194,8.2194,8.2194,8.2194,8.2194,8.2194,0.0,0.0,0.0,0.0,0.0,0.0,0.0,0.0,4.5883,4.5883,0.0,0.0,0.0,0.0,0.0,4.2396,4.2359,4.2359,4.2323,4.3061,4.3506,4.3506,4.3506,4.3506,4.3506,4.3506,4.3506,4.3506,4.3506,4.3506,4.3506,4.3506,4.3506,4.3506,4.3506,4.3547,4.3579,0.0,4.4737,4.525,0.0,5.1201,5.0334,0.0,0.0,0.0,5.8625,6.0463,0.0,0.0,0.0,0.0,0.0,5.6328,5.3214,5.3214,5.4363,5.5622,0.0,0.0,0.0,6.2921,6.3319,6.4591,7.1805,0.0,7.5858,0.0,0.0,0.0,0.0,0.0,0.0,0.0,0.0,0.0,0.0,0.0,0.0,0.0,0.0,0.0,0.0,0.0,0.0,0.0,0.0,8.2194,8.2194,8.2194,8.2194,8.2194,8.2194,8.2194,8.2194,8.2194,8.2194,8.2194,8.2194,8.2194,8.2194,8.2194,8.2194,8.2194,8.2194,8.2194,8.2194,8.2194,8.2194,8.2194,8.2194,8.2194,8.2194,8.2194,8.2194,8.2194,0.0,0.0,0.0,0.0,0.0,4.7113,4.7113,4.6425,4.5883,0.0,0.0,0.0,0.0,0.0,4.4048,4.3245,4.3718,4.3787,4.3208,4.3396,4.3506,4.3506,4.3506,4.3506,4.3506,4.3506,4.3506,4.3506,4.3506,4.3506,4.3506,4.3506,4.3506,4.3547,4.4121,4.4374,4.4374,4.4626,0.0,0.0,5.3256,5.6161,0.0,0.0,0.0,0.0,0.0,6.4107,0.0,0.0,6.4458,6.0052,0.0,0.0,5.3324,5.3917,5.4808,5.5732,5.6308,0.0,0.0,0.0,0.0,0.0,0.0,0.0,0.0,0.0,0.0,0.0,0.0,0.0,0.0,0.0,0.0,0.0,0.0,0.0,0.0,0.0,0.0,0.0,0.0,0.0,0.0,0.0,8.2194,8.2194,8.2194,8.2194,8.2194,8.2194,8.2194,8.2194,8.2194,8.2194,8.2194,8.2194,8.2194,8.2194,8.2194,8.2194,8.2194,8.2194,8.2194,8.2194,8.2194,8.2194,8.2194,8.2194,8.2194,8.2194,8.2194,8.2194,8.2194,8.2268,0.0,0.0,4.893,4.9292,4.8957,4.8627,4.8627,4.7976,4.7434,0.0,0.0,0.0,0.0,0.0,4.536,4.4571,4.4631,4.4631,4.4493,4.4199,4.4011,4.4011,4.4011,4.3832,4.351,4.3832,4.3832,4.3506,4.3832,4.4011,4.4011,4.4011,4.4199,4.4534,4.5002,4.5402,4.5686,0.0,0.0,0.0,5.4064,0.0,0.0,6.1824,6.3345,0.0,0.0,0.0,6.5573,6.9322,6.6877,0.0,0.0,0.0,0.0,0.0,0.0,5.6198,5.6669,5.7404,5.8076,0.0,0.0,0.0,0.0,0.0,0.0,0.0,0.0,0.0,0.0,0.0,0.0,0.0,0.0,0.0,0.0,0.0,0.0,0.0,0.0,0.0,0.0,0.0,0.0,8.2194,8.2194,8.2194,8.2194,8.2194,8.2194,8.2194,8.2194,8.2194,8.2194,8.2194,8.2194,8.2194,8.2194,8.2194,8.2194,8.2194,8.2194,8.2194,8.2194,8.2194,8.2194,8.2194,8.2194,8.2194,8.2194,8.2194,8.2194,8.2194,8.2406,8.2765,0.0,0.0,4.9968,5.0692,5.0797,5.0797,5.0797,5.0183,4.9716,0.0,4.8967,4.8154,0.0,0.0,0.0,0.0,4.536,4.5214,4.5847,4.5218,4.4847,4.4847,4.4847,4.4447,4.3653,4.4411,4.4452,4.3612,4.4452,4.4847,4.4847,4.4847,4.5218,4.5883,4.5993,4.6429,4.7113,4.7191,0.0,5.1526,5.3752,5.5322,0.0,0.0,6.0586,0.0,6.4819,6.5993,6.6278,7.0753,6.9106,0.0,0.0,0.0,0.0,0.0,5.5818,5.6934,5.694,5.7446,5.818,0.0,0.0,0.0,0.0,0.0,0.0,0.0,0.0,0.0,0.0,0.0,0.0,0.0,0.0,0.0,0.0,0.0,0.0,0.0,0.0,0.0,0.0,8.2194,8.2194,8.2194,8.2194,8.2194,8.2194,8.2194,8.2194,8.2194,8.2194,8.2194,8.2194,8.2194,8.2194,8.2194,8.2194,8.2194,8.2194,8.2194,8.2194,8.2194,8.2194,8.2194,8.2194,8.2194,8.2194,8.2194,8.2194,8.2268,8.2333,8.2231,8.2774,8.3536,5.0398,5.0582,5.0618,5.076,5.0797,5.0797,5.0797,5.0655,5.0582,5.0582,4.9858,4.9275,0.0,0.0,0.0,0.0,4.6714,4.6425,4.5925,4.5736,4.5663,4.5663,4.5663,4.5296,4.448,4.5255,4.5259,4.4484,4.5259,4.5663,4.5663,4.5663,4.5736,4.5925,4.6571,4.6966,4.7149,0.0,0.0,5.4759,5.5746,0.0,6.129,6.3773,6.5746,6.7165,6.7436,6.837,6.9122,0.0,6.6546,6.5628,0.0,0.0,0.0,0.0,0.0,0.0,0.0,0.0,0.0,0.0,0.0,0.0,0.0,0.0,0.0,0.0,0.0,0.0,0.0,0.0,0.0,0.0,0.0,0.0,0.0,0.0,0.0,0.0,0.0,0.0,0.0,8.2194,8.2194,8.2194,8.2194,8.2194,8.2194,8.2194,8.2194,8.2194,8.2194,8.2194,8.2194,8.2194,8.2194,8.2194,8.2194,8.2194,8.2194,8.2194,8.2194,8.2194,8.2194,8.2194,8.2194,8.2194,8.2194,8.2194,8.2194,8.259,8.3096,8.2443,8.3104,8.4389,5.1174,5.1394,5.1536,5.1935,5.2338,5.2454,5.2045,5.2008,5.1861,5.1463,5.1032,5.0959,5.1358,0.0,0.0,0.0,4.7326,4.6771,4.7076,4.6445,4.6192,4.6489,4.6498,4.6131,4.5328,4.6094,4.6099,4.5292,4.6099,4.6498,4.6498,4.6498,4.7163,4.8306,4.7893,4.7968,0.0,0.0,5.1815,5.4669,5.6538,0.0,6.4103,6.6802,6.822,6.8784,6.9134,6.9703,6.9841,6.6438,6.5545,0.0,0.0,6.119,6.0058,0.0,5.9161,5.8886,0.0,0.0,0.0,5.8505,0.0,0.0,0.0,0.0,0.0,0.0,0.0,0.0,0.0,0.0,0.0,0.0,0.0,0.0,0.0,0.0,0.0,0.0,0.0,0.0,0.0,0.0,8.2627,8.2231,8.2194,8.2194,8.2194,8.2194,8.2194,8.2194,8.2194,8.2194,8.2194,8.2194,8.2194,8.2194,8.2194,8.2194,8.2194,8.2194,8.2194,8.2194,8.2194,8.2194,8.2194,8.2194,8.2443,8.2802,8.2802,8.3022,8.3381,8.3398,8.4168,8.5196,5.1908,5.2239,5.2454,5.3104,5.3733,5.3953,5.3287,5.3214,5.2962,5.2312,5.2386,5.2768,5.3575,0.0,0.0,0.0,0.0,4.7592,4.8728,4.7575,4.7151,4.7809,4.7496,4.7122,4.6622,4.7085,4.6938,4.6136,4.6938,4.7333,4.7333,4.7333,4.8406,5.0283,0.0,0.0,0.0,0.0,0.0,5.4923,0.0,6.0981,6.4456,6.7813,6.8511,6.7948,6.9991,7.0609,6.9944,6.6979,0.0,6.5409,6.5126,6.3256,0.0,0.0,0.0,0.0,0.0,0.0,0.0,0.0,0.0,5.9062,0.0,0.0,0.0,0.0,0.0,0.0,0.0,0.0,0.0,0.0,0.0,0.0,0.0,0.0,0.0,0.0,0.0,0.0,0.0,0.0,8.2949,8.248,8.215,8.2113,8.2406,8.226,8.2194,8.2194,8.2194,8.2194,8.2194,8.2194,8.2194,8.2194,8.2194,8.2194,8.2194,8.2194,8.2194,8.2194,8.2194,8.2194,8.2223,8.237,8.2802,8.3381,8.3381,8.3609,8.3903,8.4417,8.5196,8.6012,5.2742,5.3067,5.3104,5.3177,5.3287,5.3324,5.3214,5.3214,5.3177,5.3067,5.3697,5.4414,0.0,0.0,0.0,0.0,0.0,0.0,5.0606,0.0,4.9596,5.0431,4.8976,4.8489,4.9165,4.8526,4.7783,4.6971,4.7783,4.8154,4.8154,4.8154,4.8296,4.8668,5.0692,0.0,0.0,0.0,5.6121,0.0,6.129,6.112,0.0,6.4534,6.57,6.5593,6.9747,7.1209,7.0703,0.0,6.7535,6.7679,0.0,6.233,0.0,0.0,0.0,0.0,0.0,0.0,0.0,0.0,5.9125,0.0,0.0,0.0,0.0,0.0,0.0,0.0,0.0,0.0,0.0,0.0,0.0,0.0,0.0,0.0,0.0,0.0,0.0,0.0,0.0,0.0,0.0,8.3206,8.1958,8.1774,8.3206,8.259,8.2194,8.2194,8.2194,8.2194,8.2194,8.2194,8.2194,8.2194,8.2194,8.2194,8.2194,8.2194,8.2194,8.2194,8.2194,8.2194,8.2268,8.2986,8.3308,8.3381,8.3381,8.427,8.5462,8.4829,8.5555,8.6766,5.2884,5.3214,5.3214,5.3214,5.3581,5.3733,5.3287,5.3214,5.339,5.3931,5.4228,0.0,0.0,0.0,0.0,0.0,0.0,0.0,0.0,0.0,5.1207,5.1521,4.9925,4.9406,5.0203,4.8947,4.8118,4.7783,4.8118,4.8301,4.8301,4.8825,4.9559,5.0562,5.2867,0.0,5.4418,0.0,0.0,0.0,0.0,0.0,0.0,6.5905,6.8432,6.8356,7.0539,7.13,7.1097,0.0,6.8394,0.0,0.0,0.0,0.0,0.0,0.0,0.0,0.0,0.0,0.0,0.0,0.0,0.0,0.0,0.0,6.0933,0.0,0.0,0.0,0.0,0.0,0.0,0.0,0.0,0.0,0.0,0.0,0.0,0.0,0.0,0.0,0.0,0.0,0.0,0.0,0.0,8.0791,8.1958,8.2582,8.27,8.2223,8.2194,8.2194,8.2194,8.2194,8.2194,8.2194,8.2194,8.2194,8.2194,8.2194,8.2194,8.2231,8.2692,8.2912,8.2949,8.3756,8.4389,8.4792,8.4792,8.5205,8.5829,8.593,8.6436,8.6949,5.2581,5.3071,5.3141,5.2926,5.355,5.388,5.3287,5.3214,5.3504,0.0,0.0,0.0,5.6655,5.4766,0.0,0.0,0.0,5.3545,0.0,0.0,5.2986,0.0,0.0,0.0,0.0,5.0123,4.8991,4.8359,4.8774,4.8852,4.8673,4.9527,5.0433,5.1464,0.0,5.5696,5.6932,0.0,0.0,5.9291,6.2046,6.2146,6.1217,6.7201,6.9919,7.0612,7.1111,7.1185,7.1044,7.0995,6.9193,0.0,7.0265,0.0,0.0,0.0,0.0,0.0,5.9966,0.0,0.0,0.0,0.0,0.0,0.0,0.0,0.0,0.0,0.0,0.0,0.0,0.0,0.0,0.0,0.0,0.0,0.0,0.0,0.0,0.0,0.0,0.0,0.0,0.0,0.0,0.0,0.0,0.0,8.1554,8.2362,8.2692,8.2517,8.2296,8.2194,8.2194,8.2194,8.2194,8.2194,8.2194,8.2194,8.2194,8.2194,8.2333,8.2553,8.3132,8.3536,8.3793,8.4609,8.5278,8.5829,8.6049,8.6114,8.6187,8.6766,8.6986,8.6986,5.1817,5.2719,5.2957,5.2165,5.2706,5.3214,5.3214,5.3214,0.0,0.0,0.0,0.0,0.0,0.0,0.0,0.0,0.0,5.7291,5.8862,0.0,5.5256,0.0,0.0,0.0,0.0,0.0,5.0698,4.8496,4.9977,5.0325,4.9574,5.0362,5.0394,4.99,5.3081,5.529,5.6828,6.0039,6.3745,6.7523,6.7622,6.8678,6.9832,0.0,6.7766,7.048,7.1067,0.0,0.0,7.0274,7.0161,0.0,0.0,0.0,0.0,0.0,0.0,0.0,0.0,0.0,0.0,6.3739,0.0,0.0,0.0,0.0,6.2719,0.0,0.0,0.0,0.0,0.0,0.0,0.0,0.0,0.0,0.0,0.0,0.0,0.0,0.0,0.0,0.0,0.0,0.0,0.0,0.0,0.0,8.3051,8.1884,8.1774,8.3308,8.2627,8.2194,8.2194,8.2194,8.2194,8.2194,8.2194,8.2194,8.2194,8.2194,8.2627,8.3344,8.3381,8.383,8.4609,8.5425,8.5792,8.5865,8.6656,8.6949,8.6949,8.6986,8.6986,8.6986,5.0551,5.1622,5.2543,5.2752,5.3036,5.3054,0.0,5.2942,0.0,0.0,0.0,0.0,0.0,0.0,6.0214,0.0,0.0,6.0458,6.2054,6.0088,0.0,0.0,0.0,5.529,0.0,0.0,5.1128,4.9343,4.9824,4.9929,4.968,5.049,5.0741,5.0648,5.3828,5.688,0.0,0.0,0.0,0.0,0.0,6.6951,6.6827,0.0,0.0,7.1331,7.1848,7.2214,0.0,7.2395,7.1729,7.0872,7.0601,6.9169,6.7508,6.7235,6.6487,0.0,0.0,0.0,6.8498,6.7595,0.0,0.0,0.0,0.0,0.0,0.0,0.0,0.0,0.0,0.0,0.0,0.0,0.0,0.0,0.0,0.0,0.0,0.0,0.0,0.0,0.0,0.0,0.0,0.0,0.0,0.0,0.0,8.2325,8.283,8.3381,8.3132,8.2737,8.2194,8.2194,8.2194,8.2194,8.2194,8.2194,8.2231,8.2737,8.3132,8.3454,8.4527,8.5123,8.5462,8.6261,8.6582,8.6628,8.6876,8.6986,8.6986,8.6986,8.6986,8.6986,5.0265,5.1523,5.2564,5.2752,5.3001,0.0,0.0,0.0,0.0,0.0,5.8539,0.0,6.112,0.0,6.1609,0.0,6.2736,6.2256,6.3542,6.2336,0.0,6.1675,5.9478,0.0,0.0,0.0,0.0,5.143,5.0872,5.045,5.0164,5.0707,5.0813,5.0706,5.3292,5.6514,6.0147,0.0,6.4275,0.0,0.0,6.7335,0.0,0.0,7.0779,7.027,0.0,7.2949,7.3231,7.3751,7.3071,7.2225,7.2969,7.1503,6.9609,6.9823,6.9079,6.847,6.9891,7.0601,0.0,7.0523,6.9608,0.0,6.5942,0.0,0.0,0.0,0.0,0.0,0.0,0.0,0.0,0.0,0.0,0.0,0.0,0.0,0.0,0.0,0.0,0.0,0.0,0.0,0.0,0.0,0.0,0.0,0.0,0.0,8.2655,8.3793,8.3279,8.2737,8.2194,8.2194,8.2194,8.2194,8.2194,8.2341,8.2627,8.3169,8.372,8.4307,8.5351,8.5976,8.6261,8.6803,8.6986,8.6986,8.6986,8.6986,8.6986,8.6986,8.6986,8.6986,5.1002,0.0,0.0,0.0,5.2694,0.0,0.0,0.0,5.6821,0.0,5.9503,6.0817,5.9442,6.0669,6.2101,6.3455,6.299,0.0,6.3589,6.2899,0.0,0.0,6.1832,6.1373,6.1419,0.0,0.0,0.0,5.2958,5.1809,5.1055,5.1085,5.0739,5.017,5.1561,0.0,5.8127,6.1003,6.4072,6.7039,6.7895,6.9993,7.2531,7.1802,0.0,6.7714,7.2019,7.3206,7.2944,7.4172,7.4119,7.3657,7.4277,7.4514,7.4412,7.3725,7.4018,7.4311,7.2969,7.1594,7.09,7.2438,0.0,0.0,0.0,0.0,6.9374,0.0,0.0,0.0,0.0,0.0,0.0,0.0,0.0,0.0,0.0,0.0,0.0,0.0,0.0,0.0,0.0,0.0,0.0,0.0,0.0,0.0,0.0,0.0,0.0,8.4425,8.3067,8.2231,8.2194,8.2158,8.2158,8.2158,8.2194,8.2627,8.3381,8.3454,8.4307,8.5792,8.5829,8.6297,8.6986,8.6986,8.6986,8.6986,8.6986,8.6986,8.6986,8.6986,8.6986,8.6986,5.1848,5.269,5.3063,0.0,5.3302,5.4378,0.0,0.0,0.0,0.0,6.1421,6.2829,6.2408,6.4164,6.5094,6.4387,6.5144,0.0,0.0,0.0,0.0,6.5662,6.4409,6.3468,6.2946,5.9608,0.0,5.5383,0.0,5.2152,5.1936,5.1408,5.1377,5.1672,5.0963,5.3651,5.8786,5.953,6.3531,6.953,7.1909,7.1728,0.0,0.0,7.2429,6.982,7.3129,7.4565,7.4886,7.4675,7.448,7.4142,7.324,7.3341,7.3759,7.3556,7.4018,7.4784,7.554,7.5473,7.5002,7.4297,7.2688,7.0984,0.0,0.0,0.0,0.0,0.0,0.0,0.0,0.0,0.0,0.0,0.0,0.0,0.0,0.0,0.0,0.0,0.0,0.0,0.0,0.0,0.0,0.0,0.0,0.0,0.0,0.0,0.0,8.3609,8.3316,8.2802,8.2194,8.1599,8.1305,8.1342,8.1901,8.2627,8.3418,8.4013,8.4829,8.5829,8.6444,8.6803,8.6986,8.6986,8.6986,8.6986,8.6986,8.6986,8.6986,8.6986,8.6986,8.6986,5.2236,0.0,0.0,5.3308,0.0,0.0,5.6046,0.0,0.0,6.0517,6.2906,0.0,6.3563,6.5178,6.6102,6.5628,6.6328,0.0,0.0,0.0,0.0,6.6791,6.6633,6.6373,6.5956,6.2898,0.0,5.8143,0.0,5.3123,5.1794,5.1055,5.0925,5.1321,5.1128,5.3315,5.7239,5.9868,6.3961,6.8944,7.1616,0.0,0.0,7.3781,7.3646,7.2326,7.4006,7.4852,7.5168,7.475,7.4175,7.3499,7.2665,7.2913,7.3454,7.3116,7.3781,7.4784,7.5664,7.59,7.5765,7.5236,7.4458,7.3443,7.1853,7.1503,7.1547,0.0,0.0,0.0,0.0,0.0,0.0,0.0,0.0,0.0,0.0,0.0,0.0,0.0,0.0,0.0,0.0,0.0,0.0,0.0,0.0,0.0,0.0,0.0,0.0,8.3279,8.2729,8.1958,8.1166,8.1415,8.1342,8.1004,8.2186,8.3132,8.394,8.4756,8.5563,8.6334,8.6803,8.6986,8.6986,8.6986,8.6986,8.6986,8.6986,8.6986,8.6986,8.6986,8.6986,8.6986,0.0,0.0,0.0,0.0,0.0,0.0,0.0,5.9778,0.0,6.1579,0.0,6.5162,6.3666,6.4884,6.6,0.0,0.0,6.6643,6.5876,6.7895,6.8504,6.7174,6.8392,6.9113,6.9113,6.6857,0.0,0.0,0.0,5.4448,5.1472,5.0744,5.0447,5.0582,5.1792,5.3484,5.5861,6.1525,6.5347,0.0,6.9891,7.2,7.3759,7.3556,7.395,7.4615,7.4615,7.4547,7.4446,7.4345,7.351,7.2529,7.2428,7.2913,7.3387,7.2834,7.36,7.4615,7.4717,7.475,7.4886,7.554,7.5709,7.554,7.4886,7.475,7.475,7.475,7.3228,0.0,0.0,0.0,0.0,0.0,0.0,0.0,0.0,0.0,0.0,0.0,0.0,0.0,0.0,0.0,0.0,0.0,0.0,0.0,0.0,0.0,0.0,8.2765,8.1664,0.0,7.9955,0.0,8.1672,8.1004,8.2618,8.383,8.4646,8.5425,8.6224,8.6986,8.6986,8.6986,8.6986,8.6986,8.6986,8.6986,8.6986,8.6986,8.6986,8.6986,8.6986,8.6986,0.0,0.0,0.0,0.0,0.0,5.9259,6.1139,6.1913,6.2494,6.3045,6.4679,0.0,6.3669,6.5347,6.6159,6.5087,6.6643,0.0,0.0,0.0,0.0,6.8707,6.8977,6.9113,6.9113,6.6857,6.4251,0.0,0.0,0.0,5.3069,5.23,5.2266,5.2875,5.2469,5.5209,6.0385,6.4502,0.0,7.1548,7.3161,7.4424,7.518,7.3962,7.395,7.4615,7.4615,7.4221,7.359,7.3003,7.3003,7.3218,7.2597,7.2913,7.359,7.4074,7.4412,7.4717,7.5337,7.5506,7.554,7.5676,7.5709,7.5676,7.554,7.5506,7.5506,7.5506,7.5202,7.4661,7.386,0.0,0.0,0.0,0.0,0.0,0.0,0.0,0.0,0.0,0.0,0.0,0.0,0.0,0.0,0.0,0.0,0.0,0.0,0.0,0.0,0.0,0.0,0.0,0.0,0.0,8.115,8.1004,8.2618,8.383,8.4646,8.5425,8.6224,8.6986,8.6986,8.6986,8.6986,8.6986,8.6986,8.6986,8.6986,8.6986,8.6986,8.6986,8.6986,8.6986,0.0,0.0,0.0,0.0,0.0,0.0,0.0,6.3665,0.0,6.5104,6.5517,6.5457,6.4732,6.5922,6.6667,6.6339,6.7658,6.8538,6.8571,6.9248,6.9823,7.0218,6.9857,0.0,7.0218,0.0,6.6406,6.1873,0.0,0.0,5.2875,5.2461,5.2503,5.2968,5.4896,5.7399,6.0443,0.0,0.0,7.0906,7.3533,7.4818,7.5067,7.4356,7.4289,7.4547,7.4153,7.3793,7.3488,7.3544,7.351,7.3454,7.3082,7.3488,7.4153,7.448,7.4852,7.5236,7.5608,7.5709,7.5709,7.5709,7.5709,7.5709,7.5709,7.5709,7.5709,7.5709,7.5709,7.5033,7.2766,7.0943,0.0,0.0,0.0,0.0,0.0,0.0,0.0,0.0,0.0,0.0,0.0,0.0,0.0,0.0,0.0,0.0,0.0,0.0,0.0,0.0,0.0,0.0,0.0,0.0,0.0,8.104,8.3471,8.4866,8.5233,8.604,8.6619,8.6986,8.6986,8.6986,8.6986,8.6986,8.6986,8.6986,8.6986,8.6986,8.6986,8.6986,8.6986,8.6986,0.0,5.8626,0.0,0.0,6.0225,0.0,0.0,6.5189,6.6203,6.6937,6.6406,6.5943,6.5943,6.6576,6.7275,6.7861,6.8774,6.9519,6.9936,7.0105,7.0477,7.103,7.05,7.0534,7.13,7.13,6.8662,0.0,0.0,0.0,5.3484,5.3171,5.3441,5.4363,0.0,0.0,0.0,0.0,6.9688,7.0522,7.3431,7.4683,7.4784,7.4492,7.4446,7.4514,7.395,7.3725,7.386,7.4593,7.4356,7.3725,7.3725,7.4255,7.4818,7.4818,7.5236,7.5709,7.5709,7.5709,7.5709,7.5709,7.5709,7.5709,7.5709,7.5709,7.5709,7.5709,7.5709,7.4897,7.2247,7.1591,0.0,0.0,0.0,0.0,0.0,0.0,0.0,0.0,0.0,0.0,0.0,0.0,0.0,0.0,0.0,0.0,0.0,0.0,0.0,0.0,0.0,8.0094,7.9816,0.0,8.3324,0.0,8.4507,8.5792,8.5829,8.6619,8.6986,8.6986,8.6986,8.6986,8.6986,8.6986,8.6986,8.6986,8.6986,8.6986,8.6986,8.6986,8.6986,8.6986,0.0,0.0,0.0,0.0,0.0,0.0,0.0,6.6599,6.6971,6.7692,6.714,6.67,6.67,6.7354,6.7827,6.7895,6.9259,6.9823,6.9248,6.9834,7.024,7.0308,7.024,7.0534,7.13,7.13,6.9711,0.0,0.0,0.0,0.0,5.6012,5.7196,0.0,0.0,0.0,0.0,6.953,7.165,7.4108,7.4446,7.4987,7.5439,7.4097,7.4018,7.4581,7.4514,7.448,7.4615,7.5337,7.51,7.448,7.448,7.4999,7.5608,7.5608,7.5642,7.5709,7.5709,7.5709,7.5709,7.5709,7.5709,7.5709,7.5709,7.5709,7.5709,7.5709,7.5709,7.5202,7.359,7.4336,7.4173,0.0,0.0,0.0,0.0,0.0,0.0,0.0,0.0,0.0,0.0,0.0,0.0,0.0,6.6787,0.0,0.0,0.0,0.0,7.8809,0.0,7.8324,7.9779,8.1534,0.0,8.4278,8.5315,8.5792,8.5829,8.6619,8.6986,8.6986,8.6986,8.6986,8.6986,8.6986,8.6986,8.6986,8.6986,8.6986,8.6986,8.6986,8.6986,8.6986,0.0,0.0,0.0,0.0,0.0,0.0,0.0,6.7455,6.7895,6.9124,6.7827,6.6802,6.6802,6.7455,6.8098,6.8571,6.9597,7.0071,6.9766,6.9631,6.9733,7.0172,6.9766,7.0094,7.1267,7.13,6.9801,0.0,0.0,0.0,0.0,5.8829,0.0,0.0,0.0,6.7804,6.9902,7.1954,7.351,7.4615,7.4615,7.4784,7.4999,7.439,7.4627,7.5202,7.475,7.4886,7.5303,7.5608,7.5506,7.527,7.527,7.5473,7.5709,7.5709,7.5709,7.5709,7.5709,7.5709,7.5709,7.5709,7.5709,7.5709,7.5709,7.5709,7.5709,7.5709,7.5709,7.5506,7.4943,7.4571,7.4445,0.0,0.0,0.0,0.0,0.0,0.0,0.0,0.0,0.0,0.0,0.0,0.0,0.0,0.0,0.0,0.0,0.0,0.0,7.7011,0.0,8.0571,8.124,8.2847,8.3948,8.4609,8.593,8.6518,8.6518,8.6839,8.6986,8.6986,8.6986,8.6986,8.6986,8.6986,8.6986,8.6986,8.6986,8.6986,8.6986,8.6986,8.6986,8.6986,6.6789,0.0,6.7297,0.0,6.7624,6.8222,6.8538,6.8582,6.8887,6.9766,6.847,6.7478,6.7478,6.8335,6.9045,6.9383,7.0308,7.0578,6.9936,6.9586,6.9665,7.0172,6.9925,0.0,7.1921,7.1954,7.0894,6.8764,6.6328,0.0,0.0,6.255,0.0,0.0,6.9654,7.1086,7.165,7.395,7.4784,7.4615,7.4852,7.492,7.492,7.492,7.5236,7.5642,7.5089,7.527,7.5709,7.5709,7.5709,7.5709,7.5709,7.5709,7.5709,7.5709,7.5709,7.5709,7.5709,7.5709,7.5709,7.5709,7.5709,7.5709,7.5709,7.5709,7.5709,7.5709,7.5709,7.5709,7.5709,7.5045,7.4874,7.6047,0.0,0.0,0.0,0.0,0.0,0.0,0.0,0.0,0.0,0.0,0.0,0.0,0.0,0.0,0.0,0.0,0.0,0.0,0.0,0.0,0.0,8.3434,8.46,8.5335,8.6472,8.6986,8.6986,8.6986,8.6986,8.6986,8.6986,8.6986,8.6986,8.6986,8.6986,8.6986,8.6986,8.6986,8.6986,8.6986,8.6986,8.6986,7.0003,7.0737,7.0996,7.0274,7.077,7.0996,7.0274,7.0172,6.9936,6.9214,6.9079,6.9079,6.9079,7.0387,7.0962,7.024,7.1526,7.1447,6.9248,6.98,7.0172,0.0,0.0,7.1943,7.3454,7.3454,7.3454,7.3421,0.0,0.0,6.8977,6.7444,6.873,7.2326,7.236,7.3172,7.4615,7.5371,7.527,7.4649,7.5405,7.5676,7.5676,7.5676,7.5676,7.5709,7.5676,7.5676,7.5709,7.5709,7.5709,7.5709,7.5709,7.5709,7.5709,7.5709,7.5709,7.5709,7.5709,7.5709,7.5709,7.5709,7.5709,7.5709,7.5709,7.5709,7.5709,7.5709,7.5709,7.5709,7.5709,7.6318,7.6115,7.3917,0.0,0.0,0.0,0.0,0.0,0.0,7.1742,7.091,7.3385,0.0,0.0,0.0,0.0,0.0,0.0,0.0,0.0,7.8442,7.7766,0.0,8.1004,8.2618,8.4592,8.6986,8.6986,8.6986,8.6986,8.6986,8.6986,8.6986,8.6986,8.6986,8.6986,8.6986,8.6986,8.6986,8.6986,8.6986,8.6986,8.6986,8.6986,8.6986,6.9417,7.0455,7.0928,6.9654,7.006,7.0477,7.024,6.9755,6.9722,7.0489,7.059,7.059,7.059,7.103,7.1199,0.0,7.1853,7.1684,0.0,7.0534,7.0962,7.0962,7.165,7.2496,7.3488,7.3488,7.3488,7.3488,0.0,0.0,0.0,7.1142,7.2529,7.4661,7.4661,7.4897,7.5371,7.5608,7.5574,7.5371,7.5608,7.5709,7.5709,7.5709,7.5709,7.5709,7.5709,7.5709,7.5709,7.5709,7.5709,7.5709,7.5709,7.5709,7.5709,7.5709,7.5709,7.5709,7.5709,7.5709,7.5709,7.5709,7.5709,7.5709,7.5709,7.5709,7.5709,7.5709,7.5709,7.5709,7.5709,7.5912,7.5676,7.4458,7.5995,0.0,0.0,0.0,0.0,0.0,0.0,7.729,0.0,0.0,0.0,0.0,0.0,0.0,0.0,0.0,0.0,0.0,8.0673,0.0,8.2618,8.3683,8.5151,8.6986,8.6986,8.6986,8.6986,8.6986,8.6986,8.6986,8.6986,8.6986,8.6986,8.6986,8.6986,8.6986,8.6986,8.6986,8.6986,8.6986,8.6986,8.6986,6.9553,7.0489,7.0996,7.0083,7.0297,7.0601,7.0601,7.0229,7.0252,7.1199,7.1537,7.1706,7.1706,7.1943,0.0,7.1368,7.1977,7.1751,7.0308,7.0906,7.1436,7.1706,7.2428,7.3285,7.43,0.0,0.0,7.4334,7.2676,7.2225,7.2958,7.3612,7.4559,7.5709,7.5709,7.5709,7.5709,7.5709,7.5709,7.5709,7.5709,7.5709,7.5709,7.5709,7.5709,7.5709,7.5709,7.5709,7.5709,7.5709,7.5709,7.5709,7.5709,7.5709,7.5709,7.5709,7.5709,7.5709,7.5709,7.5709,7.5709,7.5709,7.5709,7.5709,7.5709,7.5709,7.5709,7.5709,7.5709,7.5709,7.5709,7.5709,7.5642,7.5495,7.6284,7.6905,7.6944,0.0,0.0,0.0,0.0,0.0,0.0,7.8206,0.0,0.0,0.0,0.0,0.0,0.0,0.0,7.9132,8.2113,0.0,8.3866,8.4646,8.571,8.6986,8.6986,8.6986,8.6986,8.6986,8.6986,8.6986,8.6986,8.6986,8.6986,8.6986,8.6986,8.6986,8.6986,8.6986,8.6986,8.6986,8.6986,8.6986,7.0342,7.0804,0.0,0.0,7.1267,0.0,7.13,7.13,7.13,7.13,7.1943,7.2394,7.2326,7.2981,7.2834,7.1436,0.0,0.0,0.0,7.1007,7.174,7.2462,7.3218,7.43,7.5676,7.5709,7.5676,7.5608,7.4987,7.4987,7.5608,7.4953,7.5021,7.5709,7.5709,7.5709,7.5709,7.5709,7.5709,7.5709,7.5709,7.5709,7.5709,7.5709,7.5709,7.5709,7.5709,7.5709,7.5709,7.5709,7.5709,7.5709,7.5709,7.5709,7.5709,7.5709,7.5709,7.5709,7.5709,7.5709,7.5709,7.5709,7.5709,7.5709,7.5709,7.5709,7.5709,7.5709,7.5709,7.5709,7.5709,7.5709,7.5946,7.669,7.6826,7.7178,7.8165,0.0,0.0,0.0,0.0,0.0,0.0,7.791,7.8701,0.0,0.0,0.0,0.0,0.0,7.8405,8.2341,8.2488,8.3222,8.4682,8.549,8.6261,8.6986,8.6986,8.6986,8.6986,8.6986,8.6986,8.6986,8.6986,8.6986,8.6986,8.6986,8.6986,8.6986,8.6986,8.6986,8.6986,8.6986,8.6986,8.6986,0.0,0.0,7.1131,7.0567,7.0939,7.13,7.13,7.13,7.13,7.13,7.1943,7.2191,7.1605,7.2225,7.2293,7.1368,7.1977,7.2022,7.1097,7.2259,7.3048,7.3218,7.4503,7.5337,7.5676,7.5709,7.5439,7.4852,7.5236,7.5236,7.4852,7.527,7.554,7.5709,7.5709,7.5709,7.5709,7.5709,7.5709,7.5709,7.5709,7.5709,7.5709,7.5709,7.5709,7.5709,7.5709,7.5709,7.5709,7.5709,7.5709,7.5709,7.5709,7.5709,7.5709,7.5709,7.5709,7.5709,7.5709,7.5709,7.5709,7.5709,7.5709,7.5709,7.5709,7.5709,7.5709,7.5709,7.5709,7.5709,7.5709,7.5709,7.5743,7.5946,7.598,7.6361,7.7416,7.8125,0.0,0.0,8.0316,8.065,8.149,8.0876,7.9584,0.0,0.0,0.0,0.0,8.0785,8.2692,8.4874,8.5527,8.5747,8.5535,8.6297,8.6803,8.6986,8.6986,8.6986,8.6986,8.6986,8.6986,8.6986,8.6986,8.6986,8.6986,8.6986,8.6986,8.6986,8.6986,8.6986,8.6986,8.6986,8.6986,8.6986,7.0409,7.0804,7.1165,7.077,7.103,7.13,7.13,7.13,7.13,7.13,7.1943,7.2124,7.1368,7.1943,7.209,7.1357,7.1672,7.174,7.1334,7.236,7.315,7.3488,7.4593,7.5337,7.5676,7.5709,7.5506,7.51,7.5168,7.5156,7.5089,7.5168,7.5371,7.5709,7.5709,7.5709,7.5709,7.5709,7.5709,7.5709,7.5709,7.5709,7.5709,7.5709,7.5709,7.5709,7.5709,7.5709,7.5709,7.5709,7.5709,7.5709,7.5709,7.5709,7.5709,7.5709,7.5709,7.5709,7.5709,7.5709,7.5709,7.5709,7.5709,7.5709,7.5709,7.5709,7.5709,7.5709,7.5709,7.5709,7.5709,7.5709,7.5709,7.5709,7.5796,7.6222,7.7183,7.7762,0.0,8.025,8.0395,8.0567,8.1135,8.0428,7.9247,7.7478,0.0,0.0,8.0103,8.1735,8.3642,8.5738,8.6224,8.6407,8.6334,8.6766,8.6986,8.6986,8.6986,8.6986,8.6986,8.6986,8.6986,8.6986,8.6986,8.6986,8.6986,8.6986,8.6986,8.6986,8.6986,8.6986,8.6986,8.6986,8.6986,8.6986,7.0612,7.0861,7.13,7.13,7.13,7.13,7.13,7.13,7.13,7.13,7.1842,7.1988,7.1368,7.1853,7.1988,7.1368,7.13,7.13,7.13,7.1977,7.2732,7.3454,7.4221,7.4987,7.5845,7.5879,7.5777,7.554,7.5021,7.5033,7.5506,7.4999,7.51,7.5709,7.5709,7.5709,7.5709,7.5709,7.5709,7.5709,7.5709,7.5709,7.5709,7.5709,7.5709,7.5709,7.5709,7.5709,7.5709,7.5709,7.5709,7.5709,7.5709,7.5709,7.5709,7.5709,7.5709,7.5709,7.5709,7.5709,7.5709,7.5709,7.5709,7.5709,7.5709,7.5709,7.5709,7.5709,7.5709,7.5709,7.5709,7.5709,7.5642,7.5405,7.5788,7.6279,7.6856,0.0,7.8842,7.9113,7.963,7.968,7.9054,7.8705,7.8425,7.8279,7.7897,0.0,0.0,8.2219,8.3266,8.573,8.5939,8.6297,8.6986,8.6986,8.6986,8.6986,8.6986,8.6986,8.6986,8.6986,8.6986,8.6986,8.6986,8.6986,8.6986,8.6986,8.6986,8.6986,8.6986,8.6986,8.6986,8.6986,8.6986,8.6986,7.1165,7.1233,7.13,7.13,7.13,7.13,7.13,7.13,7.13,7.13,7.1402,7.1436,7.1289,7.1402,7.1436,7.1289,7.13,7.13,7.13,7.1977,7.2732,7.3454,7.4221,7.5258,7.669,7.6724,7.6082,7.4784,7.527,7.527,7.4784,7.5303,7.5574,7.5709,7.5709,7.5709,7.5709,7.5709,7.5709,7.5709,7.5709,7.5709,7.5709,7.5709,7.5709,7.5709,7.5709,7.5709,7.5709,7.5709,7.5709,7.5709,7.5709,7.5709,7.5709,7.5709,7.5709,7.5709,7.5709,7.5709,7.5709,7.5709,7.5709,7.5709,7.5709,7.5709,7.5709,7.5709,7.5709,7.5709,7.5709,7.5709,7.527,7.403,7.5114,7.5944,7.5425,0.0,7.8238,8.0032,7.9384,7.8823,7.8973,7.8705,7.8109,7.7232,7.8442,7.9894,8.1409,8.2907,8.4364,8.5766,8.6444,8.6876,8.6986,8.6986,8.6986,8.6986,8.6986,8.6986,8.6986,8.6986,8.6986,8.6986,8.6986,8.6986,8.6986,8.6986,8.6986,8.6986,8.6986,8.6986,8.6986,8.6986,8.6986,8.6986,7.1233,7.13,7.13,7.13,7.13,7.13,7.13,7.13,7.13,7.13,7.13,7.1436,7.1842,7.1875,7.2056,7.2462,7.2496,7.2496,7.2496,7.28,7.3488,7.4639,7.4999,7.554,7.6251,7.6251,7.5912,7.5202,7.554,7.554,7.5202,7.554,7.5709,7.5709,7.5709,7.5709,7.5709,7.5709,7.5709,7.5709,7.5709,7.5709,7.5709,7.5709,7.5709,7.5709,7.5709,7.5709,7.5709,7.5709,7.5709,7.5709,7.5709,7.5709,7.5709,7.5709,7.5709,7.5709,7.5709,7.5709,7.5709,7.5709,7.5709,7.5709,7.5709,7.5709,7.5709,7.5709,7.5709,7.5709,7.5709,7.5709,7.5337,7.4255,7.5205,0.0,0.0,7.5944,7.725,7.8863,7.784,7.7284,7.8016,7.7416,7.6981,7.6908,7.7659,7.9257,8.1799,8.2791,8.4227,8.6365,8.6803,8.6986,8.6986,8.6986,8.6986,8.6986,8.6986,8.6986,8.6986,8.6986,8.6986,8.6986,8.6986,8.6986,8.6986,8.6986,8.6986,8.6986,8.6986,8.6986,8.6986,8.6986,8.6986,8.6986,7.1131,7.1436,7.1571,7.1571,7.1571,7.1571,7.1571,7.1571,7.1571,7.1571,7.1706,7.2011,7.2597,7.2665,7.2879,7.3454,7.3488,7.3556,7.3759,7.3759,7.4266,7.5405,7.5777,7.5879,7.5709,7.5879,7.5879,7.5709,7.5709,7.5709,7.5709,7.5709,7.5709,7.5709,7.5709,7.5709,7.5709,7.5709,7.5709,7.5709,7.5709,7.5709,7.5709,7.5709,7.5709,7.5709,7.5709,7.5709,7.5709,7.5709,7.5709,7.5709,7.5709,7.5709,7.5743,7.5912,7.6082,7.6195,7.6014,7.6082,7.6217,7.6217,7.6217,7.6183,7.6014,7.598,7.598,7.598,7.598,7.598,7.598,7.598,7.5608,7.4514,0.0,0.0,0.0,7.5608,7.6624,7.8056,7.6871,7.6477,7.7712,7.6847,7.6487,7.7096,7.7556,7.9178,8.234,8.2896,8.4319,8.6934,8.6986,8.6986,8.6986,8.6986,8.6986,8.6986,8.6986,8.6986,8.6986,8.6986,8.6986,8.6986,8.6986,8.6986,8.6986,8.6986,8.6986,8.6986,8.6986,8.6986,8.6986,8.6986,8.6986,8.6986,7.103,7.1842,7.2326,7.2326,7.2326,7.2326,7.2326,7.2326,7.2326,7.2326,7.2913,7.3353,7.3421,7.3421,7.3454,7.3488,7.3488,7.3793,7.448,7.4514,7.4581,7.4683,7.6048,7.6454,7.5709,7.642,7.6454,7.5709,7.5709,7.5709,7.5709,7.5709,7.5709,7.5709,7.5709,7.5709,7.5709,7.5709,7.5709,7.5709,7.5709,7.5709,7.5709,7.5709,7.5709,7.5709,7.5709,7.5709,7.5709,7.5709,7.5709,7.5709,7.5709,7.5709,7.5845,7.6589,7.7312,7.7684,7.6995,7.7312,7.7819,7.7819,7.7819,7.765,7.6961,7.6826,7.6826,7.6826,7.6826,7.6826,7.6826,7.6826,7.6082,7.3928,0.0,0.0,7.4771,7.549,7.6946,7.9194,7.7909,7.7487,7.9268,7.8441,7.7853,7.7921,7.9516,8.1103,8.2417,8.4131,8.5677,8.6952,8.6986,8.6986,8.6986,8.6986,8.6986,8.6986,8.6986,8.6986,8.6986,8.6986,8.6986,8.6986,8.6986,8.6986,8.6986,8.6986,8.6986,8.6986,8.6986,8.6986,8.6986,8.6986,8.6986,8.6986,7.1465,7.2225,7.2529,7.3015,7.3082,7.3082,7.3082,7.3082,7.3082,7.3082,7.3319,7.3657,7.4119,7.4187,7.4356,7.4808,7.4864,7.4965,7.527,7.527,7.527,7.527,7.6318,7.6521,7.5709,7.598,7.6014,7.5709,7.5709,7.5709,7.5709,7.5709,7.5709,7.5709,7.5709,7.5709,7.5709,7.5709,7.5709,7.5709,7.5709,7.5709,7.5709,7.5709,7.5709,7.5709,7.5709,7.5709,7.5709,7.5709,7.5709,7.5777,7.6284,7.6454,7.6589,7.7367,7.8111,7.8619,7.8336,7.8145,7.7988,7.7988,7.7988,7.7921,7.765,7.7582,7.7582,7.7582,7.7582,7.7582,7.7582,7.7198,7.6454,7.51,0.0,7.5547,7.4708,7.576,7.7182,7.8737,7.8135,7.81,7.9476,7.8612,7.8191,7.8653,7.9357,8.0743,8.3051,8.5191,8.6544,8.6969,8.6986,8.6986,8.6986,8.6986,8.6986,8.6986,8.6986,8.6986,8.6986,8.6986,8.6986,8.6986,8.6986,8.6986,8.6986,8.6986,8.6986,8.6986,8.6986,8.6986,8.6986,8.6986,8.6986,8.6986,7.1449,7.2625,7.324,7.3759,7.386,7.386,7.386,7.386,7.386,7.386,7.4063,7.439,7.4897,7.4953,7.5168,7.5676,7.5709,7.5709,7.5709,7.5709,7.5709,7.5709,7.6217,7.6251,7.5709,7.5709,7.5709,7.5709,7.5709,7.5709,7.5709,7.5709,7.5709,7.5709,7.5709,7.5709,7.5709,7.5709,7.5709,7.5709,7.5709,7.5709,7.5709,7.5709,7.5709,7.5709,7.5709,7.5709,7.5709,7.5709,7.5879,7.6183,7.6724,7.7232,7.7705,7.8213,7.8855,7.9452,7.9452,7.9092,7.8699,7.8699,7.8699,7.8631,7.8382,7.836,7.836,7.836,7.836,7.836,7.836,7.7739,7.6995,7.6183,7.5845,7.5608,7.5359,7.6217,7.7354,7.8545,7.8476,7.8725,7.9701,7.9133,7.8889,7.9431,7.9781,8.1204,8.3995,8.5963,8.6986,8.6986,8.6986,8.6986,8.6986,8.6986,8.6986,8.6986,8.6986,8.6986,8.6986,8.6986,8.6986,8.6986,8.6986,8.6986,8.6986,8.6986,8.6986,8.6986,8.6986,8.6986,8.6986,8.6986,8.6986,8.6986,7.0891,7.3071,7.4615,7.4603,7.4603,7.4615,7.4615,7.4615,7.4615,7.4615,7.5236,7.5709,7.5709,7.5709,7.5709,7.5709,7.5709,7.5709,7.5709,7.5709,7.5709,7.5709,7.5709,7.5709,7.5709,7.5709,7.5709,7.5709,7.5709,7.5709,7.5709,7.5709,7.5709,7.5709,7.5709,7.5709,7.5709,7.5709,7.5709,7.5709,7.5709,7.5709,7.5709,7.5709,7.5709,7.5709,7.5709,7.5709,7.5709,7.5709,7.6251,7.6927,7.6927,7.793,7.9114,7.9114,7.9621,8.0209,8.0209,8.0209,8.0209,8.0209,8.0209,8.0006,7.9283,7.9114,7.9114,7.9114,7.9114,7.9114,7.9114,7.8517,7.7785,7.7029,7.6217,7.598,7.6792,7.6893,7.7456,7.8945,7.9114,7.9384,8.0141,8.0209,8.0209,8.0209,8.1247,8.2881,8.5172,8.6365,8.6986,8.6986,8.6986,8.6986,8.6986,8.6986,8.6986,8.6986,8.6986,8.6986,8.6986,8.6986,8.6986,8.6986,8.6986,8.6986,8.6986,8.6986,8.6986,8.6986,8.6986,8.6986,8.6986,8.6986,8.6986,8.6986,7.0387,7.2759,7.4432,7.3982,7.4716,7.5371,7.5371,7.5371,7.5371,7.5371,7.5574,7.5709,7.5709,7.5709,7.5709,7.5709,7.5709,7.5709,7.5709,7.5709,7.5709,7.5709,7.5709,7.5709,7.5709,7.5709,7.5709,7.5709,7.5709,7.5709,7.5709,7.5709,7.5709,7.5709,7.5709,7.5709,7.5709,7.5709,7.5709,7.5709,7.5709,7.5709,7.5709,7.5709,7.5709,7.5709,7.5709,7.6048,7.6555,7.6555,7.7041,7.7751,7.8268,7.9092,7.987,7.987,8.004,8.0209,8.0209,8.0209,8.0209,8.0209,8.0209,8.0141,7.9938,7.987,7.987,7.987,7.987,7.987,7.987,7.9261,7.8517,7.7785,7.7029,7.6623,7.686,7.7345,7.801,7.8978,7.9553,7.9972,8.0175,8.0209,8.0209,8.0209,8.2014,8.3407,8.4083,8.5954,8.6986,8.6986,8.6986,8.6986,8.6986,8.6986,8.6986,8.6986,8.6986,8.6986,8.6986,8.6986,8.6986,8.6986,8.6986,8.6986,8.6986,8.6986,8.6986,8.6986,8.6986,8.6986,8.6986,8.6986,8.6986,8.6986,6.9732,7.2208,7.4088,7.3678,7.4761,7.5709,7.5709,7.5709,7.5709,7.5709,7.5709,7.5709,7.5709,7.5709,7.5709,7.5709,7.5709,7.5709,7.5709,7.5709,7.5709,7.5709,7.5709,7.5709,7.5709,7.5709,7.5709,7.5709,7.5709,7.5709,7.5709,7.5709,7.5709,7.5709,7.5709,7.5709,7.5709,7.5709,7.5709,7.5709,7.5709,7.5709,7.5709,7.5709,7.5709,7.5743,7.6048,7.6487,7.6927,7.7244,7.7819,7.8551,7.9283,7.9837,8.0209,8.0209,8.0209,8.0209,8.0209,8.0209,8.0209,8.0209,8.0209,8.0209,8.0209,8.0209,8.0209,8.0209,8.0209,8.0209,8.0209,7.9363,7.8517,7.8056,7.7379,7.6995,7.7299,7.7976,7.872,7.9464,7.9938,8.0209,8.0209,8.0209,8.0209,8.0209,8.2312,8.361,8.361,8.5759,8.6986,8.6986,8.6986,8.6986,8.6986,8.6986,8.6986,8.6986,8.6986,8.6986,8.6986,8.6986,8.6986,8.6986,8.6986,8.6986,8.6986,8.6986,8.6986,8.6986,8.6986,8.6986,8.6986,8.6986,8.6986,8.6986,6.9077,7.1596,7.3612,7.3592,7.4761,7.5709,7.5709,7.5709,7.5709,7.5709,7.5709,7.5709,7.5709,7.5709,7.5709,7.5709,7.5709,7.5709,7.5709,7.5709,7.5709,7.5709,7.5709,7.5709,7.5709,7.5709,7.5709,7.5709,7.5709,7.5709,7.5709,7.5709,7.5709,7.5709,7.5709,7.5709,7.5709,7.5709,7.5709,7.5709,7.5709,7.5709,7.5709,7.5777,7.5811,7.5912,7.6724,7.7029,7.7198,7.7954,7.8653,7.9317,8.0006,8.0209,8.0209,8.0209,8.0209,8.0209,8.0209,8.0209,8.0209,8.0209,8.0209,8.0209,8.0209,8.0209,8.0209,8.0209,8.0209,8.0209,8.0209,7.9105,7.8191,7.8124,7.7536,7.7333,7.7988,7.8686,7.9384,8.0107,8.0209,8.0209,8.0209,8.0209,8.0209,8.0209,8.2312,8.361,8.361,8.5759,8.6986,8.6986,8.6986,8.6986,8.6986,8.6986,8.6986,8.6986,8.6986,8.6986,8.6986,8.6986,8.6986,8.6986,8.6986,8.6986,8.6986,8.6986,8.6986,8.6986,8.6986,8.6986,8.6986,8.6986,8.6986,8.6986,6.917,7.1578,7.3592,7.3612,7.4749,7.5709,7.5709,7.5709,7.5709,7.5709,7.5709,7.5709,7.5709,7.5709,7.5709,7.5709,7.5709,7.5709,7.5709,7.5709,7.5709,7.5709,7.5709,7.5709,7.5709,7.5709,7.5709,7.5709,7.5709,7.5709,7.5709,7.5709,7.5709,7.5709,7.5709,7.5709,7.5709,7.5709,7.5709,7.5709,7.5709,7.5709,7.5777,7.6386,7.6657,7.6724,7.7481,7.8145,7.8742,7.9464,7.9837,8.0006,8.0141,8.0209,8.0209,8.0209,8.0209,8.0209,8.0209,8.0209,8.0209,8.0209,8.0209,8.0209,8.0209,8.0209,8.0209,8.0209,8.0209,8.0209,8.0209,7.9938,7.9532,7.8957,7.8742,7.8674,7.8843,7.9012,7.9384,8.0107,8.0209,8.0209,8.0209,8.0209,8.0209,8.0209,8.2312,8.361,8.361,8.5759,8.6986,8.6986,8.6986,8.6986,8.6986,8.6986,8.6986,8.6986,8.6986,8.6986,8.6986,8.6986,8.6986,8.6986,8.6986,8.6986,8.6986,8.6986,8.6986,8.6986,8.6986,8.6986,8.6986,8.6986,8.6986,8.6986,6.9056,7.1004,7.277,7.3476,7.4761,7.5709,7.5709,7.5709,7.5709,7.5709,7.5709,7.5709,7.5709,7.5709,7.5709,7.5709,7.5709,7.5709,7.5709,7.5709,7.5709,7.5709,7.5709,7.5709,7.5709,7.5709,7.5709,7.5709,7.5709,7.5709,7.5709,7.5709,7.5709,7.5709,7.5709,7.5709,7.5709,7.5709,7.5709,7.5709,7.5709,7.5709,7.5777,7.6589,7.6893,7.7029,7.8145,7.8991,7.9689,8.0073,8.0209,8.0209,8.0209,8.0209,8.0209,8.0209,8.0209,8.0209,8.0209,8.0209,8.0209,8.0209,8.0209,8.0209,8.0209,8.0209,8.0209,8.0209,8.0209,8.0209,8.0209,7.9904,7.9566,7.9147,7.9114,7.9114,7.9114,7.9384,7.9769,8.0141,8.0209,8.0209,8.0209,8.0209,8.0209,8.0209,8.1805,8.3038,8.3589,8.5266,8.6455,8.6969,8.6986,8.6986,8.6986,8.6986,8.6986,8.6986,8.6986,8.6986,8.6986,8.6986,8.6986,8.6986,8.6986,8.6986,8.6986,8.6986,8.6986,8.6986,8.6986,8.6986,8.6986,8.6986,8.6986,8.6986,6.8927,7.0185,7.1483,7.2966,7.4206,7.5064,7.5316,7.5352,7.5436,7.5686,7.5709,7.5709,7.5709,7.5709,7.5709,7.5709,7.5709,7.5709,7.5709,7.5709,7.5709,7.5709,7.5709,7.5709,7.5709,7.5709,7.5709,7.5709,7.5709,7.5709,7.5709,7.5709,7.5709,7.5709,7.5709,7.5709,7.5709,7.5709,7.5709,7.5709,7.5709,7.5777,7.598,7.6792,7.7164,7.7456,7.8809,7.9689,8.0209,8.0209,8.0209,8.0209,8.0209,8.0209,8.0209,8.0209,8.0209,8.0209,8.0209,8.0209,8.0209,8.0209,8.0209,8.0209,8.0209,8.0209,8.0209,8.0209,8.0209,8.0209,8.0209,7.9689,7.9283,7.9283,7.9283,7.9283,7.9283,7.9803,8.0209,8.0209,8.0209,8.0209,8.0209,8.0209,8.0209,8.0209,8.127,8.2289,8.3277,8.4573,8.574,8.6687,8.6899,8.6986,8.6986,8.6986,8.6986,8.6986,8.6986,8.6986,8.6986,8.6986,8.6986,8.6986,8.6986,8.6986,8.6986,8.6986,8.6986,8.6986,8.6986,8.6986,8.6986,8.6986,8.6986,8.6986,6.8927,6.9375,6.9959,7.1429,7.1848,7.2427,7.3688,7.3892,7.4319,7.5532,7.5709,7.5709,7.5709,7.5709,7.5709,7.5709,7.5709,7.5709,7.5709,7.5709,7.5709,7.5709,7.5709,7.5709,7.5709,7.5709,7.5709,7.5709,7.5709,7.5709,7.5709,7.5709,7.5709,7.5709,7.5709,7.5709,7.5709,7.5709,7.5709,7.5709,7.5709,7.6115,7.6826,7.7582,7.8247,7.8911,7.9769,8.0107,8.0209,8.0209,8.0209,8.0209,8.0209,8.0209,8.0209,8.0209,8.0209,8.0209,8.0209,8.0209,8.0209,8.0209,8.0209,8.0209,8.0209,8.0209,8.0209,8.0209,8.0209,8.0209,8.0209,8.0107,8.004,8.004,8.004,8.004,8.004,8.0141,8.0209,8.0209,8.0209,8.0209,8.0209,8.0209,8.0209,8.0209,8.127,8.1956,8.2129,8.414,8.5355,8.5525,8.6491,8.6986,8.6986,8.6986,8.6986,8.6986,8.6986,8.6986,8.6986,8.6986,8.6986,8.6986,8.6986,8.6986,8.6986,8.6986,8.6986,8.6986,8.6986,8.6986,8.6986,8.6986,8.6986,8.6986,6.8927,6.9201,6.9659,7.1128,7.1388,7.1907,7.3374,7.3612,7.4093,7.5508,7.5709,7.5709,7.5709,7.5709,7.5709,7.5709,7.5709,7.5709,7.5709,7.5709,7.5709,7.5709,7.5709,7.5709,7.5709,7.5709,7.5709,7.5709,7.5709,7.5709,7.5709,7.5709,7.5709,7.5709,7.5709,7.5709,7.5743,7.6183,7.6352,7.642,7.6826,7.721,7.7582,7.8314,7.8822,7.9181,7.9938,8.0209,8.0209,8.0209,8.0209,8.0209,8.0209,8.0209,8.0209,8.0209,8.0209,8.0209,8.0209,8.0209,8.0209,8.0209,8.0209,8.0209,8.0209,8.0209,8.0209,8.0209,8.0209,8.0209,8.0209,8.0209,8.0209,8.0209,8.0209,8.0209,8.0209,8.0209,8.0209,8.0209,8.0209,8.0209,8.0209,8.0209,8.0209,8.0209,8.0656,8.1246,8.1852,8.3447,8.4643,8.5269,8.6428,8.6986,8.6986,8.6986,8.6986,8.6986,8.6986,8.6986,8.6986,8.6986,8.6986,8.6986,8.6986,8.6986,8.6986,8.6986,8.6986,8.6986,8.6986,8.6986,8.6986,8.6986,8.6986,8.6986]},{"header":{"parameterUnit":"m.s-1","parameterCategory":1,"la1":30.6,"la2":28.766,"lo1":-90.7593,"lo2":-88.6598,"dx":0.0162,"dy":0.0183,"nx":116,"ny":114,"refTime":"2022-11-13T06:00:00:Z","depth":0,"parameterNumber":3,"parameterNumberName":"V-component_of_WINDS"},"data":[0.0,0.0,0.0,0.0,0.0,0.0,0.0,0.0,0.0,0.0,0.0,0.0,0.0,0.0,0.0,0.0,0.0,0.0,0.0,0.0,0.0,0.0,0.0,0.0,0.0,0.0,0.0,0.0,0.0,0.0,0.0,0.0,0.0,0.0,0.0,0.0,0.0,0.0,0.0,0.0,0.0,0.0,0.0,0.0,0.0,0.0,0.0,0.0,0.0,0.0,0.0,0.0,0.0,0.0,0.0,0.0,0.0,0.0,0.0,0.0,0.0,0.0,0.0,0.0,0.0,0.0,0.0,0.0,0.0,0.0,0.0,0.0,0.0,0.0,0.0,0.0,0.0,0.0,0.0,0.0,0.0,0.0,0.0,0.0,0.0,0.0,0.0,0.0,0.0,0.0,0.0,0.0,0.0,0.0,0.0,0.0,0.0,0.0,0.0,0.0,0.0,0.0,0.0,0.0,0.0,0.0,0.0,0.0,0.0,0.0,0.0,0.0,0.0,0.0,0.0,0.0,0.0,0.0,0.0,0.0,0.0,0.0,0.0,0.0,0.0,0.0,0.0,0.0,0.0,0.0,0.0,0.0,0.0,0.0,0.0,0.0,0.0,0.0,0.0,0.0,0.0,0.0,0.0,0.0,0.0,0.0,0.0,0.0,0.0,0.0,0.0,0.0,0.0,0.0,0.0,0.0,0.0,0.0,0.0,0.0,0.0,0.0,0.0,0.0,0.0,0.0,0.0,0.0,0.0,0.0,0.0,0.0,0.0,0.0,0.0,0.0,0.0,0.0,0.0,0.0,0.0,0.0,0.0,0.0,0.0,0.0,0.0,0.0,0.0,0.0,0.0,0.0,0.0,0.0,0.0,0.0,0.0,0.0,0.0,0.0,0.0,0.0,0.0,0.0,0.0,0.0,0.0,0.0,0.0,0.0,0.0,0.0,0.0,0.0,0.0,0.0,0.0,0.0,0.0,0.0,0.0,0.0,0.0,0.0,0.0,0.0,0.0,0.0,0.0,0.0,0.0,0.0,0.0,0.0,0.0,0.0,0.0,0.0,0.0,0.0,0.0,0.0,0.0,0.0,0.0,0.0,0.0,0.0,0.0,0.0,0.0,0.0,0.0,0.0,0.0,0.0,0.0,0.0,0.0,0.0,0.0,0.0,0.0,0.0,0.0,0.0,0.0,0.0,0.0,0.0,0.0,0.0,0.0,0.0,0.0,0.0,0.0,0.0,0.0,0.0,0.0,0.0,0.0,0.0,0.0,0.0,0.0,0.0,0.0,0.0,0.0,0.0,0.0,0.0,0.0,0.0,0.0,0.0,0.0,0.0,0.0,0.0,0.0,0.0,0.0,0.0,0.0,0.0,0.0,0.0,0.0,0.0,0.0,0.0,0.0,0.0,0.0,0.0,0.0,0.0,0.0,0.0,0.0,0.0,0.0,0.0,0.0,0.0,0.0,0.0,0.0,0.0,0.0,0.0,0.0,0.0,0.0,0.0,0.0,0.0,0.0,0.0,0.0,0.0,0.0,0.0,0.0,0.0,0.0,0.0,0.0,0.0,0.0,0.0,0.0,0.0,0.0,0.0,0.0,0.0,0.0,0.0,0.0,0.0,0.0,0.0,0.0,0.0,0.0,0.0,0.0,0.0,0.0,0.0,0.0,0.0,0.0,0.0,0.0,0.0,0.0,0.0,0.0,0.0,0.0,0.0,0.0,0.0,0.0,0.0,0.0,0.0,0.0,0.0,0.0,0.0,0.0,0.0,0.0,0.0,0.0,0.0,0.0,0.0,0.0,0.0,0.0,0.0,0.0,0.0,0.0,0.0,0.0,0.0,0.0,0.0,0.0,0.0,0.0,0.0,0.0,0.0,0.0,0.0,0.0,0.0,0.0,0.0,0.0,0.0,0.0,0.0,0.0,0.0,0.0,0.0,0.0,0.0,0.0,0.0,0.0,0.0,0.0,0.0,0.0,0.0,0.0,0.0,0.0,0.0,0.0,0.0,0.0,0.0,0.0,0.0,0.0,0.0,0.0,0.0,0.0,0.0,0.0,0.0,0.0,0.0,0.0,0.0,0.0,0.0,0.0,0.0,0.0,0.0,0.0,0.0,0.0,0.0,0.0,0.0,0.0,0.0,0.0,0.0,0.0,0.0,0.0,0.0,0.0,0.0,0.0,0.0,0.0,0.0,0.0,0.0,0.0,0.0,0.0,0.0,0.0,0.0,0.0,0.0,0.0,0.0,0.0,0.0,0.0,0.0,0.0,0.0,0.0,0.0,0.0,0.0,0.0,0.0,0.0,0.0,0.0,0.0,0.0,0.0,0.0,0.0,0.0,0.0,0.0,0.0,0.0,0.0,0.0,0.0,0.0,0.0,0.0,0.0,0.0,0.0,0.0,0.0,0.0,0.0,0.0,0.0,0.0,0.0,0.0,0.0,0.0,0.0,0.0,0.0,0.0,0.0,0.0,0.0,0.0,0.0,0.0,0.0,0.0,0.0,0.0,0.0,0.0,0.0,0.0,0.0,0.0,0.0,0.0,0.0,0.0,0.0,0.0,0.0,0.0,0.0,0.0,0.0,0.0,0.0,0.0,0.0,0.0,0.0,0.0,0.0,0.0,0.0,0.0,0.0,0.0,0.0,0.0,0.0,0.0,0.0,0.0,0.0,0.0,0.0,0.0,0.0,0.0,0.0,0.0,0.0,0.0,0.0,0.0,0.0,0.0,0.0,0.0,0.0,0.0,0.0,0.0,0.0,0.0,0.0,0.0,0.0,0.0,0.0,0.0,0.0,0.0,0.0,0.0,0.0,0.0,0.0,0.0,0.0,0.0,0.0,0.0,0.0,0.0,0.0,0.0,0.0,0.0,0.0,0.0,0.0,0.0,0.0,0.0,0.0,0.0,0.0,0.0,0.0,0.0,0.0,0.0,0.0,0.0,0.0,0.0,0.0,0.0,0.0,0.0,0.0,0.0,0.0,0.0,0.0,0.0,0.0,0.0,0.0,0.0,0.0,0.0,0.0,0.0,0.0,0.0,0.0,0.0,0.0,0.0,0.0,0.0,0.0,0.0,0.0,0.0,0.0,0.0,0.0,0.0,0.0,0.0,0.0,0.0,0.0,0.0,0.0,0.0,0.0,0.0,0.0,0.0,0.0,0.0,0.0,0.0,0.0,0.0,0.0,0.0,0.0,0.0,0.0,0.0,0.0,0.0,0.0,0.0,0.0,0.0,0.0,0.0,0.0,0.0,0.0,0.0,0.0,0.0,0.0,0.0,0.0,0.0,0.0,0.0,0.0,0.0,0.0,0.0,0.0,0.0,0.0,0.0,0.0,0.0,0.0,0.0,0.0,0.0,0.0,0.0,0.0,0.0,0.0,0.0,0.0,0.0,0.0,0.0,0.0,0.0,0.0,0.0,0.0,0.0,0.0,0.0,0.0,0.0,0.0,0.0,0.0,0.0,0.0,0.0,0.0,0.0,0.0,0.0,0.0,0.0,0.0,0.0,0.0,0.0,0.0,0.0,0.0,0.0,0.0,0.0,0.0,0.0,0.0,0.0,0.0,0.0,0.0,0.0,0.0,0.0,0.0,0.0,0.0,0.0,0.0,0.0,0.0,0.0,0.0,0.0,0.0,0.0,0.0,0.0,0.0,0.0,0.0,0.0,0.0,0.0,0.0,0.0,0.0,0.0,0.0,0.0,0.0,0.0,0.0,0.0,0.0,0.0,0.0,0.0,0.0,0.0,0.0,0.0,0.0,0.0,0.0,0.0,0.0,0.0,0.0,0.0,0.0,0.0,0.0,0.0,0.0,0.0,0.0,0.0,0.0,0.0,0.0,0.0,0.0,0.0,0.0,0.0,0.0,0.0,0.0,0.0,0.0,0.0,0.0,0.0,0.0,0.0,0.0,0.0,0.0,0.0,0.0,0.0,0.0,0.0,0.0,0.0,0.0,0.0,0.0,0.0,0.0,0.0,0.0,0.0,0.0,0.0,0.0,0.0,0.0,0.0,0.0,0.0,0.0,0.0,0.0,0.0,0.0,0.0,0.0,0.0,0.0,0.0,0.0,0.0,0.0,0.0,0.0,0.0,0.0,0.0,0.0,0.0,0.0,0.0,0.0,0.0,0.0,0.0,0.0,0.0,0.0,0.0,0.0,0.0,0.0,0.0,0.0,0.0,0.0,0.0,0.0,0.0,0.0,0.0,0.0,0.0,0.0,0.0,0.0,0.0,0.0,0.0,0.0,0.0,0.0,0.0,0.0,0.0,0.0,0.0,0.0,0.0,0.0,0.0,0.0,0.0,0.0,0.0,0.0,0.0,0.0,0.0,0.0,0.0,0.0,0.0,0.0,0.0,0.0,0.0,0.0,0.0,0.0,0.0,0.0,0.0,0.0,0.0,0.0,0.0,0.0,0.0,0.0,0.0,0.0,0.0,0.0,0.0,0.0,0.0,0.0,0.0,0.0,0.0,0.0,0.0,0.0,0.0,0.0,0.0,0.0,0.0,0.0,0.0,0.0,0.0,0.0,0.0,0.0,0.0,0.0,0.0,0.0,0.0,0.0,0.0,0.0,0.0,0.0,0.0,0.0,0.0,0.0,0.0,0.0,0.0,0.0,0.0,0.0,0.0,0.0,0.0,0.0,0.0,0.0,0.0,0.0,0.0,0.0,0.0,0.0,0.0,0.0,0.0,0.0,0.0,0.0,0.0,0.0,0.0,0.0,0.0,0.0,0.0,0.0,0.0,0.0,0.0,0.0,0.0,0.0,0.0,0.0,0.0,0.0,0.0,0.0,0.0,0.0,0.0,0.0,0.0,0.0,0.0,0.0,0.0,0.0,0.0,0.0,0.0,0.0,0.0,0.0,0.0,0.0,0.0,0.0,0.0,0.0,0.0,0.0,0.0,0.0,0.0,0.0,0.0,0.0,0.0,0.0,0.0,0.0,0.0,0.0,0.0,0.0,0.0,0.0,0.0,0.0,0.0,0.0,0.0,0.0,0.0,0.0,0.0,0.0,0.0,0.0,0.0,0.0,0.0,0.0,0.0,0.0,0.0,0.0,0.0,0.0,0.0,0.0,0.0,0.0,0.0,0.0,0.0,0.0,0.0,0.0,0.0,0.0,0.0,0.0,0.0,0.0,0.0,0.0,0.0,0.0,0.0,0.0,0.0,0.0,0.0,0.0,0.0,0.0,0.0,0.0,0.0,0.0,0.0,0.0,0.0,0.0,0.0,0.0,0.0,0.0,0.0,0.0,0.0,0.0,0.0,0.0,0.0,0.0,0.0,0.0,0.0,0.0,0.0,0.0,0.0,0.0,0.0,0.0,0.0,0.0,0.0,0.0,0.0,0.0,0.0,0.0,0.0,0.0,0.0,0.0,0.0,0.0,0.0,0.0,0.0,0.0,0.0,0.0,0.0,0.0,0.0,0.0,0.0,0.0,0.0,0.0,0.0,0.0,0.0,0.0,0.0,0.0,0.0,0.0,0.0,0.0,0.0,0.0,0.0,0.0,0.0,0.0,0.0,0.0,0.0,0.0,0.0,0.0,0.0,0.0,0.0,0.0,0.0,0.0,0.0,0.0,0.0,0.0,0.0,0.0,0.0,0.0,0.0,0.0,0.0,0.0,0.0,0.0,0.0,0.0,0.0,0.0,0.0,0.0,0.0,0.0,0.0,0.0,0.0,0.0,0.0,0.0,0.0,0.0,0.0,0.0,0.0,0.0,0.0,0.0,0.0,0.0,0.0,0.0,0.0,0.0,0.0,0.0,0.0,0.0,0.0,0.0,0.0,0.0,0.0,0.0,0.0,0.0,0.0,0.0,0.0,0.0,0.0,0.0,0.0,0.0,0.0,0.0,0.0,0.0,0.0,0.0,0.0,0.0,0.0,0.0,0.0,0.0,0.0,0.0,0.0,0.0,0.0,0.0,0.0,0.0,0.0,0.0,0.0,0.0,0.0,0.0,0.0,0.0,0.0,0.0,0.0,0.0,0.0,0.0,0.0,0.0,0.0,0.0,0.0,0.0,0.0,0.0,0.0,0.0,0.0,0.0,0.0,0.0,0.0,0.0,0.0,0.0,0.0,0.0,0.0,0.0,0.0,0.0,0.0,0.0,1.0139,0.0,0.0,0.0,0.0,0.0,0.0,0.0,0.0,0.0,0.0,0.0,0.0,0.0,0.0,0.0,0.0,0.0,0.0,0.0,0.0,0.0,0.0,0.0,0.0,1.2258,1.2518,1.2657,1.2381,0.0,0.0,0.0,0.0,0.0,0.0,0.0,0.7042,0.6942,0.6999,0.724,0.8151,0.9641,1.1626,1.0575,1.0543,1.138,0.0,0.0,0.0,0.0,0.0,0.0,0.0,0.0,0.0,0.0,0.0,0.0,0.0,0.0,0.0,0.0,0.0,0.0,0.0,0.0,0.0,0.0,0.0,0.0,0.0,0.0,0.0,0.0,0.0,0.0,0.0,0.0,0.0,0.0,0.0,0.0,0.0,0.0,0.0,0.0,0.0,0.0,0.0,0.0,0.0,0.0,0.0,0.0,0.0,0.0,0.0,0.0,0.0,0.0,0.0,0.0,0.0,0.0,0.0,0.0,0.0,0.0,0.0,0.0,0.0,0.0,0.0,0.0,0.0,0.0,0.0,1.0274,0.0,0.0,0.0,0.0,0.0,0.0,0.0,0.0,0.0,0.0,0.0,0.0,0.0,0.0,0.0,0.0,0.0,0.0,0.0,0.0,0.0,1.1424,1.2787,1.2657,1.2488,1.2604,1.2092,1.2131,1.295,1.0999,0.0,0.0,0.0,0.0,0.743,0.7274,0.748,0.8087,0.9943,1.1851,1.3778,1.3789,1.4171,1.4826,1.3708,0.0,0.0,0.0,0.0,0.0,0.0,0.0,0.0,0.0,0.0,0.0,0.0,0.0,0.0,0.0,0.0,0.0,0.0,0.0,0.0,0.0,0.0,0.0,0.0,0.0,0.0,0.0,0.0,0.0,0.0,0.0,0.0,0.0,0.0,0.0,0.0,0.0,0.0,0.0,0.0,0.0,0.0,0.0,0.0,0.0,0.0,0.0,0.0,0.0,0.0,0.0,0.0,0.0,0.0,0.0,0.0,0.0,0.0,0.0,0.0,0.0,0.0,0.0,1.0992,1.1056,1.0985,1.1264,1.1307,1.1178,1.1012,1.1036,1.1159,0.0,0.0,0.0,0.0,0.0,0.0,0.0,0.0,0.0,0.0,0.0,0.0,0.0,0.0,0.0,0.0,0.0,0.0,0.0,0.0,1.244,1.3387,1.3699,1.4046,1.4568,1.4541,1.406,1.3075,1.2791,0.0,0.0,0.0,0.8671,0.7593,0.755,0.8354,1.0036,1.2296,1.4322,1.6054,1.5846,1.6513,1.7778,1.4675,1.3589,1.4074,0.0,0.0,0.0,0.0,0.0,0.0,0.0,0.0,0.0,0.0,0.0,0.0,0.0,0.0,0.0,0.0,0.0,0.0,0.0,0.0,0.0,0.0,0.0,0.0,0.0,0.0,0.0,0.0,0.0,0.0,0.0,0.0,0.0,0.0,0.0,0.0,0.0,0.0,0.0,0.0,0.0,0.8838,0.9287,0.0,0.0,0.0,0.0,0.0,0.0,0.0,0.0,0.0,0.0,0.0,0.0,0.0,0.0,1.1104,1.1223,1.1402,1.1635,1.183,1.1991,1.2081,1.2121,1.2196,1.2284,1.2025,0.0,1.12,1.1237,0.0,0.0,0.0,0.0,0.0,0.0,0.0,0.0,0.0,0.0,0.0,0.0,0.0,0.0,0.0,0.0,0.0,0.0,0.0,0.0,0.0,1.3828,1.4151,1.4573,1.4267,1.4033,1.4002,1.315,0.0,0.0,0.9917,0.8937,0.7743,0.7789,0.9408,1.2659,1.4665,1.6653,1.8577,1.846,1.878,1.9394,1.7867,1.6679,1.5782,1.4826,0.0,0.0,0.0,0.0,0.0,0.0,0.0,0.0,0.0,0.0,0.0,0.0,0.0,0.0,0.0,0.0,0.0,0.0,0.0,0.0,0.0,0.0,0.0,0.0,0.0,0.0,0.0,0.0,0.0,0.0,0.0,0.0,0.0,0.0,0.0,0.0,0.0,0.0,0.0,0.8845,0.9252,0.9685,0.9625,0.9545,0.0,0.0,0.0,0.0,0.0,0.0,0.0,0.0,0.0,1.0975,1.1012,1.123,1.1696,1.1841,1.1959,1.2069,1.2256,1.2364,1.2406,1.2406,1.244,1.2488,1.2303,1.203,1.1689,1.1488,1.1267,1.105,0.0,0.0,0.0,0.0,1.0565,1.0653,0.0,0.0,0.0,0.0,0.0,0.0,0.0,0.0,0.0,0.0,0.0,0.0,1.3933,1.4396,1.4765,1.5107,1.4687,1.4519,1.4785,1.3888,1.2733,1.1326,1.0535,0.9401,0.7881,0.8979,1.1367,1.5062,1.6518,1.8249,2.0182,1.9802,1.9833,2.0197,2.0197,1.9238,1.7556,1.6392,1.573,1.5157,0.0,0.0,0.0,0.0,0.0,0.0,0.0,0.0,0.0,0.0,0.0,0.0,0.0,0.0,0.0,0.0,0.0,0.0,0.0,0.0,0.0,0.0,0.0,0.0,0.0,0.0,0.0,0.0,0.0,0.0,0.0,0.0,0.0,0.0,0.0,0.0,0.0,0.9279,0.9659,1.0076,1.0103,1.0049,0.0,0.0,0.0,0.0,0.0,0.0,1.0727,1.0741,1.1012,1.1599,1.1637,1.1814,1.2207,1.2303,1.2345,1.2345,1.2447,1.2501,1.2501,1.2542,1.2562,1.2536,1.2406,1.2276,1.2125,1.1674,1.1416,1.1284,1.11,1.0972,1.0877,1.0917,1.1009,1.1164,0.0,0.0,0.0,0.0,0.0,0.0,0.0,0.0,0.0,0.0,0.0,1.459,1.5244,1.6052,1.6799,1.7383,1.7397,1.6652,1.4911,1.5859,1.4563,1.0264,1.1166,1.0592,0.8037,1.1806,1.4807,1.6875,1.7524,1.8661,2.0167,1.8698,1.8802,2.0197,2.0197,1.9677,1.8783,1.8462,1.7649,1.6441,1.4467,0.0,0.0,0.0,0.0,0.0,0.0,0.0,0.0,0.0,0.0,0.0,0.0,0.0,0.0,0.0,0.0,0.0,0.0,0.0,0.0,0.0,0.0,0.0,0.0,0.0,0.0,0.0,0.0,0.0,0.0,0.0,0.0,0.0,0.0,0.0,0.0,0.0,0.0,1.0419,1.0684,0.0,0.0,0.0,0.0,1.046,1.0473,1.0731,1.1314,1.1348,1.1619,1.2249,1.2244,1.2337,1.2481,1.2488,1.2488,1.2488,1.2501,1.2501,1.2508,1.2631,1.2699,1.2672,1.2556,1.2413,1.2257,1.192,1.171,1.1561,1.143,1.1362,1.1375,1.15,1.1642,1.1773,0.0,0.0,0.0,1.206,1.1971,1.1931,1.2038,1.2194,1.2421,1.2763,1.3798,1.4725,1.5324,1.6513,1.7528,1.813,1.8343,1.8085,1.7245,1.7081,1.5847,1.3204,1.3147,1.271,1.1691,1.4499,1.6582,1.7846,1.9083,2.0076,2.0771,2.0214,2.0245,2.0786,2.0786,1.9892,1.8424,1.8869,1.8384,1.7144,1.5519,1.4627,0.0,0.0,0.0,0.0,0.0,0.0,0.0,0.0,0.0,0.0,0.0,0.0,0.0,0.0,0.0,0.0,0.0,0.0,0.0,0.0,0.0,0.0,0.0,0.0,0.0,0.0,0.0,0.0,0.0,0.0,0.0,0.0,0.0,0.0,0.0,0.0,0.0,1.0684,1.0846,0.0,0.0,1.1026,1.1111,1.1195,1.1413,1.1658,1.1952,1.1991,1.2127,1.242,1.2427,1.2447,1.2501,1.2501,1.2529,1.2631,1.2631,1.2698,1.282,1.2874,1.2827,1.2679,1.2569,1.242,1.2277,1.2086,1.1837,1.1595,1.1541,1.1574,1.1662,1.1717,1.1954,1.2257,0.0,1.2448,0.0,1.2069,1.2029,1.2029,1.2029,1.2367,1.2786,1.331,1.4386,1.5418,1.6194,1.7341,1.825,1.8758,1.8958,1.8824,1.8237,1.7648,1.6484,1.4587,1.3868,1.3936,1.4795,1.6335,1.7778,1.9106,2.0279,2.0938,2.1093,2.1093,2.1093,2.1093,2.1093,2.0307,1.8988,1.8973,1.8338,1.7259,1.6449,1.5907,1.5303,0.0,0.0,0.0,0.0,0.0,0.0,0.0,0.0,0.0,0.0,0.0,0.0,0.0,0.0,0.0,0.0,0.0,0.0,0.0,0.0,0.0,0.0,0.0,0.0,0.0,0.0,0.0,0.0,0.0,0.0,0.0,0.0,0.0,0.0,0.0,1.0559,1.0958,1.1182,1.1324,1.14,1.1542,1.1699,1.1837,1.2045,1.2222,1.2352,1.2359,1.2406,1.2501,1.2501,1.2528,1.2576,1.2576,1.2657,1.2807,1.2807,1.2834,1.2908,1.2975,1.2894,1.2679,1.2569,1.2447,1.2345,1.2161,1.1964,1.1769,1.1769,1.1857,1.1974,1.2021,1.2258,1.2556,0.0,1.2305,1.2305,1.2305,1.2305,1.2295,1.2318,1.2816,1.3524,1.4394,1.5563,1.6727,1.7876,1.8543,1.9024,1.9374,1.9401,1.8893,1.7715,1.7608,1.6523,1.4087,1.3349,1.4269,1.7018,1.7348,1.8551,2.071,2.0975,2.1093,2.1093,2.1093,2.1093,2.1093,2.1093,2.0917,2.0511,1.881,1.7598,1.6882,1.7369,1.7222,1.6661,0.0,0.0,0.0,0.0,0.0,0.0,0.0,0.0,0.0,0.0,0.0,0.0,0.0,0.0,0.0,0.0,0.0,0.0,0.0,0.0,0.0,0.0,0.0,0.0,0.0,0.0,0.0,0.0,0.0,0.0,0.0,0.0,0.0,1.0072,1.076,1.1206,1.1227,1.1744,1.2025,1.1832,1.1998,1.2166,1.2296,1.2291,1.2359,1.2494,1.2501,1.2501,1.2508,1.2508,1.2563,1.2705,1.2693,1.2807,1.3003,1.2996,1.2901,1.2733,1.2915,1.2894,1.2679,1.2556,1.2508,1.2481,1.2215,1.2111,1.2111,1.2104,1.2174,1.2324,1.2447,1.257,1.2685,1.2265,1.2305,1.2305,1.2305,1.2305,1.2371,1.2623,1.2969,1.3601,1.4718,1.5695,1.6727,1.7876,1.8543,1.9024,1.9374,1.9401,1.908,1.8304,1.7836,1.7106,1.5991,1.676,1.7704,1.8722,1.944,2.0183,2.0989,2.1053,2.1093,2.1093,2.1093,2.1093,2.1093,2.1093,2.0363,1.9058,1.8396,1.796,1.7679,1.6951,1.6937,1.7197,0.0,0.0,0.0,0.0,0.0,0.0,0.0,0.0,0.0,0.0,0.0,0.0,0.0,0.0,0.0,0.0,0.0,0.0,0.0,0.0,0.0,0.0,0.0,0.0,0.0,0.0,0.0,0.0,0.0,0.0,0.0,0.0,1.075,1.0873,1.107,1.1363,1.1798,1.1996,1.2084,1.2025,1.2154,1.2262,1.2303,1.2386,1.2461,1.2501,1.2501,1.2536,1.2644,1.2644,1.2665,1.2693,1.2693,1.2807,1.3003,1.2847,1.2881,1.3071,1.303,1.2894,1.2705,1.2665,1.2584,1.2494,1.2413,1.2398,1.2378,1.2179,1.2174,1.2298,1.2332,1.244,1.2556,1.226,1.2305,1.2305,1.2305,1.2305,1.2407,1.2753,1.3032,1.3761,1.5345,1.6083,1.702,1.8437,1.8905,1.92,1.9388,1.9174,1.8772,1.8157,1.7555,1.7341,1.7609,1.8436,1.9239,1.9936,2.0445,2.0898,2.1312,2.1312,2.1379,2.1483,2.1483,2.1416,2.1312,2.1312,2.0675,1.9486,1.7871,1.795,1.8982,1.6688,1.6653,1.7849,1.6574,1.5809,1.5307,1.4494,1.4201,1.4128,1.3669,0.0,0.0,0.0,0.0,0.0,0.0,0.0,0.0,0.0,0.0,0.0,0.0,0.0,0.0,0.0,0.0,0.0,0.0,0.0,0.0,0.0,0.0,0.0,0.0,1.0714,1.1308,1.1628,1.1651,1.178,1.2133,1.2228,1.2242,1.2181,1.231,1.2352,1.2298,1.242,1.2501,1.2501,1.2543,1.259,1.2611,1.2678,1.2693,1.2693,1.2693,1.2807,1.3003,1.2929,1.2976,1.3125,1.3078,1.2989,0.0,1.2827,1.2779,1.2711,1.2711,1.2711,0.0,0.0,0.0,0.0,0.0,1.2766,1.2793,1.226,1.2305,1.2305,1.2305,1.2331,1.247,1.2807,1.3076,1.3991,1.6071,1.654,1.7382,1.9201,1.9401,1.9401,1.9401,1.8839,1.825,1.7635,1.7194,1.7529,1.8836,1.9037,1.9598,2.0686,2.0779,2.106,2.1598,2.1638,2.177,2.2007,2.2007,2.186,2.1636,2.1612,2.1435,2.0927,1.7404,1.7655,2.0138,1.6512,1.6474,1.8544,1.7929,1.7354,1.6835,1.6808,1.6807,1.6616,1.532,0.0,0.0,0.0,0.0,0.0,0.0,0.0,0.0,0.0,0.0,0.0,0.0,0.0,0.0,0.0,0.0,0.0,0.0,0.0,0.0,0.0,0.0,0.0,0.0,1.1009,1.1542,1.2215,1.2305,1.233,1.2291,1.24,1.2413,1.2257,1.2386,1.242,1.2296,1.2427,1.2528,1.2528,0.0,0.0,0.0,0.0,1.2693,1.2693,1.2726,1.2827,1.3003,1.3125,1.3112,1.303,1.3139,1.3098,1.3003,1.3003,1.3003,1.3003,1.3003,1.3003,1.2975,1.2657,1.2738,1.303,1.3275,1.3288,1.3186,1.226,1.2305,1.2305,1.2305,1.2524,1.2797,1.3089,1.3353,1.4263,1.6353,1.6673,1.7382,1.9201,1.9401,1.9401,1.9401,1.8839,1.825,1.7635,1.8156,1.8596,1.889,1.9826,2.0456,2.0684,2.1167,2.1491,2.1598,2.1823,2.1954,2.2007,2.2007,2.1967,2.1914,2.1705,2.1572,2.125,1.7487,1.7071,1.8721,1.634,1.6952,1.916,1.8558,1.809,1.7716,1.7502,1.7421,1.7422,1.7358,1.5537,1.3237,1.2951,1.0993,0.0,0.0,0.0,0.0,0.0,0.0,0.0,0.0,0.0,0.0,0.0,0.0,0.0,0.0,0.0,0.0,0.0,0.0,0.0,1.1023,1.1637,1.214,1.229,1.2386,1.242,1.2305,1.2318,1.2223,1.1927,1.215,1.229,1.2159,1.2467,1.2665,1.2665,1.2692,0.0,1.2907,1.2779,1.2693,1.2693,1.2854,1.2949,1.3003,0.0,0.0,1.3166,1.3084,1.303,1.3003,1.3003,1.3003,1.3003,1.3003,1.3003,1.2996,1.2935,1.2948,1.3009,1.3064,1.3071,1.3043,1.2466,1.2547,1.2591,1.2732,1.2889,1.3089,1.3367,1.366,1.4431,1.6047,1.6393,1.7007,1.8358,1.8385,1.8304,1.8304,1.801,1.7782,1.7608,1.8424,1.909,1.953,2.0281,2.0846,2.1141,2.1451,2.1729,2.2007,2.2124,2.2301,2.2452,2.2452,2.2368,2.2191,2.1914,2.1729,2.1346,1.7525,1.7409,1.955,1.6813,1.735,1.9733,1.9159,1.8651,1.8236,1.809,1.805,1.8076,1.821,1.6598,1.4443,1.3875,1.1946,0.9741,0.0,0.0,0.0,0.0,0.0,0.0,0.0,0.0,0.0,0.0,0.0,0.0,0.0,0.0,0.9612,0.0,0.0,1.1151,1.145,1.1945,1.231,1.231,1.2352,1.2392,1.2317,1.231,1.2169,1.1827,1.204,1.2133,1.1959,1.2298,1.2489,1.2489,1.2631,1.2712,1.2752,1.2712,1.2693,1.2693,1.2807,1.2908,1.3003,1.3071,1.3146,1.3193,1.32,1.32,1.32,1.32,1.32,1.32,1.32,1.32,1.32,1.32,1.3152,1.3118,1.3173,1.32,1.32,1.277,1.2918,1.3015,1.3163,1.3233,1.3353,1.3573,1.3884,1.4509,1.5648,1.6032,1.6552,1.7488,1.7367,1.7152,1.7045,1.7233,1.7421,1.7582,1.857,1.9463,2.017,2.0575,2.1034,2.1585,2.1652,2.1914,2.2402,2.2472,2.2649,2.2893,2.2893,2.2716,2.2388,2.2111,2.185,2.1362,1.7881,1.8036,2.0338,1.7538,1.7738,1.9676,1.9588,1.9146,1.8571,1.8531,1.8284,1.8052,1.8381,1.7024,1.5025,1.4176,1.2528,1.0641,0.9363,0.8798,0.0,0.0,0.0,0.0,0.0,0.0,0.0,0.0,0.0,0.9136,0.9504,0.97,0.9963,1.0487,1.0985,1.144,1.1791,1.2128,1.2325,1.2291,1.231,1.229,1.221,1.2203,1.2094,1.1798,1.1977,1.2031,1.1866,1.2182,1.2379,1.2379,1.2584,1.2672,1.2596,1.2658,1.2726,1.2753,1.278,1.2881,1.3043,1.3166,1.3234,1.3241,1.3342,1.3403,1.3403,1.3403,1.3403,1.3403,1.3403,1.3403,1.3403,1.3403,1.3322,1.3254,1.3356,1.3403,1.3403,1.3103,1.334,1.3437,1.3243,1.3407,1.3573,1.36,1.3884,1.4509,1.5648,1.5835,1.63,1.7475,1.7367,1.6979,1.6457,1.7328,1.7809,1.7608,1.9144,2.0104,2.0197,2.0746,2.1232,2.1598,2.1836,2.2098,2.2402,2.2702,2.2867,2.2893,2.2893,2.2716,2.2388,2.2111,2.185,2.1443,1.9177,1.8432,1.8768,1.8368,1.8085,1.8043,1.9542,1.9598,1.8824,1.8584,1.7507,1.6428,1.7984,1.5531,1.2082,1.3451,1.1849,0.9426,0.9365,0.9109,0.8865,0.8865,0.0,0.0,0.8872,0.8885,0.9027,0.0,0.0,0.9659,1.0109,1.0399,1.0623,1.0826,1.1333,1.1816,1.2025,1.2303,1.2433,1.233,1.231,1.2189,1.1893,1.1866,1.178,1.1642,1.1916,1.2091,1.2077,1.2433,1.2658,1.2658,1.2672,1.2766,1.2948,1.2793,1.2793,1.2955,1.3078,1.3152,1.3173,1.3302,1.3376,1.3376,1.3397,1.3403,1.3403,1.3403,1.3403,1.3403,1.3403,1.3403,1.3403,1.3403,1.339,1.3376,1.3397,1.3403,1.3403,1.3146,1.341,1.3623,1.3707,1.3814,1.3897,1.3897,1.4138,1.4498,1.4981,1.5206,1.559,1.6245,1.6218,1.6056,1.579,1.686,1.7622,1.7822,1.9316,2.0292,2.0481,2.0882,2.1323,2.1823,2.194,2.2235,2.2689,2.284,2.2893,2.2893,2.2893,2.2716,2.2388,2.2111,2.185,2.1472,1.9385,1.9088,1.9912,1.8728,1.8608,1.9186,1.9755,1.9653,1.9045,1.7878,1.693,0.0,1.6141,1.41,1.1748,1.2632,1.1263,0.9342,0.9484,0.9163,0.8832,0.9015,0.0,0.0,0.0,0.954,0.9643,1.0012,1.0055,1.0095,1.036,1.0626,1.0894,1.1148,1.1516,1.1893,0.0,1.2242,1.2242,1.2188,1.2081,1.1927,1.1717,1.1746,1.1773,1.1712,1.1839,1.1965,1.2091,1.2337,1.2474,1.2474,1.2617,1.2739,1.2827,1.2854,1.2955,1.3105,1.3166,1.3234,1.3329,1.337,1.3403,1.3403,1.3403,1.3403,1.3403,1.3403,1.3403,1.341,1.3478,1.3511,1.3518,1.3606,1.3633,1.3613,1.3464,1.3403,1.341,1.3146,1.341,1.3703,1.4041,1.4092,1.4092,1.4092,1.4269,1.4418,1.4487,1.471,1.4946,1.5124,1.515,1.519,1.5282,1.6218,1.7127,1.7836,1.9196,2.0145,2.055,2.0909,2.1349,2.1874,2.1967,2.2248,2.2756,2.2853,2.2893,2.2893,2.2813,2.2579,2.2285,2.2007,2.1729,2.1368,1.9857,1.9906,2.0852,1.9396,1.9325,2.0079,1.9865,1.9301,1.8434,1.7122,1.6276,1.5616,1.4562,1.2748,1.1059,1.1738,1.0692,0.9246,0.9443,0.9178,0.8913,0.9226,0.0,0.0,1.0642,1.1123,1.1557,1.1743,1.1424,1.1116,1.1286,1.1535,1.1643,1.144,1.2004,1.2436,1.2196,1.2127,1.2084,1.2025,1.1886,1.1739,1.1622,1.1723,1.1825,1.1872,1.1913,1.2006,1.2133,1.2283,1.2366,1.2413,1.2597,1.2746,1.2827,1.2983,1.3112,1.3254,1.3254,1.3295,1.3403,1.3403,1.3424,1.3464,1.3484,1.3478,1.3464,1.3484,1.3498,1.3511,1.362,1.3667,1.3653,1.3754,1.3795,1.3774,1.3579,1.3498,1.3518,1.3146,1.341,1.3703,1.4041,1.4092,1.4092,1.4092,1.4105,1.4212,1.4472,1.4501,1.4514,1.4538,1.4538,1.4669,1.4984,1.5524,1.6354,1.7528,1.8759,1.9667,2.0197,2.0786,2.1256,2.1596,2.1877,2.2138,2.2415,2.2743,2.2893,2.2893,2.2565,2.2271,2.2007,2.1729,2.1435,2.1107,2.1046,2.0902,2.071,2.065,2.0304,1.9813,1.98,1.8458,1.6584,1.653,1.542,1.3951,1.3784,1.1527,0.9088,1.0789,1.0126,0.8791,0.9125,0.92,0.9247,0.951,0.0,1.2194,1.2455,1.3939,1.5369,1.5503,1.4235,1.309,1.3344,1.3562,1.3232,1.1685,1.3006,1.3776,1.209,1.1984,1.2025,1.1839,1.18,1.1739,1.1622,1.1723,1.1872,0.0,1.2208,1.2296,1.2284,1.2413,1.2562,1.2692,1.2705,1.2841,1.3173,1.3186,1.3261,1.339,1.3397,1.3397,1.3403,1.3403,1.3478,1.3606,1.372,1.3707,1.3606,1.3727,1.3781,1.3788,1.3788,1.3788,1.3795,1.3795,1.3795,1.3795,1.3788,1.3781,1.3788,1.3146,1.341,1.3703,1.4041,1.4092,1.4092,1.4092,1.4092,1.4132,1.4215,1.4587,0.0,0.0,0.0,0.0,0.0,1.5683,1.6378,1.6967,1.8518,1.9561,1.9918,2.0679,2.1272,2.1598,2.1689,2.1877,2.2124,2.2248,2.2301,2.2288,2.2194,2.1994,2.1729,2.1638,2.1315,2.0831,2.0831,2.0655,2.0346,2.0174,1.9289,1.8047,1.7834,1.6511,1.4609,0.0,1.2477,1.1748,1.0724,0.9573,0.8707,0.946,0.919,0.8614,0.8811,0.9158,0.9761,1.1098,1.2044,1.2994,1.432,1.5229,1.5775,1.5814,1.4479,1.3283,1.3453,1.263,1.1779,1.1457,1.1952,1.228,1.1862,1.1778,1.1782,1.1805,1.1793,1.178,1.1751,1.1967,0.0,0.0,0.0,0.0,1.2427,1.2569,1.2658,1.2705,1.2915,1.3091,1.3207,1.3288,1.3397,1.3532,1.3532,1.3579,1.3674,1.3674,1.3701,1.3727,1.3774,1.3774,1.3748,1.3774,1.3795,1.3802,1.3953,1.3994,1.4007,1.4109,1.4121,1.4121,1.4121,1.4121,1.4129,1.3173,1.341,1.3703,1.4041,1.4092,0.0,0.0,0.0,0.0,0.0,0.0,0.0,0.0,0.0,0.0,0.0,0.0,1.6043,1.6525,1.7849,1.8786,1.9144,1.9813,2.0267,2.0485,2.0592,2.0793,2.1071,2.1379,2.1593,2.167,2.1793,2.1703,2.1422,2.1315,2.0695,1.9694,1.9694,1.9175,1.8313,1.805,1.719,1.6053,1.5756,1.4459,0.0,1.1464,1.0529,0.9722,0.877,0.8391,0.837,0.8608,0.8635,0.8594,0.8737,0.9575,1.0745,1.2105,1.3591,1.5071,1.6377,1.7224,1.7763,1.7763,1.5958,1.4345,1.4493,1.3182,1.19,1.154,1.1981,1.2275,1.1873,1.1737,1.173,1.1872,1.1911,1.1911,1.1911,1.2135,1.231,0.0,0.0,0.0,1.2556,1.2651,1.2753,1.2861,1.3091,1.322,1.3275,1.3403,1.3511,1.3606,1.366,1.3707,1.3795,1.3877,1.387,1.3802,1.391,1.3952,1.3904,1.3958,1.3985,1.3992,1.4109,1.4171,1.4185,1.4265,1.4299,1.4299,1.4299,1.4299,1.4285,1.3217,1.3437,1.374,0.0,0.0,0.0,0.0,0.0,0.0,0.0,0.0,0.0,0.0,0.0,0.0,0.0,0.0,0.0,1.619,1.6845,1.7434,1.7929,1.8317,1.8504,1.8504,1.8744,1.9038,1.9348,2.0191,2.0724,2.096,2.1301,2.1243,2.0852,2.0604,1.9456,1.7707,1.7707,1.663,1.4917,1.4654,1.4317,1.3919,1.3665,1.2399,1.0768,1.0768,0.957,0.8001,0.8001,0.8014,0.8067,0.8268,0.8512,0.8777,0.9009,1.0479,1.2168,1.2725,1.5448,1.8195,1.8542,1.9877,2.1077,2.0996,1.8437,1.6115,1.6224,1.4954,1.3373,0.0,0.0,1.356,1.2028,1.1786,1.1866,1.207,1.2098,1.2111,0.0,0.0,0.0,0.0,0.0,0.0,1.2713,0.0,1.2854,1.318,1.32,1.3275,1.341,1.3532,1.3613,1.3633,1.3747,1.3822,1.3822,1.4014,1.4007,1.3829,1.4148,1.4224,1.411,1.4238,1.4299,1.4299,1.4299,1.4299,1.4299,1.4299,1.4299,1.4299,1.4299,1.4299,1.4299,0.0,0.0,0.0,0.0,0.0,0.0,0.0,0.0,0.0,0.0,0.0,0.0,0.0,0.0,0.0,0.0,0.0,0.0,1.5603,1.6617,1.726,1.7394,1.8103,1.8504,1.8504,1.8557,1.8637,1.8732,1.8959,1.9093,1.9158,1.9253,1.8707,1.7667,1.7605,1.6651,1.5076,1.5076,1.4667,1.4027,1.3968,1.3099,1.1864,1.1791,1.0591,0.8958,0.8958,0.8556,0.8001,0.8001,0.0,0.0,0.0,0.8893,0.937,0.0,0.0,1.3089,1.6052,1.7599,1.8728,2.0093,2.0763,2.0797,1.9597,1.757,1.5623,1.4483,1.2801,1.1459,0.0,0.0,0.0,1.1541,1.1669,0.0,1.1866,1.2088,0.0,1.2249,0.0,1.2494,1.259,1.2665,0.0,0.0,1.3078,1.3112,1.3207,1.3281,1.341,1.3545,1.3586,1.3715,1.3981,1.4109,1.4162,1.4162,1.4224,1.4217,1.4183,1.4265,1.4278,1.4245,1.4285,1.4299,1.4299,1.4299,1.4299,1.4299,1.4299,1.4299,1.4299,1.4299,1.4299,1.4299,0.0,0.0,0.0,0.0,0.0,0.0,0.0,0.0,0.0,0.0,0.0,0.0,0.0,0.0,0.0,0.0,0.0,0.0,0.0,1.6138,1.6591,1.6591,1.7048,1.7328,1.7328,1.7328,1.7435,1.7702,1.7862,1.805,1.829,1.8424,1.772,1.6311,1.6311,1.5041,1.2871,1.2871,1.2379,0.0,0.0,1.0836,0.9944,0.9795,0.9085,0.8167,0.8167,0.816,0.8161,0.8332,0.0,0.8723,0.896,0.9709,1.0756,1.1942,0.0,1.5499,1.7711,1.8961,1.9877,2.0872,2.1203,2.1014,1.9841,1.7779,1.58,1.463,1.2412,0.0,0.0,0.0,0.0,0.0,0.0,0.0,1.2008,1.2237,1.2386,0.0,1.2515,0.0,1.2679,1.2827,1.2996,0.0,1.3193,1.322,1.3288,1.3417,1.3518,1.3606,1.3735,1.3933,1.4192,1.4258,1.4299,1.4299,1.4299,1.4299,1.4299,1.4299,1.4299,1.4299,0.0,1.4299,1.4299,1.4299,1.4299,1.4299,1.4299,1.434,1.4394,1.4394,1.4434,1.4473,0.0,0.0,0.0,0.0,0.0,0.0,0.0,0.0,0.0,1.4212,1.4186,0.0,0.0,0.0,0.0,0.0,0.0,0.0,0.0,0.0,1.5808,1.5808,1.5808,1.5808,1.5808,1.5808,1.606,1.6581,1.6872,1.7261,1.7702,1.8009,1.7213,1.5537,1.5537,1.3801,1.0854,1.0854,1.006,0.8757,0.8533,0.8438,0.841,0.0,0.8001,0.8001,0.8001,0.8127,0.8362,0.8757,0.8926,0.8987,0.9213,1.0484,1.2033,1.2631,1.5171,1.7916,1.8508,1.9862,2.1107,2.1162,2.1379,2.1336,2.0362,1.8167,1.6069,1.5048,0.0,1.0802,1.1253,1.1243,1.1345,1.1948,0.0,1.2079,1.2256,1.2386,1.2488,1.2528,1.2631,1.2726,1.2766,1.3024,1.32,1.322,1.3241,1.3295,1.3424,1.3538,1.3627,1.3667,1.3981,1.4185,1.4299,1.4299,1.4299,1.4299,1.4299,1.4299,1.4299,1.4299,1.4299,1.4299,0.0,0.0,1.4299,1.4299,1.4312,1.4348,1.4695,1.4897,1.5031,1.5031,1.5092,1.5143,0.0,0.0,0.0,0.0,0.0,0.0,0.0,0.0,0.0,0.0,1.4589,1.4552,0.0,0.0,0.0,0.0,0.0,0.0,0.0,0.0,0.0,1.5808,1.5808,1.5808,1.5808,1.5808,1.5861,1.5955,1.6008,1.6088,1.6183,1.6248,1.4961,1.2631,1.2631,1.1116,0.8567,0.8567,0.8402,0.8156,0.8102,0.8088,0.8088,0.8021,0.0,0.0,0.8001,0.8127,0.8362,0.8757,0.9001,0.9213,0.9578,1.0011,1.0971,1.4069,1.5514,1.677,1.9805,2.0848,2.1162,2.1448,2.1558,2.0832,1.7827,1.6632,0.0,0.0,1.0913,1.0629,1.0928,1.0968,1.1103,1.1619,1.1694,1.1789,1.2079,1.2249,1.242,0.0,1.2692,1.2807,0.0,0.0,0.0,0.0,0.0,1.3538,1.3566,1.3593,1.3721,1.4008,1.4192,1.4272,1.4299,1.4299,1.4299,1.4299,1.4299,1.4299,1.4299,1.4299,1.4299,1.4299,1.4299,0.0,1.4299,1.4299,1.4367,1.4677,1.6714,1.7619,1.7708,1.7708,1.7733,1.7472,0.0,0.0,0.0,0.0,0.0,0.0,0.0,1.4501,1.4672,1.5146,1.507,1.503,1.52,1.5213,1.5322,0.0,0.0,0.0,0.0,0.0,0.0,1.5808,1.5808,1.5808,1.5808,1.5808,0.0,0.0,0.0,1.59,1.6059,1.5875,1.4412,1.1901,1.1901,1.0448,0.8001,0.8001,0.8001,0.8001,0.8001,0.8001,0.8001,0.0,0.0,0.0,0.8001,0.8127,0.8355,0.8683,0.8906,0.9144,0.9717,1.0644,1.2026,1.4636,1.6228,1.771,2.021,2.1125,2.1408,2.1558,2.1946,2.1423,1.8141,0.0,0.0,0.0,1.0907,1.05,1.0846,1.0897,1.1036,1.1425,1.1615,1.1764,1.1925,1.2203,1.2481,1.2685,1.278,1.2955,0.0,0.0,0.0,0.0,0.0,1.3606,1.3606,1.3777,1.396,1.4205,1.4265,1.4299,1.4299,1.4299,1.4299,1.4299,1.4299,1.4299,1.4299,1.4299,1.4299,1.4306,1.438,0.0,1.4414,1.4473,1.5299,1.6655,1.785,1.9164,2.0417,2.0417,2.046,2.0358,0.0,0.0,0.0,0.0,0.0,0.0,1.4563,1.4605,1.483,1.5418,1.5484,1.5484,1.5484,1.5484,1.5566,0.0,0.0,0.0,0.0,0.0,0.0,0.0,0.0,0.0,0.0,0.0,0.0,0.0,0.0,0.0,0.0,0.0,0.0,0.0,1.1901,1.0448,0.8001,0.8001,0.8001,0.0,0.0,0.8001,0.0,0.0,0.0,0.0,0.0,0.8526,0.8665,0.8694,0.8764,0.8987,0.9682,1.0977,1.2649,1.4686,1.6522,1.8343,2.0352,2.1234,2.1625,2.1743,2.2345,2.2017,1.8664,1.7324,0.0,0.0,1.1069,1.0442,1.0874,1.0907,1.0975,1.1335,1.1558,1.1703,1.1798,1.217,1.2535,0.0,1.2935,0.0,1.3873,1.4092,0.0,0.0,0.0,0.0,1.3701,1.3973,1.4199,1.4299,1.4299,1.4299,1.4299,1.4299,1.4299,1.4299,1.4299,1.4299,1.4299,1.4333,1.4346,1.4353,1.4473,0.0,0.0,1.5223,1.6666,1.8553,1.9604,2.1303,2.3131,2.3131,2.3201,2.3221,0.0,0.0,0.0,0.0,0.0,0.0,1.4876,1.4946,1.516,1.5688,1.5768,1.5768,1.5768,1.5768,1.577,0.0,0.0,0.0,0.0,0.0,0.0,0.0,0.0,0.0,0.0,0.0,0.0,0.0,0.0,0.0,0.0,0.0,0.0,0.0,0.0,0.0,0.8001,0.8001,0.0,0.0,0.0,0.0,0.0,0.0,0.0,0.0,0.0,0.9826,0.9726,0.8957,0.0,0.8825,0.9441,0.9838,1.0761,1.4209,0.0,0.0,2.0509,2.1558,2.1716,2.2205,2.2622,2.1798,1.7543,0.0,0.0,1.1359,1.0397,1.0476,1.1053,1.0921,1.087,1.1339,1.1318,1.1386,1.1757,1.2108,1.2487,1.2908,0.0,0.0,1.6094,1.6564,0.0,0.0,0.0,0.0,1.4056,1.419,1.4285,1.4299,1.4299,1.4299,1.4299,1.4299,1.4299,1.4299,1.4299,1.4299,1.4306,1.4434,1.4466,1.4502,1.4629,0.0,0.0,1.7125,1.8264,1.9023,2.3544,2.5532,2.5854,2.5854,2.5843,2.5537,0.0,0.0,0.0,0.0,0.0,0.0,1.493,1.5133,1.5443,1.6031,1.5927,1.5887,1.6072,1.5927,1.5808,1.5808,0.0,0.0,0.0,0.0,0.0,0.0,0.0,0.0,0.0,0.0,0.0,0.0,0.0,0.0,0.0,0.0,0.0,0.0,0.0,0.0,0.0,0.0,0.0,0.0,0.0,0.0,0.0,0.0,0.0,0.0,0.0,0.0,0.0,0.0,0.0,0.8757,0.9075,0.9882,1.1257,0.0,1.5934,1.7719,2.0351,2.1553,2.1882,2.1042,2.1151,2.0292,1.5852,0.0,1.4303,1.0979,1.0367,1.0523,1.0833,1.0782,1.1173,1.2609,1.1992,1.1875,1.3443,1.2953,1.3062,1.4845,1.5082,0.0,0.0,0.0,0.0,0.0,0.0,0.0,1.836,1.7118,1.7028,1.8418,1.8462,1.8462,1.8462,1.7093,1.6454,1.6511,1.5112,1.5244,1.6779,1.6819,1.7651,1.8995,1.7643,0.0,0.0,1.8242,1.9612,2.1359,2.4777,2.7073,2.8436,2.8436,2.8436,2.8279,0.0,0.0,0.0,0.0,0.0,1.4605,1.4957,1.5227,1.5578,1.6084,1.5953,1.5888,1.6124,1.594,1.5848,1.594,1.5861,0.0,0.0,0.0,0.0,0.0,0.0,0.0,0.0,0.0,1.5808,1.5808,1.5808,0.0,0.0,0.0,0.0,0.0,0.0,0.0,0.0,0.0,0.0,0.0,0.0,0.0,0.0,0.0,0.0,0.0,0.0,0.0,0.0,0.0,0.0,0.8743,0.9359,1.0637,1.225,1.4063,1.6149,1.8232,1.9777,2.0833,2.1145,1.9568,1.94,1.86,0.0,0.0,1.3353,1.0827,1.0408,1.0541,1.0674,1.0701,1.1197,1.2699,1.204,1.1988,1.3811,1.3797,1.4043,1.5257,0.0,1.783,0.0,0.0,0.0,0.0,0.0,0.0,0.0,2.0783,2.0337,2.1178,2.1303,2.1344,2.1344,1.9834,1.9131,1.9178,1.7547,1.7702,1.9496,1.9536,2.0104,2.1035,0.0,0.0,0.0,2.0105,2.1659,2.2887,2.6071,2.8346,2.9891,2.9891,2.9891,2.9891,0.0,0.0,0.0,0.0,0.0,0.0,1.4957,1.5227,1.5498,1.5768,1.5796,1.5808,1.5796,1.5796,1.594,1.627,1.5993,0.0,0.0,0.0,0.0,0.0,0.0,0.0,0.0,0.0,1.5808,1.5808,1.5808,1.5808,1.5808,1.5808,0.0,0.0,0.0,0.0,0.0,0.0,0.0,0.0,0.0,0.0,1.2035,0.0,0.0,0.0,0.0,0.0,0.0,0.0,0.0,0.0,0.0,1.2096,1.345,1.4335,1.5939,1.7646,1.8715,1.9216,1.9158,1.8004,1.7625,1.6885,0.0,0.0,1.3134,1.0785,1.0408,1.0541,1.0674,1.0701,1.0755,1.0904,1.1087,1.1428,1.2035,1.4458,1.5375,1.3282,0.0,1.9298,1.686,0.0,0.0,0.0,0.0,0.0,0.0,2.4883,2.3857,2.1274,2.1521,2.1686,2.1686,2.1922,2.2056,2.2056,2.2034,2.2034,2.2067,2.2201,2.093,0.0,0.0,0.0,0.0,2.3106,2.4694,2.2991,2.7928,2.9869,2.9891,2.9891,2.9891,2.9891,0.0,0.0,0.0,0.0,0.0,0.0,1.5229,1.5511,1.5793,1.6098,1.594,1.59,1.6124,1.594,1.594,1.627,1.5993,0.0,0.0,0.0,0.0,0.0,0.0,0.0,0.0,1.5808,1.5901,1.6138,1.5901,1.5927,1.6138,1.5913,1.5581,1.5188,0.0,0.0,0.0,0.0,0.0,0.0,0.0,1.3271,1.3404,0.0,0.0,0.0,0.0,0.0,0.0,0.0,0.0,0.0,0.0,0.0,0.0,1.5289,1.642,1.7285,1.805,1.7781,1.6915,1.5414,1.4903,1.4204,1.2037,1.1537,1.1644,1.1996,1.2179,1.2314,1.2447,1.2479,1.259,1.2959,1.2001,1.2508,1.6295,1.6289,1.6442,1.7821,2.0495,2.2102,0.0,0.0,0.0,0.0,0.0,0.0,0.0,2.7358,2.7109,2.6287,2.6546,2.6695,2.6695,2.5231,2.4541,2.4621,2.2987,2.3161,2.4891,2.4947,0.0,0.0,0.0,0.0,0.0,2.4546,2.474,2.2991,2.795,2.9891,2.9891,2.9891,2.9891,2.9891,0.0,0.0,0.0,0.0,0.0,0.0,1.5364,1.5633,1.5875,1.6086,1.5927,1.5875,1.6086,1.5927,1.598,1.6419,1.6166,0.0,0.0,0.0,0.0,0.0,0.0,0.0,1.5808,1.5808,1.5967,1.6297,1.6086,1.6098,1.6297,1.6086,1.5927,1.5808,1.5808,1.5808,0.0,0.0,0.0,0.0,1.4615,1.4615,1.4711,0.0,0.0,0.0,0.0,0.0,0.0,0.0,0.0,0.0,0.0,0.0,0.0,0.0,1.6478,1.5939,1.6705,1.6054,1.4805,1.3274,1.2636,1.2074,1.092,1.1048,1.1699,1.2758,1.3603,1.4175,1.427,1.4281,1.4247,1.4096,1.3019,1.3491,1.7254,1.7348,1.8445,2.229,0.0,0.0,0.0,0.0,0.0,0.0,0.0,0.0,0.0,2.8732,2.8938,2.8938,2.909,2.9183,2.9183,2.7886,2.7258,2.7342,2.587,2.602,2.7612,2.7612,0.0,0.0,0.0,0.0,0.0,2.6184,2.6139,2.4295,2.8324,2.9891,2.9891,2.9891,2.9891,2.9891,0.0,0.0,0.0,0.0,0.0,0.0,0.0,1.5606,1.5768,1.5768,1.5795,1.5808,1.5808,1.5808,1.6048,1.666,1.6472,0.0,0.0,0.0,0.0,0.0,0.0,0.0,1.5808,1.5808,1.5967,1.6297,1.6297,1.631,1.6324,1.631,1.6126,1.5835,1.5809,1.5808,0.0,0.0,0.0,0.0,1.5808,1.5808,0.0,0.0,0.0,0.0,0.0,0.0,0.0,0.0,0.0,0.0,0.0,0.0,0.0,0.0,0.0,0.0,0.0,1.4176,1.2766,1.1593,1.0873,1.0534,1.0799,1.1914,0.0,1.3227,1.4771,1.6039,1.5929,1.6041,1.5714,1.4377,1.4102,1.4559,1.5991,1.7865,2.0935,0.0,2.1222,0.0,0.0,0.0,0.0,0.0,0.0,0.0,0.0,2.9179,2.9508,2.9508,2.9521,2.9535,2.9535,2.978,2.9891,2.9891,2.9891,2.9891,2.9891,2.9891,0.0,0.0,0.0,0.0,0.0,2.7747,2.8279,2.6456,2.8922,2.9891,2.9891,2.9891,2.9891,2.9891,0.0,0.0,0.0,0.0,0.0,0.0,0.0,0.0,0.0,0.0,1.5675,1.5808,1.5808,1.5808,1.6048,0.0,0.0,0.0,0.0,0.0,0.0,0.0,0.0,0.0,1.5808,1.5808,1.5967,1.6297,1.6297,1.6392,1.6593,1.6404,1.6257,1.6165,1.5901,1.5808,0.0,0.0,0.0,0.0,1.5808,1.5808,0.0,0.0,0.0,0.0,1.5808,1.4907,0.0,0.0,0.0,0.0,0.0,0.0,0.0,0.0,1.6396,1.4178,1.4645,0.0,1.0578,1.0383,1.0224,1.017,0.0,1.1725,1.333,1.4795,1.6493,1.7352,1.6125,1.738,1.7507,1.4196,1.5338,1.7442,1.9752,1.9942,2.0919,2.3846,2.1786,0.0,0.0,0.0,0.0,0.0,0.0,0.0,0.0,2.9285,2.9508,2.9508,2.97,2.982,2.982,2.9864,2.9891,2.9891,2.9891,2.9891,2.9891,2.9891,0.0,0.0,0.0,0.0,2.5423,2.6592,2.674,2.6456,2.8922,2.9891,2.9891,2.9891,2.9891,2.9891,0.0,0.0,0.0,0.0,0.0,0.0,0.0,0.0,0.0,0.0,1.5701,1.5808,1.5808,1.5808,0.0,0.0,0.0,0.0,0.0,0.0,0.0,0.0,0.0,1.5808,1.5808,1.5808,1.602,1.6485,1.6485,1.6566,1.67,1.6552,1.6338,1.6059,1.5875,1.5808,0.0,0.0,0.0,1.5808,1.5808,0.0,0.0,0.0,0.0,0.0,1.5967,1.5289,0.0,1.4543,1.4352,1.4195,0.0,0.0,0.0,0.0,1.6551,1.4262,1.4524,1.2291,0.9934,1.0105,1.0139,1.02,1.0432,1.241,1.449,1.5579,1.7167,1.813,1.7248,1.8258,1.8407,1.5925,1.7502,1.9836,2.2094,2.2983,2.3493,2.3733,2.3118,0.0,0.0,0.0,0.0,0.0,0.0,0.0,0.0,2.9526,2.9686,2.9686,2.9811,2.9891,2.9891,2.9891,2.9891,2.9891,2.9891,2.9891,2.9891,2.9891,2.9891,0.0,0.0,0.0,2.7905,2.7905,2.7905,2.8031,2.9384,2.9891,2.9891,2.9891,2.9891,2.9891,0.0,0.0,0.0,0.0,0.0,0.0,0.0,0.0,0.0,0.0,0.0,0.0,0.0,0.0,0.0,0.0,0.0,0.0,0.0,0.0,0.0,0.0,1.5808,1.5808,1.5808,1.5808,1.6087,1.6647,1.6687,1.6727,1.678,1.6714,1.6381,1.5808,1.5808,1.5808,1.5808,0.0,0.0,1.5808,1.5808,0.0,0.0,0.0,0.0,0.0,0.0,0.0,0.0,1.5191,1.5435,1.5634,1.6041,0.0,0.0,0.0,0.0,0.0,1.4559,1.2395,1.0174,1.0695,1.0787,1.089,1.1497,1.3963,1.6159,1.626,1.7755,1.8964,1.8741,1.9289,1.9491,1.8565,2.0166,2.2108,2.3736,2.559,2.6123,2.4347,2.446,0.0,0.0,0.0,0.0,0.0,0.0,0.0,0.0,2.978,2.9891,2.9891,2.9891,2.9891,2.9891,2.9891,2.9891,2.9891,2.9891,2.9891,2.9891,2.9891,2.9891,0.0,0.0,0.0,2.9869,2.9496,2.9564,2.9891,2.9891,2.9891,2.9891,2.9891,2.9891,2.9891,0.0,0.0,0.0,0.0,0.0,0.0,0.0,0.0,0.0,0.0,0.0,0.0,0.0,0.0,0.0,0.0,0.0,0.0,0.0,0.0,0.0,1.5821,1.5808,1.5808,1.5808,1.5808,1.598,1.6364,1.658,1.6846,1.7113,1.6833,1.6381,1.5808,1.5808,1.5808,1.5808,1.5808,0.0,1.5808,0.0,0.0,0.0,0.0,0.0,0.0,0.0,0.0,0.0,1.674,1.7029,1.7239,1.7318,0.0,0.0,0.0,0.0,0.0,1.4736,1.2558,1.0734,1.2759,1.296,1.3235,1.5379,1.7009,1.8086,1.8088,1.9902,2.1075,1.9826,2.1677,2.2821,2.0982,0.0,2.4735,0.0,0.0,2.4229,0.0,0.0,0.0,0.0,0.0,0.0,0.0,0.0,0.0,0.0,2.9864,2.9891,2.9891,2.9891,2.9891,2.9891,2.9891,2.9891,2.9891,2.9891,2.9891,2.9891,2.9891,2.9891,0.0,0.0,2.795,2.9734,2.7634,2.7995,2.9891,2.9891,2.9891,2.9891,2.9891,2.9891,2.9891,0.0,0.0,0.0,0.0,0.0,0.0,0.0,0.0,0.0,0.0,0.0,0.0,0.0,0.0,0.0,0.0,0.0,0.0,0.0,0.0,1.6151,1.5809,1.5808,1.5808,1.5808,1.598,1.6218,1.6525,1.6819,1.7059,1.7192,1.6712,1.6246,1.5808,1.5808,1.5808,1.5808,1.5808,1.5808,1.5808,0.0,0.0,0.0,0.0,0.0,0.0,0.0,0.0,0.0,0.0,1.7501,1.7622,1.7769,0.0,0.0,0.0,0.0,0.0,1.4645,1.254,1.0899,1.3386,1.3853,1.4235,1.6342,1.8194,1.9298,1.8618,1.9609,2.0422,1.9905,2.1161,2.2728,2.4023,0.0,0.0,0.0,0.0,0.0,0.0,0.0,0.0,0.0,0.0,0.0,0.0,0.0,0.0,0.0,0.0,2.9891,2.9891,2.9891,2.9891,2.9891,2.9891,2.9891,2.9891,2.9891,2.9891,2.9891,2.9891,2.9891,2.9846,0.0,2.8854,2.9801,2.8674,2.8877,2.9891,2.9891,2.9891,2.9891,2.9891,2.9891,2.9891,0.0,0.0,0.0,0.0,0.0,0.0,0.0,0.0,0.0,0.0,0.0,0.0,0.0,0.0,0.0,0.0,0.0,0.0,0.0,1.6046,1.6072,1.5809,1.5808,1.5808,1.5808,1.6138,1.6432,1.67,1.71,1.7287,1.7273,1.6684,1.6219,1.5901,1.5835,1.5808,1.5808,1.5808,1.5808,1.5808,0.0,0.0,0.0,0.0,0.0,0.0,0.0,0.0,0.0,0.0,0.0,0.0,0.0,0.0,0.0,1.8542,1.6603,1.4334,1.4509,1.2818,1.1507,1.3621,1.4486,1.5324,1.7272,1.9433,2.073,1.9812,2.015,2.0701,2.0987,2.1529,0.0,2.6195,2.6961,0.0,0.0,0.0,0.0,0.0,0.0,0.0,0.0,0.0,0.0,0.0,0.0,0.0,0.0,0.0,2.9891,2.9891,2.9891,2.9891,2.9891,2.9891,2.9891,2.9891,2.9891,2.9891,2.9891,2.9891,2.9891,2.9891,2.9891,2.9891,2.9891,2.9891,2.9891,2.9891,2.9891,2.9891,2.9891,2.9891,2.9891,2.9891,0.0,0.0,0.0,0.0,0.0,0.0,0.0,0.0,0.0,0.0,0.0,0.0,0.0,0.0,0.0,0.0,0.0,0.0,0.0,1.5821,1.5821,1.5808,1.5808,1.5808,1.5808,1.6138,1.6432,1.67,1.7288,1.7582,1.7568,1.6954,1.6525,1.6257,1.594,1.5808,1.5808,1.5808,1.5808,1.5808,1.5808,0.0,0.0,0.0,0.0,0.0,0.0,0.0,0.0,0.0,0.0,0.0,0.0,0.0,1.8009,1.8049,1.6407,1.4554,1.4431,1.3764,1.3235,1.3853,1.5313,1.7288,1.9829,2.1786,2.3051,2.2971,0.0,0.0,0.0,2.5205,2.5808,2.6346,2.6667,0.0,0.0,0.0,0.0,0.0,0.0,0.0,0.0,0.0,0.0,0.0,0.0,0.0,0.0,0.0,0.0,2.9891,2.9891,2.9891,2.9891,2.9891,2.9891,2.9891,2.9891,2.9891,2.9891,2.9891,2.9891,2.9891,2.9891,2.9891,2.9891,2.9891,2.9891,2.9891,2.9891,2.9891,2.9891,2.9891,2.9891,2.9891,0.0,0.0,0.0,0.0,0.0,0.0,0.0,0.0,0.0,0.0,0.0,0.0,0.0,0.0,0.0,0.0,0.0,0.0,0.0,1.5808,1.5808,1.5808,1.5808,1.5808,1.5808,1.6287,1.6699,1.7006,1.7408,1.7515,1.734,1.6901,1.6566,1.6296,1.5953,1.5808,1.5808,1.5808,1.5808,1.5808,1.5808,1.5808,0.0,0.0,0.0,0.0,0.0,0.0,0.0,0.0,1.7461,1.7595,1.7595,1.7662,1.7782,1.7956,1.6838,1.5348,1.4498,1.4647,1.4885,1.4277,1.6569,1.9284,2.0433,2.2633,2.4262,2.3714,2.4137,0.0,0.0,0.0,2.6653,2.7121,0.0,0.0,0.0,0.0,0.0,0.0,0.0,0.0,0.0,0.0,0.0,0.0,0.0,0.0,0.0,0.0,0.0,2.9891,2.9891,2.9891,2.9891,2.9891,2.9891,2.9891,2.9891,2.9891,2.9891,2.9891,2.9891,2.9891,2.9891,2.9891,2.9891,2.9891,2.9891,2.9891,2.9891,2.9891,2.9891,2.9891,2.9891,2.9891,0.0,0.0,0.0,0.0,0.0,0.0,0.0,0.0,0.0,0.0,0.0,0.0,0.0,0.0,0.0,0.0,0.0,0.0,1.5808,1.5808,1.5808,1.5808,1.5808,1.5848,1.5953,1.646,1.6807,1.7033,1.7421,1.7501,1.7313,1.6993,1.6699,1.6405,1.6099,1.5953,1.5953,1.5848,1.5808,1.5808,1.5808,1.5808,0.0,0.0,0.0,0.0,0.0,0.0,0.0,0.0,1.7461,1.7595,1.7595,1.7595,1.7662,1.7916,1.7219,1.6187,1.5311,1.613,1.6856,1.5441,1.8324,2.1495,2.1318,2.3046,2.4588,2.4285,2.4716,2.5258,2.5598,0.0,0.0,0.0,0.0,0.0,0.0,0.0,0.0,0.0,0.0,0.0,0.0,0.0,0.0,0.0,0.0,0.0,0.0,0.0,0.0,0.0,2.9891,2.9891,2.9891,2.9891,2.9891,2.9891,2.9891,2.9891,2.9891,2.9891,2.9891,2.9891,2.9891,2.9891,2.9891,2.9891,2.9891,2.9891,2.9891,2.9891,2.9891,2.9891,2.9891,2.9891,0.0,0.0,0.0,0.0,0.0,0.0,0.0,0.0,0.0,0.0,0.0,0.0,0.0,0.0,0.0,0.0,0.0,0.0,1.5808,1.5808,1.5808,1.5808,1.5808,1.5953,1.6284,1.6553,1.6701,1.6714,1.7301,1.7608,1.7582,1.7327,1.7019,1.6674,1.6419,1.6297,1.627,1.594,1.5808,1.5808,1.5808,1.5808,1.5808,0.0,0.0,0.0,0.0,0.0,0.0,0.0,1.7608,1.7595,1.7595,1.7595,1.7649,1.7929,1.7533,1.7036,1.7014,1.8301,1.9226,1.7491,2.0642,2.3904,2.2771,2.3178,2.4071,2.4922,2.5804,2.6326,2.6051,0.0,0.0,0.0,0.0,0.0,0.0,0.0,0.0,0.0,0.0,0.0,0.0,0.0,0.0,0.0,0.0,0.0,0.0,0.0,0.0,0.0,2.9891,2.9891,2.9891,2.9891,2.9891,2.9891,2.9891,2.9891,2.9891,2.9891,2.9891,2.9891,2.9891,2.9891,2.9891,2.9891,2.9891,2.9891,2.9891,2.9891,2.9891,2.9891,2.9891,2.9891,0.0,0.0,0.0,0.0,0.0,0.0,0.0,0.0,0.0,0.0,0.0,0.0,0.0,0.0,0.0,0.0,0.0,0.0,1.5808,1.5808,1.5808,1.5808,1.5808,1.5848,1.5953,1.6434,1.6901,1.7341,1.7314,1.7313,1.7313,1.7006,1.6699,1.6417,1.6337,1.6165,1.594,1.5848,1.5808,1.5808,1.5808,1.5808,1.5808,0.0,0.0,0.0,0.0,0.0,0.0,0.0,0.0,0.0,1.7595,1.7889,1.829,1.8543,1.8926,1.9089,1.8391,2.0162,2.1863,2.045,2.231,2.4449,2.4352,2.4528,2.4788,2.5042,2.6286,2.7094,2.6406,0.0,0.0,0.0,0.0,0.0,0.0,0.0,0.0,0.0,0.0,0.0,0.0,0.0,0.0,0.0,0.0,0.0,0.0,0.0,0.0,0.0,2.9891,2.9891,2.9891,2.9891,2.9891,2.9891,2.9891,2.9891,2.9891,2.9891,2.9891,2.9891,2.9891,2.9891,2.9891,2.9891,2.9891,2.9891,2.9891,2.9891,2.9891,2.9891,2.9891,2.9891,0.0,0.0,0.0,0.0,0.0,0.0,0.0,0.0,0.0,0.0,1.5875,1.5808,0.0,0.0,0.0,0.0,0.0,0.0,1.5808,1.5808,1.5808,1.5808,1.5927,1.6112,1.6353,1.6713,1.7086,1.7434,1.7273,1.7126,1.6993,1.6939,1.6739,1.6459,1.6604,1.6472,1.6142,1.6047,1.5927,1.5809,1.5953,1.5927,1.5835,0.0,0.0,0.0,0.0,0.0,0.0,0.0,0.0,0.0,1.7916,1.8371,1.8892,1.9052,1.996,2.0808,2.0307,2.1953,2.369,2.3164,2.4186,2.5384,2.5577,2.5524,0.0,0.0,2.6727,2.7402,2.6987,0.0,0.0,0.0,0.0,0.0,0.0,0.0,0.0,0.0,0.0,0.0,0.0,0.0,0.0,0.0,0.0,0.0,0.0,0.0,0.0,0.0,2.9891,2.9891,2.9891,2.9891,2.9891,2.9891,2.9891,2.9891,2.9891,2.9891,2.9891,2.9891,2.9891,2.9891,2.9891,2.9891,2.9891,2.9891,2.9891,2.9891,2.9891,2.9891,2.9891,2.9891,0.0,0.0,0.0,0.0,0.0,0.0,0.0,0.0,0.0,1.6205,1.5992,1.5808,0.0,0.0,0.0,1.5808,1.5808,1.5808,1.5808,1.5808,1.5808,1.5808,1.6124,1.659,1.7192,1.7206,1.7206,1.7206,1.7179,1.6992,1.6673,1.6979,1.6965,1.6673,1.6979,1.6953,1.6647,1.6365,1.6072,1.5821,1.6126,1.6072,1.5861,1.6407,0.0,0.0,0.0,0.0,0.0,0.0,0.0,0.0,1.8383,1.8905,1.9401,1.9468,2.063,2.2021,2.2432,2.3523,2.4706,2.5379,2.5999,2.644,2.6513,2.6339,2.6305,2.6647,0.0,2.7436,0.0,0.0,0.0,0.0,0.0,0.0,0.0,0.0,0.0,0.0,0.0,0.0,0.0,0.0,0.0,0.0,0.0,0.0,0.0,0.0,0.0,0.0,2.9891,2.9891,2.9891,2.9891,2.9891,0.0,2.9891,2.9891,2.9891,2.9891,2.9891,2.9891,2.9891,2.9891,2.9891,2.9891,2.9891,2.9891,2.9891,2.9891,2.9891,2.9891,2.9891,2.9891,0.0,0.0,0.0,0.0,0.0,0.0,0.0,0.0,1.5821,1.59,1.5848,1.5808,1.5808,1.5808,0.0,1.5808,1.5808,1.5808,1.5808,1.5808,1.5808,1.5808,1.6124,1.659,1.7192,1.7206,1.7206,1.7206,1.6939,1.6659,1.6391,1.6458,1.647,1.6391,1.6458,1.6444,1.6377,1.6033,1.5861,1.5808,1.5875,1.5861,1.5809,1.5941,1.6247,0.0,0.0,0.0,0.0,0.0,0.0,0.0,1.8383,1.8905,1.9481,1.9892,2.0626,2.1617,2.3104,2.3875,2.4543,2.5617,2.6312,2.6854,2.7308,2.7569,2.7416,2.6399,2.7148,0.0,0.0,0.0,0.0,0.0,0.0,0.0,0.0,0.0,0.0,0.0,0.0,0.0,0.0,0.0,0.0,0.0,0.0,0.0,0.0,0.0,0.0,2.9891,2.9891,2.9891,2.9891,2.9891,2.9891,0.0,2.9891,2.9891,2.9891,2.9891,2.9891,2.9891,2.9891,2.9891,2.9891,2.9891,2.9891,2.9891,2.9891,2.9891,2.9891,2.9891,2.9891,2.9891,0.0,0.0,0.0,0.0,0.0,0.0,0.0,0.0,1.598,1.5821,1.5808,1.5808,1.5808,1.5808,0.0,0.0,1.5808,1.5808,1.5808,1.5808,1.5928,1.622,1.6393,1.6766,1.738,1.7273,1.7113,1.6966,1.6659,1.6444,1.6297,1.6297,1.6297,1.631,1.6432,1.6419,1.6284,1.6112,1.5953,1.5809,1.5967,1.594,1.5848,1.6299,1.6567,1.674,1.7021,0.0,0.0,0.0,0.0,0.0,0.0,0.0,1.9813,1.9958,2.0826,2.2031,2.3411,2.4213,2.4962,2.6292,2.6941,2.7362,2.7837,2.8171,2.8152,2.7229,0.0,0.0,0.0,0.0,0.0,0.0,0.0,0.0,0.0,0.0,0.0,0.0,0.0,0.0,0.0,0.0,0.0,0.0,0.0,0.0,0.0,2.9891,2.9891,2.9891,2.9891,2.9891,2.9891,2.9891,2.9891,2.9891,2.9891,2.9891,2.9891,2.9891,2.9891,2.9891,2.9891,2.9891,2.9891,2.9891,2.9891,2.9891,2.9891,2.9891,2.9891,2.9891,2.9891,2.9891,0.0,0.0,0.0,0.0,0.0,0.0,0.0,0.0,0.0,1.5835,1.5808,1.5808,1.5808,1.5808,1.5808,0.0,0.0,0.0,1.5808,1.5808,1.6061,1.6661,1.67,1.6954,1.7528,1.7313,1.7006,1.6633,1.6405,1.627,0.0,1.6205,1.6231,1.631,1.6473,1.6446,1.6297,1.6244,1.6059,1.5809,1.6099,1.6086,1.598,1.6752,1.6939,1.6847,1.7341,1.7568,1.7689,1.8304,0.0,0.0,0.0,0.0,2.0025,1.9853,2.0853,2.2228,2.3224,2.4307,2.551,2.6927,2.7502,2.7797,2.8112,2.8438,2.8577,2.8259,0.0,0.0,0.0,0.0,0.0,0.0,0.0,0.0,0.0,0.0,0.0,0.0,0.0,0.0,0.0,0.0,0.0,0.0,0.0,0.0,2.9891,2.9891,2.9891,2.9891,2.9891,2.9891,2.9891,2.9891,2.9891,2.9891,2.9891,2.9891,2.9891,2.9891,2.9891,2.9891,2.9891,2.9891,2.9891,2.9891,2.9891,2.9891,2.9891,2.9891,2.9891,2.9891,2.9891,2.9891,0.0,0.0,0.0,0.0,0.0,0.0,0.0,0.0,0.0,0.0,1.5808,1.5808,1.5808,1.5808,1.5808,1.5808,1.5808,1.5808,1.5808,0.0,0.0,1.6661,1.67,1.6873,1.7246,1.7219,1.6912,1.6351,1.631,1.6151,0.0,0.0,0.0,1.6284,1.6033,1.606,1.6284,1.5993,1.5848,1.5796,1.5848,1.6007,1.6244,1.6364,1.6724,1.7139,1.722,1.7394,1.7689,1.8304,1.8504,0.0,0.0,0.0,1.9562,1.9733,2.0132,2.0759,2.1911,2.3808,2.5745,2.6981,2.7502,2.7797,2.8112,2.8599,2.8796,0.0,0.0,0.0,0.0,0.0,0.0,0.0,0.0,0.0,0.0,0.0,0.0,0.0,0.0,0.0,0.0,0.0,0.0,0.0,0.0,0.0,2.9891,2.9891,2.9891,2.9891,2.9891,2.9891,2.9891,2.9891,2.9891,2.9891,2.9891,2.9891,2.9891,2.9891,2.9891,2.9891,2.9891,2.9891,2.9891,2.9891,2.9891,2.9891,2.9891,2.9891,2.9891,2.9891,2.9891,2.9891,0.0,0.0,0.0,0.0,0.0,0.0,0.0,0.0,0.0,0.0,0.0,1.5808,1.5808,1.5808,1.5808,1.5808,1.5808,1.5808,1.5808,1.5808,1.5995,1.6459,1.6472,1.6618,1.6913,1.6765,1.6564,1.6297,1.6112,0.0,0.0,1.5808,1.5875,0.0,0.0,1.5875,1.6019,1.5861,1.5808,1.5821,1.5993,1.6365,1.6805,1.6805,1.7166,1.7622,1.7474,1.7501,1.7689,1.8304,1.8504,1.8611,1.9214,0.0,0.0,0.0,1.976,2.0306,2.1801,2.3955,2.5938,2.662,2.7382,2.8072,2.8358,2.8716,2.889,0.0,0.0,0.0,0.0,0.0,0.0,0.0,0.0,0.0,0.0,0.0,0.0,0.0,0.0,0.0,0.0,0.0,0.0,0.0,0.0,2.9891,2.9891,2.9891,2.9891,2.9891,2.9891,2.9891,2.9891,2.9891,2.9891,2.9891,2.9891,2.9891,2.9891,2.9891,2.9891,2.9891,2.9891,2.9891,2.9891,2.9891,2.9891,2.9891,2.9891,2.9891,2.9891,2.9891,2.9891,2.9891,0.0,0.0,0.0,0.0,0.0,0.0,0.0,0.0,0.0,0.0,0.0,1.5808,1.5808,0.0,0.0,0.0,1.5701,1.5701,1.5701,1.5768,1.5953,1.6296,1.6297,1.6392,1.6593,1.6392,1.6257,1.6178,0.0,0.0,1.5808,1.5808,1.5808,0.0,1.5808,0.0,0.0,0.0,0.0,1.5848,1.6325,1.6845,1.734,1.7554,1.7929,1.8317,1.7956,1.7876,1.7996,1.8357,1.8558,1.8705,1.9241,1.9401,0.0,0.0,0.0,2.0252,2.1854,2.3719,2.5382,2.6112,2.7028,2.7898,2.847,0.0,2.8935,0.0,0.0,0.0,0.0,0.0,0.0,0.0,0.0,0.0,0.0,0.0,0.0,0.0,0.0,0.0,0.0,0.0,0.0,0.0,0.0,2.9891,2.9891,2.9891,2.9891,2.9891,2.9891,2.9891,2.9891,2.9891,2.9891,2.9891,2.9891,2.9891,2.9891,2.9891,2.9891,2.9891,2.9891,2.9891,2.9891,2.9891,2.9891,2.9891,2.9891,2.9891,2.9891,2.9891,2.9891,2.9891,0.0,0.0,0.0,0.0,0.0,0.0,0.0,0.0,0.0,0.0,0.0,1.5808,1.5808,1.5808,1.57,1.5444,1.5418,1.5418,1.5418,1.566,1.5953,1.6296,1.6297,0.0,1.6324,1.631,1.6139,1.5821,0.0,0.0,1.5808,1.5808,1.5808,1.5808,1.5808,1.5808,1.5808,0.0,0.0,1.5875,1.6792,1.7327,1.7662,1.849,1.9025,1.9254,1.8665,0.0,0.0,1.8571,1.8677,1.8944,1.9294,1.9401,1.9401,0.0,0.0,0.0,2.1683,2.2532,2.3536,2.5516,2.6246,2.6854,2.8283,0.0,2.8988,0.0,0.0,0.0,0.0,0.0,0.0,0.0,0.0,0.0,0.0,0.0,0.0,0.0,0.0,0.0,0.0,0.0,0.0,0.0,0.0,2.9891,2.9891,2.9891,2.9891,2.9891,2.9891,2.9891,2.9891,2.9891,2.9891,2.9891,2.9891,2.9891,2.9891,2.9891,2.9891,2.9891,2.9891,2.9891,2.9891,2.9891,2.9891,2.9891,2.9891,2.9891,2.9891,2.9891,2.9891,2.9891,0.0,0.0,0.0,0.0,0.0,0.0,0.0,0.0,0.0,0.0,0.0,0.0,0.0,1.5808,1.5768,1.5673,1.566,0.0,0.0,1.5741,1.5848,1.5967,1.598,1.598,1.598,1.598,1.5927,0.0,0.0,1.5808,1.5808,1.5808,1.5808,1.5808,1.5808,1.5927,1.6111,1.5888,0.0,0.0,0.0,1.8677,1.9331,1.9853,2.0363,2.0726,0.0,0.0,0.0,2.0271,2.0042,1.9533,1.9812,1.9681,1.9401,1.9401,1.9773,2.033,2.0991,2.201,2.3121,2.4035,2.505,2.6066,2.6974,2.7863,2.8545,0.0,0.0,0.0,0.0,0.0,0.0,0.0,0.0,0.0,0.0,0.0,0.0,0.0,0.0,0.0,0.0,0.0,0.0,0.0,0.0,0.0,2.9891,2.9891,2.9891,2.9891,2.9891,2.9891,2.9891,2.9891,2.9891,2.9891,2.9891,2.9891,2.9891,2.9891,2.9891,2.9891,2.9891,2.9891,2.9891,2.9891,2.9891,2.9891,2.9891,2.9891,2.9891,2.9891,2.9891,2.9891,0.0,0.0,0.0,0.0,0.0,0.0,0.0,0.0,0.0,1.6102,0.0,0.0,0.0,0.0,1.5768,1.5675,1.5673,1.5673,1.5673,1.5755,1.5808,1.5808,1.5808,1.5808,1.5808,1.5808,1.5808,1.5808,0.0,0.0,0.0,1.5808,1.5808,1.5808,1.5808,1.5915,0.0,0.0,0.0,1.67,0.0,0.0,1.963,0.0,0.0,0.0,0.0,0.0,0.0,0.0,0.0,2.0666,2.0681,2.0095,1.9401,1.9401,1.9773,2.025,2.0468,2.1392,2.2462,2.3136,2.3963,2.4957,2.6239,2.7235,2.8085,0.0,0.0,0.0,0.0,0.0,0.0,0.0,0.0,0.0,0.0,0.0,0.0,0.0,0.0,0.0,0.0,0.0,0.0,0.0,0.0,0.0,2.9891,2.9891,2.9891,2.9891,2.9891,2.9891,2.9891,2.9891,2.9891,2.9891,2.9891,2.9891,2.9891,2.9891,2.9891,2.9891,2.9891,2.9891,2.9891,2.9891,2.9891,2.9891,2.9891,2.9891,2.9891,2.9891,2.9891,2.9891,0.0,0.0,0.0,0.0,0.0,0.0,0.0,0.0,1.67,1.67,0.0,0.0,0.0,0.0,0.0,1.5431,1.5418,1.5418,1.5404,1.566,1.5808,1.5808,1.5808,1.5808,1.5808,1.5808,1.5808,1.5808,1.5808,1.5808,1.5808,1.5808,1.5808,1.5808,1.5808,1.5809,1.5835,0.0,1.631,1.6498,0.0,1.8651,1.8632,0.0,0.0,0.0,2.4339,2.5006,0.0,0.0,0.0,0.0,0.0,2.0554,1.9401,1.9401,1.9786,2.021,0.0,0.0,0.0,2.2882,2.3046,2.3549,2.6113,0.0,2.7657,0.0,0.0,0.0,0.0,0.0,0.0,0.0,0.0,0.0,0.0,0.0,0.0,0.0,0.0,0.0,0.0,0.0,0.0,0.0,0.0,2.9891,2.9891,2.9891,2.9891,2.9891,2.9891,2.9891,2.9891,2.9891,2.9891,2.9891,2.9891,2.9891,2.9891,2.9891,2.9891,2.9891,2.9891,2.9891,2.9891,2.9891,2.9891,2.9891,2.9891,2.9891,2.9891,2.9891,2.9891,2.9891,0.0,0.0,0.0,0.0,0.0,1.7206,1.7206,1.6926,1.67,0.0,0.0,0.0,0.0,0.0,1.6032,1.5726,1.5912,1.5951,1.5713,1.5768,1.5808,1.5808,1.5808,1.5808,1.5808,1.5808,1.5808,1.5808,1.5808,1.5808,1.5808,1.5808,1.5808,1.5809,1.6059,1.6165,1.6165,1.627,0.0,0.0,1.94,2.1558,0.0,0.0,0.0,0.0,0.0,2.8208,0.0,0.0,2.4904,2.1857,0.0,0.0,1.9441,1.9641,1.9932,2.025,2.0494,0.0,0.0,0.0,0.0,0.0,0.0,0.0,0.0,0.0,0.0,0.0,0.0,0.0,0.0,0.0,0.0,0.0,0.0,0.0,0.0,0.0,0.0,0.0,0.0,0.0,0.0,0.0,2.9891,2.9891,2.9891,2.9891,2.9891,2.9891,2.9891,2.9891,2.9891,2.9891,2.9891,2.9891,2.9891,2.9891,2.9891,2.9891,2.9891,2.9891,2.9891,2.9891,2.9891,2.9891,2.9891,2.9891,2.9891,2.9891,2.9891,2.9891,2.9891,2.9918,0.0,0.0,1.7809,1.7956,1.7849,1.7729,1.7729,1.7462,1.7235,0.0,0.0,0.0,0.0,0.0,1.6538,1.6195,1.6258,1.6258,1.618,1.6074,1.6019,1.6019,1.6019,1.594,1.5796,1.594,1.594,1.5808,1.594,1.6019,1.6019,1.6019,1.6074,1.6182,1.638,1.6539,1.6671,0.0,0.0,0.0,1.9694,0.0,0.0,2.6602,2.8764,0.0,0.0,0.0,2.9905,3.0615,2.8495,0.0,0.0,0.0,0.0,0.0,0.0,2.0454,2.0643,2.0911,2.112,0.0,0.0,0.0,0.0,0.0,0.0,0.0,0.0,0.0,0.0,0.0,0.0,0.0,0.0,0.0,0.0,0.0,0.0,0.0,0.0,0.0,0.0,0.0,0.0,2.9891,2.9891,2.9891,2.9891,2.9891,2.9891,2.9891,2.9891,2.9891,2.9891,2.9891,2.9891,2.9891,2.9891,2.9891,2.9891,2.9891,2.9891,2.9891,2.9891,2.9891,2.9891,2.9891,2.9891,2.9891,2.9891,2.9891,2.9891,2.9891,2.9993,3.015,0.0,0.0,1.8156,1.845,1.8504,1.8504,1.8504,1.825,1.8049,0.0,1.7822,1.7542,0.0,0.0,0.0,0.0,1.6538,1.6484,1.6687,1.6472,1.6351,1.6351,1.6351,1.6191,1.5861,1.6178,1.6179,1.586,1.6179,1.6351,1.6351,1.6351,1.6472,1.67,1.674,1.6913,1.7206,1.722,0.0,1.8786,1.9863,2.0684,0.0,0.0,2.9223,0.0,3.3339,3.4217,3.3747,3.3677,3.2316,0.0,0.0,0.0,0.0,0.0,2.0696,2.1057,2.0813,2.0909,2.1176,0.0,0.0,0.0,0.0,0.0,0.0,0.0,0.0,0.0,0.0,0.0,0.0,0.0,0.0,0.0,0.0,0.0,0.0,0.0,0.0,0.0,0.0,2.9891,2.9891,2.9891,2.9891,2.9891,2.9891,2.9891,2.9891,2.9891,2.9891,2.9891,2.9891,2.9891,2.9891,2.9891,2.9891,2.9891,2.9891,2.9891,2.9891,2.9891,2.9891,2.9891,2.9891,2.9891,2.9891,2.9891,2.9891,2.9918,2.9967,2.9904,3.0127,3.043,1.8343,1.841,1.8424,1.8491,1.8504,1.8504,1.8504,1.8437,1.841,1.841,1.8116,1.7889,0.0,0.0,0.0,0.0,1.7046,1.6926,1.6701,1.6647,1.662,1.662,1.662,1.6486,1.6217,1.6485,1.6473,1.6205,1.6473,1.662,1.662,1.662,1.6647,1.6701,1.6979,1.7152,1.7219,0.0,0.0,2.0066,2.2399,0.0,2.8559,3.2122,3.5188,3.7638,3.8032,3.7315,3.5648,0.0,3.1518,3.1084,0.0,0.0,0.0,0.0,0.0,0.0,0.0,0.0,0.0,0.0,0.0,0.0,0.0,0.0,0.0,0.0,0.0,0.0,0.0,0.0,0.0,0.0,0.0,0.0,0.0,0.0,0.0,0.0,0.0,0.0,0.0,2.9891,2.9891,2.9891,2.9891,2.9891,2.9891,2.9891,2.9891,2.9891,2.9891,2.9891,2.9891,2.9891,2.9891,2.9891,2.9891,2.9891,2.9891,2.9891,2.9891,2.9891,2.9891,2.9891,2.9891,2.9891,2.9891,2.9891,2.9891,3.006,3.027,3.0007,3.0247,3.0715,1.861,1.869,1.8758,1.8919,1.9066,1.9092,1.8959,1.8945,1.8892,1.8731,1.8543,1.8516,1.8677,0.0,0.0,0.0,1.7975,1.7895,1.7192,1.7654,1.7659,1.6978,1.6953,1.6819,1.6512,1.6805,1.6793,1.6499,1.6793,1.6953,1.6953,1.6953,1.7181,1.7582,1.7461,1.7934,0.0,0.0,1.9906,2.2558,2.2628,0.0,2.7334,3.0598,3.3619,3.6213,3.7464,3.8216,3.8044,3.4035,3.2858,0.0,0.0,2.7464,2.674,0.0,2.3959,2.3066,0.0,0.0,0.0,2.1312,0.0,0.0,0.0,0.0,0.0,0.0,0.0,0.0,0.0,0.0,0.0,0.0,0.0,0.0,0.0,0.0,0.0,0.0,0.0,0.0,0.0,0.0,3.0074,2.9904,2.9891,2.9891,2.9891,2.9891,2.9891,2.9891,2.9891,2.9891,2.9891,2.9891,2.9891,2.9891,2.9891,2.9891,2.9891,2.9891,2.9891,2.9891,2.9891,2.9891,2.9891,2.9891,3.0007,3.0163,3.0163,3.0243,3.04,3.0354,3.0635,3.1009,1.8877,1.8997,1.9092,1.9361,1.9574,1.9654,1.9428,1.9401,1.9293,1.9024,1.9051,1.9369,2.0114,0.0,0.0,0.0,0.0,1.9637,1.8355,1.9056,1.9065,1.8024,1.7522,1.718,1.6955,1.7167,1.7113,1.6806,1.7113,1.7286,1.7286,1.7286,1.7648,1.8317,0.0,0.0,0.0,0.0,0.0,2.5483,0.0,2.3714,2.5552,2.9288,3.1743,3.3554,3.6435,3.8838,4.0103,3.6603,0.0,3.4573,3.0499,2.8391,0.0,0.0,0.0,0.0,0.0,0.0,0.0,0.0,0.0,2.1606,0.0,0.0,0.0,0.0,0.0,0.0,0.0,0.0,0.0,0.0,0.0,0.0,0.0,0.0,0.0,0.0,0.0,0.0,0.0,0.0,3.0217,3.002,2.99,2.9887,2.9993,2.994,2.9891,2.9891,2.9891,2.9891,2.9891,2.9891,2.9891,2.9891,2.9891,2.9891,2.9891,2.9891,2.9891,2.9891,2.9891,2.9891,2.9927,2.998,3.0163,3.04,3.04,3.0457,3.0564,3.0751,3.1009,3.1279,1.9213,1.9348,1.9361,1.9388,1.9428,1.9441,1.9401,1.9401,1.9388,1.9348,1.9561,2.0548,0.0,0.0,0.0,0.0,0.0,0.0,2.0833,0.0,2.0718,2.0744,1.8693,1.7649,1.7849,1.7662,1.7421,1.7139,1.7421,1.7542,1.7542,1.7542,1.7608,1.7729,1.845,0.0,0.0,0.0,2.473,0.0,2.8559,2.9194,0.0,3.513,3.6817,3.7087,3.9738,4.088,4.082,0.0,3.8649,3.8633,0.0,3.484,0.0,0.0,0.0,0.0,0.0,0.0,0.0,0.0,2.2881,0.0,0.0,0.0,0.0,0.0,0.0,0.0,0.0,0.0,0.0,0.0,0.0,0.0,0.0,0.0,0.0,0.0,0.0,0.0,0.0,0.0,0.0,3.031,2.9856,2.9789,3.031,3.006,2.9891,2.9891,2.9891,2.9891,2.9891,2.9891,2.9891,2.9891,2.9891,2.9891,2.9891,2.9891,2.9891,2.9891,2.9891,2.9891,2.9918,3.023,3.0373,3.04,3.04,3.0698,3.1079,3.0875,3.1166,3.1607,1.9281,1.9401,1.9401,1.9401,1.9535,1.9574,1.9428,1.9401,1.9829,2.1041,2.0376,0.0,0.0,0.0,0.0,0.0,0.0,0.0,0.0,0.0,2.3185,2.3344,1.9808,1.8549,2.0061,1.8438,1.7528,1.7421,1.7528,1.7595,1.7595,1.7756,1.8023,1.8465,2.0758,0.0,2.471,0.0,0.0,0.0,0.0,0.0,0.0,3.4216,3.579,3.7259,4.0163,4.1191,4.1074,0.0,3.872,0.0,0.0,0.0,0.0,0.0,0.0,0.0,0.0,0.0,0.0,0.0,0.0,0.0,0.0,0.0,2.2178,0.0,0.0,0.0,0.0,0.0,0.0,0.0,0.0,0.0,0.0,0.0,0.0,0.0,0.0,0.0,0.0,0.0,0.0,0.0,0.0,2.9406,2.9856,3.0083,3.01,2.9927,2.9891,2.9891,2.9891,2.9891,2.9891,2.9891,2.9891,2.9891,2.9891,2.9891,2.9891,2.9904,3.0123,3.0203,3.0217,3.0511,3.0715,3.0862,3.0862,3.0986,3.1213,3.1276,3.1487,3.1674,1.9872,1.9678,1.9374,1.928,1.9507,1.9627,1.9428,1.9401,1.9971,0.0,0.0,0.0,2.4286,2.3635,0.0,0.0,0.0,2.7503,0.0,0.0,2.5468,0.0,0.0,0.0,0.0,2.0156,1.8653,1.8337,1.8009,1.7796,1.7716,1.7996,1.859,1.9514,0.0,2.5107,2.7806,0.0,0.0,3.4102,3.4062,3.3962,3.3868,3.4172,3.529,3.7101,4.0105,4.0686,4.0144,4.0783,3.8973,0.0,3.7755,0.0,0.0,0.0,0.0,0.0,3.0389,0.0,0.0,0.0,0.0,0.0,0.0,0.0,0.0,0.0,0.0,0.0,0.0,0.0,0.0,0.0,0.0,0.0,0.0,0.0,0.0,0.0,0.0,0.0,0.0,0.0,0.0,0.0,0.0,0.0,2.9708,3.0003,3.0123,3.0034,2.9953,2.9891,2.9891,2.9891,2.9891,2.9891,2.9891,2.9891,2.9891,2.9891,2.9967,3.0047,3.0283,3.043,3.0524,3.0795,3.1012,3.1213,3.1293,3.1343,3.137,3.1607,3.1687,3.1687,2.1381,2.0386,1.9308,1.8971,1.92,1.9401,1.9401,1.9401,0.0,0.0,0.0,0.0,0.0,0.0,0.0,0.0,0.0,3.2085,3.0826,0.0,2.7231,0.0,0.0,0.0,0.0,0.0,2.1324,2.0212,1.9028,1.8317,1.7982,1.833,1.925,2.0701,2.2106,2.5434,3.0077,3.1442,3.4701,3.8984,3.8968,3.7971,3.657,0.0,3.7442,3.7352,4.0182,0.0,0.0,3.9759,4.0431,0.0,0.0,0.0,0.0,0.0,0.0,0.0,0.0,0.0,0.0,2.987,0.0,0.0,0.0,0.0,2.2867,0.0,0.0,0.0,0.0,0.0,0.0,0.0,0.0,0.0,0.0,0.0,0.0,0.0,0.0,0.0,0.0,0.0,0.0,0.0,0.0,0.0,3.0279,2.9829,2.9789,3.0373,3.0074,2.9891,2.9891,2.9891,2.9891,2.9891,2.9891,2.9891,2.9891,2.9891,3.0074,3.0386,3.04,3.0537,3.0795,3.1066,3.1199,3.1226,3.1567,3.1674,3.1674,3.1687,3.1687,3.1687,2.2738,2.1746,2.0515,1.9412,1.932,2.0167,0.0,2.1828,0.0,0.0,0.0,0.0,0.0,0.0,3.0763,0.0,0.0,3.3945,3.2562,3.1093,0.0,0.0,0.0,2.6446,0.0,0.0,2.3452,2.2471,2.0781,1.9904,1.9789,2.0079,2.0501,2.1141,2.5243,2.8787,0.0,0.0,0.0,0.0,0.0,3.8096,3.7282,0.0,0.0,3.7579,4.0546,4.1169,0.0,4.1482,4.1387,4.0918,4.0762,3.996,3.8853,3.7991,3.733,0.0,0.0,0.0,3.6998,3.486,0.0,0.0,0.0,0.0,0.0,0.0,0.0,0.0,0.0,0.0,0.0,0.0,0.0,0.0,0.0,0.0,0.0,0.0,0.0,0.0,0.0,0.0,0.0,0.0,0.0,0.0,0.0,2.9989,3.0199,3.04,3.0283,3.0114,2.9891,2.9891,2.9891,2.9891,2.9891,2.9891,2.9904,3.0114,3.0283,3.0426,3.0791,3.0982,3.1079,3.1396,3.154,3.153,3.1647,3.1687,3.1687,3.1687,3.1687,3.1687,2.364,2.257,2.1204,1.9527,1.9866,0.0,0.0,0.0,0.0,0.0,2.7433,0.0,3.1817,0.0,3.2651,0.0,3.5314,3.529,3.4501,3.3363,0.0,3.5519,3.1417,0.0,0.0,0.0,0.0,2.545,2.3167,2.2002,2.1877,2.1999,2.2342,2.3058,2.688,3.0168,3.2976,0.0,3.7109,0.0,0.0,3.829,0.0,0.0,3.9258,3.6995,0.0,4.1536,4.1116,4.2259,4.2187,4.1699,4.2129,4.1308,4.0214,4.0312,3.9883,3.9531,4.0351,4.0762,0.0,3.7769,3.6744,0.0,3.1696,0.0,0.0,0.0,0.0,0.0,0.0,0.0,0.0,0.0,0.0,0.0,0.0,0.0,0.0,0.0,0.0,0.0,0.0,0.0,0.0,0.0,0.0,0.0,0.0,0.0,3.011,3.0524,3.0337,3.0114,2.9891,2.9891,2.9891,2.9891,2.9891,2.9944,3.0074,3.0297,3.0497,3.0711,3.1039,3.1266,3.1396,3.162,3.1687,3.1687,3.1687,3.1687,3.1687,3.1687,3.1687,3.1687,2.4275,0.0,0.0,0.0,2.1089,0.0,0.0,0.0,2.7045,0.0,2.8501,2.9909,3.115,3.2089,3.3718,3.6498,3.6367,0.0,3.6736,3.4619,0.0,0.0,3.3966,3.3583,3.5416,0.0,0.0,0.0,2.6062,2.4487,2.4164,2.4008,2.473,2.6204,2.7002,0.0,3.3539,3.5198,3.6992,3.8729,3.9199,3.8823,3.8236,4.0469,0.0,3.598,4.0721,4.0761,3.904,4.2071,4.2793,4.2499,4.2911,4.3048,4.2989,4.2538,4.2734,4.293,4.2129,4.1309,4.0318,3.8744,0.0,0.0,0.0,0.0,3.3392,0.0,0.0,0.0,0.0,0.0,0.0,0.0,0.0,0.0,0.0,0.0,0.0,0.0,0.0,0.0,0.0,0.0,0.0,0.0,0.0,0.0,0.0,0.0,0.0,3.0728,3.0234,2.9904,2.9891,2.9878,2.9878,2.9878,2.9891,3.0074,3.04,3.0426,3.0711,3.1199,3.1213,3.141,3.1687,3.1687,3.1687,3.1687,3.1687,3.1687,3.1687,3.1687,3.1687,3.1687,2.6703,2.5273,2.448,0.0,2.6159,2.7242,0.0,0.0,0.0,0.0,3.1148,3.139,3.4861,3.6279,3.7016,3.715,3.7635,0.0,0.0,0.0,0.0,3.791,3.6719,3.616,3.6365,3.394,0.0,3.1334,0.0,2.6537,2.6445,2.6105,2.6337,2.7042,2.8032,3.0509,3.3961,3.4391,3.668,4.0118,4.1543,4.0996,0.0,0.0,4.1423,3.9452,4.2008,4.2644,4.2396,4.2924,4.3028,4.2833,4.2285,4.2344,4.2558,4.2441,4.2734,4.3204,4.3613,4.3574,4.3139,4.2089,4.1046,3.9931,0.0,0.0,0.0,0.0,0.0,0.0,0.0,0.0,0.0,0.0,0.0,0.0,0.0,0.0,0.0,0.0,0.0,0.0,0.0,0.0,0.0,0.0,0.0,0.0,0.0,0.0,0.0,3.0457,3.035,3.0163,2.9891,2.97,2.9593,2.9606,2.9784,3.0074,3.0413,3.0604,3.0875,3.1213,3.1463,3.162,3.1687,3.1687,3.1687,3.1687,3.1687,3.1687,3.1687,3.1687,3.1687,3.1687,2.7647,0.0,0.0,2.7621,0.0,0.0,3.0787,0.0,0.0,3.4632,3.42,0.0,3.6467,3.7654,3.8164,3.7891,3.8319,0.0,0.0,0.0,0.0,3.8611,3.8495,3.832,3.8104,3.6291,0.0,3.359,0.0,2.905,2.8305,2.7865,2.7776,2.8029,2.9019,3.0781,3.3047,3.4587,3.6951,3.9805,4.1348,0.0,0.0,4.2598,4.2519,4.1758,4.2754,4.3243,4.3398,4.3184,4.2852,4.2461,4.1953,4.207,4.2382,4.2187,4.2598,4.3204,4.3712,4.3849,4.3771,4.3437,4.2988,4.2402,4.1484,4.1308,4.0919,0.0,0.0,0.0,0.0,0.0,0.0,0.0,0.0,0.0,0.0,0.0,0.0,0.0,0.0,0.0,0.0,0.0,0.0,0.0,0.0,0.0,0.0,0.0,0.0,3.0337,3.0136,2.9856,2.9517,2.9633,2.9606,2.9508,2.9913,3.0283,3.0578,3.0849,3.1142,3.1423,3.162,3.1687,3.1687,3.1687,3.1687,3.1687,3.1687,3.1687,3.1687,3.1687,3.1687,3.1687,0.0,0.0,0.0,0.0,0.0,0.0,0.0,3.4274,0.0,3.553,0.0,3.729,3.6758,3.7461,3.8105,0.0,0.0,3.8476,3.8009,3.9199,3.9551,3.8807,3.9511,3.9902,3.9902,3.8575,0.0,0.0,0.0,3.1475,2.9755,2.9297,2.9107,2.9185,2.9902,3.0879,3.2231,3.5544,3.7752,0.0,4.0351,4.1543,4.2558,4.2441,4.2695,4.3106,4.3106,4.3067,4.3008,4.295,4.2441,4.1875,4.1816,4.207,4.2343,4.2051,4.252,4.3106,4.3165,4.3184,4.3263,4.3613,4.3711,4.3613,4.3263,4.3184,4.3184,4.3184,4.2305,0.0,0.0,0.0,0.0,0.0,0.0,0.0,0.0,0.0,0.0,0.0,0.0,0.0,0.0,0.0,0.0,0.0,0.0,0.0,0.0,0.0,0.0,3.015,2.9749,0.0,2.9077,0.0,2.9726,2.9508,3.0096,3.0537,3.0808,3.1066,3.1383,3.1687,3.1687,3.1687,3.1687,3.1687,3.1687,3.1687,3.1687,3.1687,3.1687,3.1687,3.1687,3.1687,0.0,0.0,0.0,0.0,0.0,3.4235,3.5276,3.4142,3.3976,3.6193,3.576,0.0,3.6597,3.7752,3.8221,3.7578,3.8476,0.0,0.0,0.0,0.0,3.9668,3.9824,3.9902,3.9902,3.8575,3.7072,0.0,0.0,0.0,3.0659,3.0195,3.0176,3.0527,3.0293,3.1875,3.4863,3.7264,0.0,4.1308,4.2266,4.2969,4.3378,4.2675,4.2695,4.3106,4.3106,4.2851,4.246,4.2148,4.2148,4.2246,4.1914,4.207,4.246,4.2794,4.2989,4.3165,4.3496,4.3594,4.3613,4.3691,4.3711,4.3691,4.3613,4.3594,4.3594,4.3594,4.3418,4.3105,4.2616,0.0,0.0,0.0,0.0,0.0,0.0,0.0,0.0,0.0,0.0,0.0,0.0,0.0,0.0,0.0,0.0,0.0,0.0,0.0,0.0,0.0,0.0,0.0,0.0,0.0,2.9561,2.9508,3.0096,3.0537,3.0808,3.1066,3.1383,3.1687,3.1687,3.1687,3.1687,3.1687,3.1687,3.1687,3.1687,3.1687,3.1687,3.1687,3.1687,3.1687,0.0,0.0,0.0,0.0,0.0,0.0,0.0,3.5814,0.0,3.747,3.6903,3.6611,3.7255,3.8084,3.8514,3.8301,3.9062,3.957,3.959,3.998,4.0312,4.0566,4.0332,0.0,4.0566,0.0,3.834,3.5723,0.0,0.0,3.0527,3.0307,3.0312,3.06,3.1714,3.316,3.4919,0.0,0.0,4.0937,4.2481,4.3223,4.334,4.293,4.2891,4.3067,4.2812,4.2577,4.2402,4.2461,4.2441,4.2382,4.2167,4.2402,4.2812,4.3028,4.3243,4.3437,4.3652,4.3711,4.3711,4.3711,4.3711,4.3711,4.3711,4.3711,4.3711,4.3711,4.3711,4.332,4.2012,3.9122,0.0,0.0,0.0,0.0,0.0,0.0,0.0,0.0,0.0,0.0,0.0,0.0,0.0,0.0,0.0,0.0,0.0,0.0,0.0,0.0,0.0,0.0,0.0,0.0,0.0,2.9521,3.0381,3.0889,3.1022,3.1316,3.1554,3.1687,3.1687,3.1687,3.1687,3.1687,3.1687,3.1687,3.1687,3.1687,3.1687,3.1687,3.1687,3.1687,0.0,3.3848,0.0,0.0,3.4749,0.0,0.0,3.7637,3.8223,3.8671,3.834,3.8048,3.8048,3.8437,3.8866,3.918,3.9707,4.0137,4.0352,4.045,4.0664,4.1035,4.0703,4.0723,4.1191,4.1191,3.9667,0.0,0.0,0.0,3.0879,3.0718,3.0874,3.1387,0.0,0.0,0.0,0.0,4.0234,4.0742,4.2422,4.3145,4.3204,4.3008,4.3008,4.3048,4.2695,4.2538,4.2616,4.3066,4.293,4.2538,4.2538,4.2871,4.3223,4.3223,4.3437,4.3711,4.3711,4.3711,4.3711,4.3711,4.3711,4.3711,4.3711,4.3711,4.3711,4.3711,4.3711,4.3242,4.1738,3.9888,0.0,0.0,0.0,0.0,0.0,0.0,0.0,0.0,0.0,0.0,0.0,0.0,0.0,0.0,0.0,0.0,0.0,0.0,0.0,0.0,0.0,2.9152,2.9001,0.0,3.0327,0.0,3.0732,3.1199,3.1213,3.1554,3.1687,3.1687,3.1687,3.1687,3.1687,3.1687,3.1687,3.1687,3.1687,3.1687,3.1687,3.1687,3.1687,3.1687,0.0,0.0,0.0,0.0,0.0,0.0,0.0,3.8475,3.869,3.9082,3.8788,3.8534,3.8534,3.8887,3.916,3.9199,3.9961,4.0312,3.998,4.0293,4.0528,4.0567,4.0528,4.0723,4.1191,4.1191,4.0273,0.0,0.0,0.0,0.0,3.2359,3.3043,0.0,0.0,0.0,0.0,4.0118,4.1367,4.2813,4.3008,4.3321,4.3555,4.2753,4.2734,4.3087,4.3048,4.3028,4.3106,4.3496,4.3359,4.3028,4.3028,4.3301,4.3652,4.3652,4.3672,4.3711,4.3711,4.3711,4.3711,4.3711,4.3711,4.3711,4.3711,4.3711,4.3711,4.3711,4.3711,4.3418,4.246,4.2729,4.1592,0.0,0.0,0.0,0.0,0.0,0.0,0.0,0.0,0.0,0.0,0.0,0.0,0.0,2.5595,0.0,0.0,0.0,0.0,2.8684,0.0,2.8532,2.8988,2.9651,0.0,3.0675,3.1026,3.1199,3.1213,3.1554,3.1687,3.1687,3.1687,3.1687,3.1687,3.1687,3.1687,3.1687,3.1687,3.1687,3.1687,3.1687,3.1687,3.1687,0.0,0.0,0.0,0.0,0.0,0.0,0.0,3.8945,3.9199,3.9883,3.916,3.8592,3.8592,3.8945,3.9316,3.959,4.0157,4.043,4.0254,4.0176,4.0235,4.0489,4.0254,4.0469,4.1172,4.1191,4.035,0.0,0.0,0.0,0.0,3.3965,0.0,0.0,0.0,3.9122,4.0332,4.1543,4.2441,4.3106,4.3106,4.3204,4.3301,4.2949,4.3086,4.3418,4.3184,4.3263,4.3476,4.3652,4.3594,4.3457,4.3457,4.3574,4.3711,4.3711,4.3711,4.3711,4.3711,4.3711,4.3711,4.3711,4.3711,4.3711,4.3711,4.3711,4.3711,4.3711,4.3711,4.3594,4.3241,4.3026,4.1985,0.0,0.0,0.0,0.0,0.0,0.0,0.0,0.0,0.0,0.0,0.0,0.0,0.0,0.0,0.0,0.0,0.0,0.0,2.803,0.0,2.9325,2.9544,3.0154,3.0555,3.0795,3.1276,3.149,3.149,3.1634,3.1687,3.1687,3.1687,3.1687,3.1687,3.1687,3.1687,3.1687,3.1687,3.1687,3.1687,3.1687,3.1687,3.1687,3.8536,0.0,3.8829,0.0,3.9043,3.9413,3.957,3.9571,3.9747,4.0254,3.9531,3.8983,3.8983,3.9453,3.9863,4.0059,4.0567,4.0723,4.0352,4.0176,4.0196,4.0489,4.0371,0.0,4.1523,4.1543,4.0957,3.9726,3.8319,0.0,0.0,3.6113,0.0,0.0,4.0215,4.1016,4.1367,4.2695,4.3204,4.3106,4.3243,4.3282,4.3282,4.3282,4.3437,4.3672,4.338,4.3457,4.3711,4.3711,4.3711,4.3711,4.3711,4.3711,4.3711,4.3711,4.3711,4.3711,4.3711,4.3711,4.3711,4.3711,4.3711,4.3711,4.3711,4.3711,4.3711,4.3711,4.3711,4.3711,4.3711,4.33,4.2497,4.1022,0.0,0.0,0.0,0.0,0.0,0.0,0.0,0.0,0.0,0.0,0.0,0.0,0.0,0.0,0.0,0.0,0.0,0.0,0.0,0.0,0.0,3.0368,3.0818,3.1086,3.15,3.1687,3.1687,3.1687,3.1687,3.1687,3.1687,3.1687,3.1687,3.1687,3.1687,3.1687,3.1687,3.1687,3.1687,3.1687,3.1687,3.1687,4.0391,4.084,4.1015,4.0547,4.0859,4.1015,4.0547,4.0489,4.0352,3.9961,3.9883,3.9883,3.9883,4.0664,4.0996,4.0528,4.1269,4.125,3.998,4.0274,4.0489,0.0,0.0,4.1562,4.2382,4.2382,4.2382,4.2363,0.0,0.0,3.9824,3.8964,3.9706,4.1758,4.1777,4.2246,4.3106,4.3516,4.3457,4.3126,4.3535,4.3691,4.3691,4.3691,4.3691,4.3711,4.3691,4.3691,4.3711,4.3711,4.3711,4.3711,4.3711,4.3711,4.3711,4.3711,4.3711,4.3711,4.3711,4.3711,4.3711,4.3711,4.3711,4.3711,4.3711,4.3711,4.3711,4.3711,4.3711,4.3711,4.3711,4.4062,4.3945,4.2596,0.0,0.0,0.0,0.0,0.0,0.0,3.013,3.185,3.8457,0.0,0.0,0.0,0.0,0.0,0.0,0.0,0.0,2.8551,2.8353,0.0,2.9508,3.0096,3.0841,3.1687,3.1687,3.1687,3.1687,3.1687,3.1687,3.1687,3.1687,3.1687,3.1687,3.1687,3.1687,3.1687,3.1687,3.1687,3.1687,3.1687,3.1687,3.1687,4.0078,4.0703,4.0976,4.0215,4.0449,4.0664,4.0528,4.0273,4.0254,4.0722,4.0781,4.0781,4.0781,4.1035,4.1133,0.0,4.1484,4.1387,0.0,4.0723,4.0996,4.0996,4.1367,4.1855,4.2402,4.2402,4.2402,4.2402,0.0,0.0,0.0,4.1074,4.1875,4.3105,4.3105,4.3242,4.3516,4.3652,4.3633,4.3516,4.3652,4.3711,4.3711,4.3711,4.3711,4.3711,4.3711,4.3711,4.3711,4.3711,4.3711,4.3711,4.3711,4.3711,4.3711,4.3711,4.3711,4.3711,4.3711,4.3711,4.3711,4.3711,4.3711,4.3711,4.3711,4.3711,4.3711,4.3711,4.3711,4.3711,4.3711,4.3828,4.3691,4.2988,4.3133,0.0,0.0,0.0,0.0,0.0,0.0,3.2857,0.0,0.0,0.0,0.0,0.0,0.0,0.0,0.0,0.0,0.0,2.9388,0.0,3.0096,3.0484,3.1019,3.1687,3.1687,3.1687,3.1687,3.1687,3.1687,3.1687,3.1687,3.1687,3.1687,3.1687,3.1687,3.1687,3.1687,3.1687,3.1687,3.1687,3.1687,3.1687,4.0156,4.0722,4.1015,4.0488,4.0586,4.0762,4.0762,4.0547,4.0585,4.1133,4.1328,4.1426,4.1426,4.1562,0.0,4.123,4.1582,4.1426,4.0567,4.0937,4.1269,4.1426,4.1816,4.2285,4.287,0.0,0.0,4.289,4.1933,4.1699,4.2149,4.25,4.3047,4.3711,4.3711,4.3711,4.3711,4.3711,4.3711,4.3711,4.3711,4.3711,4.3711,4.3711,4.3711,4.3711,4.3711,4.3711,4.3711,4.3711,4.3711,4.3711,4.3711,4.3711,4.3711,4.3711,4.3711,4.3711,4.3711,4.3711,4.3711,4.3711,4.3711,4.3711,4.3711,4.3711,4.3711,4.3711,4.3711,4.3711,4.3711,4.3711,4.3672,4.3614,4.4043,4.3428,4.067,0.0,0.0,0.0,0.0,0.0,0.0,3.2594,0.0,0.0,0.0,0.0,0.0,0.0,0.0,2.8826,2.9887,0.0,3.0551,3.0808,3.1196,3.1687,3.1687,3.1687,3.1687,3.1687,3.1687,3.1687,3.1687,3.1687,3.1687,3.1687,3.1687,3.1687,3.1687,3.1687,3.1687,3.1687,3.1687,3.1687,4.0586,4.0879,0.0,0.0,4.1172,0.0,4.1191,4.1191,4.1191,4.1191,4.1562,4.1797,4.1758,4.2109,4.2051,4.1269,0.0,0.0,0.0,4.0996,4.1445,4.1836,4.2246,4.287,4.3691,4.3711,4.3691,4.3652,4.3321,4.3321,4.3652,4.3302,4.3341,4.3711,4.3711,4.3711,4.3711,4.3711,4.3711,4.3711,4.3711,4.3711,4.3711,4.3711,4.3711,4.3711,4.3711,4.3711,4.3711,4.3711,4.3711,4.3711,4.3711,4.3711,4.3711,4.3711,4.3711,4.3711,4.3711,4.3711,4.3711,4.3711,4.3711,4.3711,4.3711,4.3711,4.3711,4.3711,4.3711,4.3711,4.3711,4.3711,4.3848,4.4277,4.4355,4.3582,4.137,0.0,0.0,0.0,0.0,0.0,0.0,3.2795,3.4322,0.0,0.0,0.0,0.0,0.0,2.8537,2.9944,2.9998,3.0265,3.0822,3.1116,3.1396,3.1687,3.1687,3.1687,3.1687,3.1687,3.1687,3.1687,3.1687,3.1687,3.1687,3.1687,3.1687,3.1687,3.1687,3.1687,3.1687,3.1687,3.1687,3.1687,0.0,0.0,4.1094,4.0742,4.0957,4.1191,4.1191,4.1191,4.1191,4.1191,4.1562,4.168,4.1367,4.1699,4.1738,4.123,4.1582,4.1582,4.1074,4.1719,4.2148,4.2246,4.2987,4.3496,4.3691,4.3711,4.3555,4.3243,4.3437,4.3437,4.3243,4.3457,4.3613,4.3711,4.3711,4.3711,4.3711,4.3711,4.3711,4.3711,4.3711,4.3711,4.3711,4.3711,4.3711,4.3711,4.3711,4.3711,4.3711,4.3711,4.3711,4.3711,4.3711,4.3711,4.3711,4.3711,4.3711,4.3711,4.3711,4.3711,4.3711,4.3711,4.3711,4.3711,4.3711,4.3711,4.3711,4.3711,4.3711,4.3711,4.3711,4.3711,4.373,4.3848,4.3867,4.3121,4.0947,4.0264,0.0,0.0,3.2909,3.2815,3.365,3.5586,3.6741,0.0,0.0,0.0,0.0,3.0985,3.0123,3.0865,3.1129,3.1209,3.1106,3.141,3.162,3.1687,3.1687,3.1687,3.1687,3.1687,3.1687,3.1687,3.1687,3.1687,3.1687,3.1687,3.1687,3.1687,3.1687,3.1687,3.1687,3.1687,3.1687,3.1687,4.0625,4.0879,4.1113,4.0859,4.1035,4.1191,4.1191,4.1191,4.1191,4.1191,4.1562,4.1641,4.123,4.1562,4.1621,4.125,4.1406,4.1445,4.1211,4.1777,4.2207,4.2402,4.3066,4.3496,4.3691,4.3711,4.3594,4.3359,4.3398,4.3419,4.338,4.3398,4.3516,4.3711,4.3711,4.3711,4.3711,4.3711,4.3711,4.3711,4.3711,4.3711,4.3711,4.3711,4.3711,4.3711,4.3711,4.3711,4.3711,4.3711,4.3711,4.3711,4.3711,4.3711,4.3711,4.3711,4.3711,4.3711,4.3711,4.3711,4.3711,4.3711,4.3711,4.3711,4.3711,4.3711,4.3711,4.3711,4.3711,4.3711,4.3711,4.3711,4.3711,4.3711,4.2692,4.1601,4.0635,3.9515,0.0,3.5651,3.5322,3.5319,3.5384,3.7798,3.908,3.8339,0.0,0.0,3.5403,3.3153,3.1715,3.1233,3.1383,3.145,3.1423,3.1607,3.1687,3.1687,3.1687,3.1687,3.1687,3.1687,3.1687,3.1687,3.1687,3.1687,3.1687,3.1687,3.1687,3.1687,3.1687,3.1687,3.1687,3.1687,3.1687,3.1687,4.0742,4.0937,4.1191,4.1191,4.1191,4.1191,4.1191,4.1191,4.1191,4.1191,4.1504,4.1562,4.123,4.1484,4.1562,4.123,4.1191,4.1191,4.1191,4.1582,4.1992,4.2382,4.2851,4.3321,4.3789,4.3808,4.375,4.3613,4.3341,4.332,4.3594,4.3301,4.3359,4.3711,4.3711,4.3711,4.3711,4.3711,4.3711,4.3711,4.3711,4.3711,4.3711,4.3711,4.3711,4.3711,4.3711,4.3711,4.3711,4.3711,4.3711,4.3711,4.3711,4.3711,4.3711,4.3711,4.3711,4.3711,4.3711,4.3711,4.3711,4.3711,4.3711,4.3711,4.3711,4.3711,4.3711,4.3711,4.3711,4.3711,4.3711,4.3711,4.3672,4.3535,4.1418,3.992,4.0249,0.0,3.7132,3.655,3.7291,3.7553,3.6863,3.9294,4.1043,4.1403,4.0956,0.0,0.0,3.5537,3.3115,3.1256,3.1253,3.141,3.1687,3.1687,3.1687,3.1687,3.1687,3.1687,3.1687,3.1687,3.1687,3.1687,3.1687,3.1687,3.1687,3.1687,3.1687,3.1687,3.1687,3.1687,3.1687,3.1687,3.1687,3.1687,4.1113,4.1152,4.1191,4.1191,4.1191,4.1191,4.1191,4.1191,4.1191,4.1191,4.125,4.1269,4.1211,4.125,4.1269,4.1211,4.1191,4.1191,4.1191,4.1582,4.1992,4.2382,4.2851,4.3477,4.4277,4.4297,4.3926,4.3204,4.3457,4.3457,4.3204,4.3476,4.3633,4.3711,4.3711,4.3711,4.3711,4.3711,4.3711,4.3711,4.3711,4.3711,4.3711,4.3711,4.3711,4.3711,4.3711,4.3711,4.3711,4.3711,4.3711,4.3711,4.3711,4.3711,4.3711,4.3711,4.3711,4.3711,4.3711,4.3711,4.3711,4.3711,4.3711,4.3711,4.3711,4.3711,4.3711,4.3711,4.3711,4.3711,4.3711,4.3711,4.3457,4.2714,4.1022,3.9718,3.9447,0.0,3.8477,3.4591,3.7811,3.9407,3.7036,3.9294,4.1723,4.3724,4.2342,4.0407,3.8097,3.5915,3.3631,3.1269,3.1463,3.1647,3.1687,3.1687,3.1687,3.1687,3.1687,3.1687,3.1687,3.1687,3.1687,3.1687,3.1687,3.1687,3.1687,3.1687,3.1687,3.1687,3.1687,3.1687,3.1687,3.1687,3.1687,3.1687,4.1464,4.1191,4.1191,4.1191,4.1191,4.1191,4.1191,4.1191,4.1191,4.1191,4.1191,4.1269,4.1504,4.1523,4.1601,4.1836,4.1855,4.1855,4.1855,4.2031,4.2402,4.3065,4.3301,4.3613,4.4023,4.4023,4.3828,4.3418,4.3613,4.3613,4.3418,4.3613,4.3711,4.3711,4.3711,4.3711,4.3711,4.3711,4.3711,4.3711,4.3711,4.3711,4.3711,4.3711,4.3711,4.3711,4.3711,4.3711,4.3711,4.3711,4.3711,4.3711,4.3711,4.3711,4.3711,4.3711,4.3711,4.3711,4.3711,4.3711,4.3711,4.3711,4.3711,4.3711,4.3711,4.3711,4.3711,4.3711,4.3711,4.3711,4.3711,4.3711,4.3496,4.2871,4.1099,0.0,0.0,3.9718,3.8884,3.5499,3.9448,4.1445,3.8924,4.0947,4.2974,4.4291,4.3602,4.1644,3.8279,3.724,3.5104,3.1568,3.162,3.1687,3.1687,3.1687,3.1687,3.1687,3.1687,3.1687,3.1687,3.1687,3.1687,3.1687,3.1687,3.1687,3.1687,3.1687,3.1687,3.1687,3.1687,3.1687,3.1687,3.1687,3.1687,3.1687,4.1638,4.1269,4.1348,4.1348,4.1348,4.1348,4.1348,4.1348,4.1348,4.1348,4.1426,4.1602,4.1914,4.1953,4.205,4.2382,4.2402,4.2441,4.2558,4.2558,4.2851,4.3535,4.375,4.3808,4.3711,4.3808,4.3808,4.3711,4.3711,4.3711,4.3711,4.3711,4.3711,4.3711,4.3711,4.3711,4.3711,4.3711,4.3711,4.3711,4.3711,4.3711,4.3711,4.3711,4.3711,4.3711,4.3711,4.3711,4.3711,4.3711,4.3711,4.3711,4.3711,4.3711,4.373,4.3828,4.3926,4.3963,4.3887,4.3926,4.4004,4.4004,4.4004,4.3984,4.3887,4.3867,4.3867,4.3867,4.3867,4.3867,4.3867,4.3867,4.3652,4.3048,0.0,0.0,0.0,3.9937,3.9253,3.7781,4.1304,4.2994,4.0805,4.2652,4.416,4.4512,4.4103,4.221,3.8505,3.786,3.5791,3.183,3.1687,3.1687,3.1687,3.1687,3.1687,3.1687,3.1687,3.1687,3.1687,3.1687,3.1687,3.1687,3.1687,3.1687,3.1687,3.1687,3.1687,3.1687,3.1687,3.1687,3.1687,3.1687,3.1687,3.1687,4.1579,4.1504,4.1758,4.1758,4.1758,4.1758,4.1758,4.1758,4.1758,4.1758,4.207,4.2324,4.2363,4.2363,4.2382,4.2402,4.2402,4.2577,4.3028,4.3048,4.3087,4.3145,4.3906,4.4141,4.3711,4.4121,4.4141,4.3711,4.3711,4.3711,4.3711,4.3711,4.3711,4.3711,4.3711,4.3711,4.3711,4.3711,4.3711,4.3711,4.3711,4.3711,4.3711,4.3711,4.3711,4.3711,4.3711,4.3711,4.3711,4.3711,4.3711,4.3711,4.3711,4.3711,4.3789,4.4219,4.4608,4.4822,4.4453,4.4608,4.4901,4.4901,4.4901,4.4803,4.4433,4.4355,4.4355,4.4355,4.4355,4.4355,4.4355,4.4355,4.3926,4.2656,0.0,0.0,4.2519,4.1068,4.0162,4.1089,4.3074,4.3589,4.1705,4.3564,4.492,4.4959,4.323,4.1046,3.8432,3.6527,3.4344,3.1782,3.1687,3.1687,3.1687,3.1687,3.1687,3.1687,3.1687,3.1687,3.1687,3.1687,3.1687,3.1687,3.1687,3.1687,3.1687,3.1687,3.1687,3.1687,3.1687,3.1687,3.1687,3.1687,3.1687,3.1687,4.2149,4.1699,4.1875,4.2128,4.2167,4.2167,4.2167,4.2167,4.2167,4.2167,4.2304,4.2499,4.2793,4.2832,4.293,4.3163,4.3223,4.3281,4.3457,4.3457,4.3457,4.3457,4.4062,4.418,4.3711,4.3867,4.3887,4.3711,4.3711,4.3711,4.3711,4.3711,4.3711,4.3711,4.3711,4.3711,4.3711,4.3711,4.3711,4.3711,4.3711,4.3711,4.3711,4.3711,4.3711,4.3711,4.3711,4.3711,4.3711,4.3711,4.3711,4.375,4.4043,4.4141,4.4219,4.4668,4.5098,4.5391,4.5256,4.5117,4.4998,4.4998,4.4998,4.4959,4.4803,4.4764,4.4764,4.4764,4.4764,4.4764,4.4764,4.457,4.4141,4.3359,0.0,4.2417,4.3024,4.2835,4.2289,4.1289,4.3311,4.3934,4.1814,4.3659,4.5115,4.541,4.4727,4.2678,3.8921,3.5124,3.2654,3.1735,3.1687,3.1687,3.1687,3.1687,3.1687,3.1687,3.1687,3.1687,3.1687,3.1687,3.1687,3.1687,3.1687,3.1687,3.1687,3.1687,3.1687,3.1687,3.1687,3.1687,3.1687,3.1687,3.1687,3.1687,4.3543,4.2566,4.2285,4.2558,4.2616,4.2616,4.2616,4.2616,4.2616,4.2616,4.2734,4.2949,4.3242,4.3302,4.3398,4.3691,4.3711,4.3711,4.3711,4.3711,4.3711,4.3711,4.4004,4.4023,4.3711,4.3711,4.3711,4.3711,4.3711,4.3711,4.3711,4.3711,4.3711,4.3711,4.3711,4.3711,4.3711,4.3711,4.3711,4.3711,4.3711,4.3711,4.3711,4.3711,4.3711,4.3711,4.3711,4.3711,4.3711,4.3711,4.3808,4.3984,4.4297,4.459,4.4863,4.5156,4.5527,4.59,4.59,4.5664,4.5408,4.5408,4.5408,4.5369,4.5254,4.5213,4.5213,4.5213,4.5213,4.5213,4.5213,4.4883,4.4453,4.3984,4.3789,4.3652,4.3536,4.4004,4.3904,4.2563,4.4061,4.4654,4.3218,4.4487,4.5547,4.5859,4.5167,4.2724,3.8085,3.3943,3.1687,3.1687,3.1687,3.1687,3.1687,3.1687,3.1687,3.1687,3.1687,3.1687,3.1687,3.1687,3.1687,3.1687,3.1687,3.1687,3.1687,3.1687,3.1687,3.1687,3.1687,3.1687,3.1687,3.1687,3.1687,3.1687,4.59,4.4259,4.3106,4.3127,4.3127,4.3106,4.3106,4.3106,4.3106,4.3106,4.3437,4.3711,4.3711,4.3711,4.3711,4.3711,4.3711,4.3711,4.3711,4.3711,4.3711,4.3711,4.3711,4.3711,4.3711,4.3711,4.3711,4.3711,4.3711,4.3711,4.3711,4.3711,4.3711,4.3711,4.3711,4.3711,4.3711,4.3711,4.3711,4.3711,4.3711,4.3711,4.3711,4.3711,4.3711,4.3711,4.3711,4.3711,4.3711,4.3711,4.4023,4.4414,4.4414,4.5021,4.5705,4.5705,4.5998,4.6308,4.6308,4.6308,4.6308,4.6308,4.6308,4.6191,4.5803,4.5705,4.5705,4.5705,4.5705,4.5705,4.5705,4.5332,4.4881,4.4473,4.4004,4.3867,4.4336,4.4394,4.4748,4.5607,4.5705,4.5861,4.6269,4.6308,4.6308,4.6308,4.397,4.0452,3.5579,3.3017,3.1687,3.1687,3.1687,3.1687,3.1687,3.1687,3.1687,3.1687,3.1687,3.1687,3.1687,3.1687,3.1687,3.1687,3.1687,3.1687,3.1687,3.1687,3.1687,3.1687,3.1687,3.1687,3.1687,3.1687,3.1687,3.1687,4.8206,4.5437,4.3653,4.5391,4.4479,4.3516,4.3516,4.3516,4.3516,4.3516,4.3633,4.3711,4.3711,4.3711,4.3711,4.3711,4.3711,4.3711,4.3711,4.3711,4.3711,4.3711,4.3711,4.3711,4.3711,4.3711,4.3711,4.3711,4.3711,4.3711,4.3711,4.3711,4.3711,4.3711,4.3711,4.3711,4.3711,4.3711,4.3711,4.3711,4.3711,4.3711,4.3711,4.3711,4.3711,4.3711,4.3711,4.3906,4.4199,4.4199,4.4452,4.4862,4.5217,4.5664,4.6113,4.6113,4.6211,4.6308,4.6308,4.6308,4.6308,4.6308,4.6308,4.6269,4.6152,4.6113,4.6113,4.6113,4.6113,4.6113,4.6113,4.5762,4.5332,4.4881,4.4473,4.4238,4.4375,4.4627,4.5039,4.5627,4.5959,4.6172,4.6289,4.6308,4.6308,4.6308,4.2438,3.9449,3.7987,3.3966,3.1687,3.1687,3.1687,3.1687,3.1687,3.1687,3.1687,3.1687,3.1687,3.1687,3.1687,3.1687,3.1687,3.1687,3.1687,3.1687,3.1687,3.1687,3.1687,3.1687,3.1687,3.1687,3.1687,3.1687,3.1687,3.1687,5.0692,4.7455,4.5068,4.6544,4.5088,4.3711,4.3711,4.3711,4.3711,4.3711,4.3711,4.3711,4.3711,4.3711,4.3711,4.3711,4.3711,4.3711,4.3711,4.3711,4.3711,4.3711,4.3711,4.3711,4.3711,4.3711,4.3711,4.3711,4.3711,4.3711,4.3711,4.3711,4.3711,4.3711,4.3711,4.3711,4.3711,4.3711,4.3711,4.3711,4.3711,4.3711,4.3711,4.3711,4.3711,4.373,4.3906,4.416,4.4414,4.4569,4.4901,4.5351,4.5803,4.6094,4.6308,4.6308,4.6308,4.6308,4.6308,4.6308,4.6308,4.6308,4.6308,4.6308,4.6308,4.6308,4.6308,4.6308,4.6308,4.6308,4.6308,4.582,4.5332,4.5037,4.4647,4.4453,4.4629,4.5019,4.5449,4.5879,4.6152,4.6308,4.6308,4.6308,4.6308,4.6308,4.1771,3.9016,3.9016,3.435,3.1687,3.1687,3.1687,3.1687,3.1687,3.1687,3.1687,3.1687,3.1687,3.1687,3.1687,3.1687,3.1687,3.1687,3.1687,3.1687,3.1687,3.1687,3.1687,3.1687,3.1687,3.1687,3.1687,3.1687,3.1687,3.1687,5.3005,4.9755,4.6868,4.6827,4.5088,4.3711,4.3711,4.3711,4.3711,4.3711,4.3711,4.3711,4.3711,4.3711,4.3711,4.3711,4.3711,4.3711,4.3711,4.3711,4.3711,4.3711,4.3711,4.3711,4.3711,4.3711,4.3711,4.3711,4.3711,4.3711,4.3711,4.3711,4.3711,4.3711,4.3711,4.3711,4.3711,4.3711,4.3711,4.3711,4.3711,4.3711,4.3711,4.375,4.3769,4.3828,4.4297,4.4473,4.457,4.4979,4.541,4.5822,4.6191,4.6308,4.6308,4.6308,4.6308,4.6308,4.6308,4.6308,4.6308,4.6308,4.6308,4.6308,4.6308,4.6308,4.6308,4.6308,4.6308,4.6308,4.6308,4.5642,4.5115,4.5076,4.4766,4.4648,4.4998,4.543,4.5861,4.625,4.6308,4.6308,4.6308,4.6308,4.6308,4.6308,4.1771,3.9016,3.9016,3.435,3.1687,3.1687,3.1687,3.1687,3.1687,3.1687,3.1687,3.1687,3.1687,3.1687,3.1687,3.1687,3.1687,3.1687,3.1687,3.1687,3.1687,3.1687,3.1687,3.1687,3.1687,3.1687,3.1687,3.1687,3.1687,3.1687,5.3076,4.9713,4.6827,4.6868,4.5108,4.3711,4.3711,4.3711,4.3711,4.3711,4.3711,4.3711,4.3711,4.3711,4.3711,4.3711,4.3711,4.3711,4.3711,4.3711,4.3711,4.3711,4.3711,4.3711,4.3711,4.3711,4.3711,4.3711,4.3711,4.3711,4.3711,4.3711,4.3711,4.3711,4.3711,4.3711,4.3711,4.3711,4.3711,4.3711,4.3711,4.3711,4.375,4.4101,4.4258,4.4297,4.4705,4.5117,4.549,4.5879,4.6094,4.6191,4.6269,4.6308,4.6308,4.6308,4.6308,4.6308,4.6308,4.6308,4.6308,4.6308,4.6308,4.6308,4.6308,4.6308,4.6308,4.6308,4.6308,4.6308,4.6308,4.6152,4.5918,4.5586,4.549,4.5451,4.5549,4.5646,4.5861,4.625,4.6308,4.6308,4.6308,4.6308,4.6308,4.6308,4.1771,3.9016,3.9016,3.435,3.1687,3.1687,3.1687,3.1687,3.1687,3.1687,3.1687,3.1687,3.1687,3.1687,3.1687,3.1687,3.1687,3.1687,3.1687,3.1687,3.1687,3.1687,3.1687,3.1687,3.1687,3.1687,3.1687,3.1687,3.1687,3.1687,5.3289,5.053,4.8023,4.7007,4.5088,4.3711,4.3711,4.3711,4.3711,4.3711,4.3711,4.3711,4.3711,4.3711,4.3711,4.3711,4.3711,4.3711,4.3711,4.3711,4.3711,4.3711,4.3711,4.3711,4.3711,4.3711,4.3711,4.3711,4.3711,4.3711,4.3711,4.3711,4.3711,4.3711,4.3711,4.3711,4.3711,4.3711,4.3711,4.3711,4.3711,4.3711,4.375,4.4219,4.4394,4.4473,4.5117,4.5605,4.6037,4.623,4.6308,4.6308,4.6308,4.6308,4.6308,4.6308,4.6308,4.6308,4.6308,4.6308,4.6308,4.6308,4.6308,4.6308,4.6308,4.6308,4.6308,4.6308,4.6308,4.6308,4.6308,4.6133,4.5937,4.5725,4.5705,4.5705,4.5705,4.5861,4.6055,4.6269,4.6308,4.6308,4.6308,4.6308,4.6308,4.6308,4.284,4.022,3.9061,3.5455,3.289,3.1735,3.1687,3.1687,3.1687,3.1687,3.1687,3.1687,3.1687,3.1687,3.1687,3.1687,3.1687,3.1687,3.1687,3.1687,3.1687,3.1687,3.1687,3.1687,3.1687,3.1687,3.1687,3.1687,3.1687,3.1687,5.3519,5.1727,4.985,4.7725,4.592,4.4658,4.4309,4.4247,4.4103,4.3752,4.3711,4.3711,4.3711,4.3711,4.3711,4.3711,4.3711,4.3711,4.3711,4.3711,4.3711,4.3711,4.3711,4.3711,4.3711,4.3711,4.3711,4.3711,4.3711,4.3711,4.3711,4.3711,4.3711,4.3711,4.3711,4.3711,4.3711,4.3711,4.3711,4.3711,4.3711,4.375,4.3867,4.4336,4.4551,4.4748,4.5529,4.6037,4.6308,4.6308,4.6308,4.6308,4.6308,4.6308,4.6308,4.6308,4.6308,4.6308,4.6308,4.6308,4.6308,4.6308,4.6308,4.6308,4.6308,4.6308,4.6308,4.6308,4.6308,4.6308,4.6308,4.6037,4.5803,4.5803,4.5803,4.5803,4.5803,4.6074,4.6308,4.6308,4.6308,4.6308,4.6308,4.6308,4.6308,4.6308,4.4011,4.1731,3.9721,3.6883,3.4397,3.2384,3.1924,3.1687,3.1687,3.1687,3.1687,3.1687,3.1687,3.1687,3.1687,3.1687,3.1687,3.1687,3.1687,3.1687,3.1687,3.1687,3.1687,3.1687,3.1687,3.1687,3.1687,3.1687,3.1687,3.1687,5.3519,5.2873,5.2033,4.9928,4.9322,4.8537,4.6747,4.6425,4.5738,4.3939,4.3711,4.3711,4.3711,4.3711,4.3711,4.3711,4.3711,4.3711,4.3711,4.3711,4.3711,4.3711,4.3711,4.3711,4.3711,4.3711,4.3711,4.3711,4.3711,4.3711,4.3711,4.3711,4.3711,4.3711,4.3711,4.3711,4.3711,4.3711,4.3711,4.3711,4.3711,4.3945,4.4355,4.4764,4.5176,4.5588,4.6055,4.625,4.6308,4.6308,4.6308,4.6308,4.6308,4.6308,4.6308,4.6308,4.6308,4.6308,4.6308,4.6308,4.6308,4.6308,4.6308,4.6308,4.6308,4.6308,4.6308,4.6308,4.6308,4.6308,4.6308,4.625,4.6211,4.6211,4.6211,4.6211,4.6211,4.6269,4.6308,4.6308,4.6308,4.6308,4.6308,4.6308,4.6308,4.6308,4.4011,4.2465,4.2129,3.7764,3.5137,3.4826,3.2795,3.1687,3.1687,3.1687,3.1687,3.1687,3.1687,3.1687,3.1687,3.1687,3.1687,3.1687,3.1687,3.1687,3.1687,3.1687,3.1687,3.1687,3.1687,3.1687,3.1687,3.1687,3.1687,3.1687,5.3519,5.31,5.2433,5.0355,4.9986,4.9305,4.7167,4.6868,4.6102,4.398,4.3711,4.3711,4.3711,4.3711,4.3711,4.3711,4.3711,4.3711,4.3711,4.3711,4.3711,4.3711,4.3711,4.3711,4.3711,4.3711,4.3711,4.3711,4.3711,4.3711,4.3711,4.3711,4.3711,4.3711,4.3711,4.3711,4.373,4.3984,4.4082,4.4121,4.4355,4.4549,4.4764,4.5215,4.5508,4.5744,4.6152,4.6308,4.6308,4.6308,4.6308,4.6308,4.6308,4.6308,4.6308,4.6308,4.6308,4.6308,4.6308,4.6308,4.6308,4.6308,4.6308,4.6308,4.6308,4.6308,4.6308,4.6308,4.6308,4.6308,4.6308,4.6308,4.6308,4.6308,4.6308,4.6308,4.6308,4.6308,4.6308,4.6308,4.6308,4.6308,4.6308,4.6308,4.6308,4.6308,4.5285,4.4055,4.2666,3.9273,3.6722,3.5347,3.296,3.1687,3.1687,3.1687,3.1687,3.1687,3.1687,3.1687,3.1687,3.1687,3.1687,3.1687,3.1687,3.1687,3.1687,3.1687,3.1687,3.1687,3.1687,3.1687,3.1687,3.1687,3.1687,3.1687]}]]